<?xml version="1.0" encoding="UTF-8" standalone="no" ?>
<gpx xmlns="http://www.topografix.com/GPX/1/1" xmlns:xsi="http://www.w3.org/2001/XMLSchema-instance" xsi:schemaLocation="http://www.topografix.com/GPX/1/1 http://www.topografix.com/GPX/1/1/gpx.xsd" version="1.1" creator="VisuGPX - https://www.visugpx.com">
  <metadata>
    <name>Re les 3 bosses</name>
    <desc><![CDATA[Re les 3 bosses]]></desc>
  </metadata>
  <trk>
    <name><![CDATA[Path Segment 1]]></name>
    <trkseg>
      <trkpt lat="47.51846" lon="6.77499">
        <ele>505</ele>
        <time>2014-01-25T12:19:24.160Z</time>
      </trkpt>
      <trkpt lat="47.51807" lon="6.77488">
        <ele>444</ele>
        <time>2014-01-25T12:19:30.025Z</time>
      </trkpt>
      <trkpt lat="47.5181" lon="6.7749">
        <ele>444</ele>
        <time>2014-01-25T12:19:34.967Z</time>
      </trkpt>
      <trkpt lat="47.51814" lon="6.77491">
        <ele>444</ele>
        <time>2014-01-25T12:19:40.040Z</time>
      </trkpt>
      <trkpt lat="47.51814" lon="6.77488">
        <ele>433</ele>
        <time>2014-01-25T12:19:44.968Z</time>
      </trkpt>
      <trkpt lat="47.51812" lon="6.77487">
        <ele>435</ele>
        <time>2014-01-25T12:19:50.043Z</time>
      </trkpt>
      <trkpt lat="47.51808" lon="6.77487">
        <ele>437</ele>
        <time>2014-01-25T12:19:54.969Z</time>
      </trkpt>
      <trkpt lat="47.51805" lon="6.77494">
        <ele>439</ele>
        <time>2014-01-25T12:20:00.010Z</time>
      </trkpt>
      <trkpt lat="47.51791" lon="6.77489">
        <ele>441</ele>
        <time>2014-01-25T12:20:04.974Z</time>
      </trkpt>
      <trkpt lat="47.51773" lon="6.77481">
        <ele>443</ele>
        <time>2014-01-25T12:20:10.040Z</time>
      </trkpt>
      <trkpt lat="47.51753" lon="6.77477">
        <ele>445</ele>
        <time>2014-01-25T12:20:14.976Z</time>
      </trkpt>
      <trkpt lat="47.51732" lon="6.77475">
        <ele>446</ele>
        <time>2014-01-25T12:20:20.082Z</time>
      </trkpt>
      <trkpt lat="47.51721" lon="6.77506">
        <ele>447</ele>
        <time>2014-01-25T12:20:24.931Z</time>
      </trkpt>
      <trkpt lat="47.51715" lon="6.77539">
        <ele>447</ele>
        <time>2014-01-25T12:20:29.997Z</time>
      </trkpt>
      <trkpt lat="47.51699" lon="6.77543">
        <ele>446</ele>
        <time>2014-01-25T12:20:34.931Z</time>
      </trkpt>
      <trkpt lat="47.51677" lon="6.77518">
        <ele>445</ele>
        <time>2014-01-25T12:20:40.042Z</time>
      </trkpt>
      <trkpt lat="47.51654" lon="6.77489">
        <ele>444</ele>
        <time>2014-01-25T12:20:44.965Z</time>
      </trkpt>
      <trkpt lat="47.51629" lon="6.77458">
        <ele>442</ele>
        <time>2014-01-25T12:20:50.038Z</time>
      </trkpt>
      <trkpt lat="47.51603" lon="6.77427">
        <ele>440</ele>
        <time>2014-01-25T12:20:54.962Z</time>
      </trkpt>
      <trkpt lat="47.51573" lon="6.77392">
        <ele>438</ele>
        <time>2014-01-25T12:21:00.315Z</time>
      </trkpt>
      <trkpt lat="47.5154" lon="6.77353">
        <ele>435</ele>
        <time>2014-01-25T12:21:04.972Z</time>
      </trkpt>
      <trkpt lat="47.51508" lon="6.77314">
        <ele>433</ele>
        <time>2014-01-25T12:21:10.021Z</time>
      </trkpt>
      <trkpt lat="47.51493" lon="6.77281">
        <ele>431</ele>
        <time>2014-01-25T12:21:14.973Z</time>
      </trkpt>
      <trkpt lat="47.51489" lon="6.77242">
        <ele>430</ele>
        <time>2014-01-25T12:21:20.041Z</time>
      </trkpt>
      <trkpt lat="47.51481" lon="6.77201">
        <ele>427</ele>
        <time>2014-01-25T12:21:24.965Z</time>
      </trkpt>
      <trkpt lat="47.51447" lon="6.77206">
        <ele>426</ele>
        <time>2014-01-25T12:21:30.039Z</time>
      </trkpt>
      <trkpt lat="47.51413" lon="6.77224">
        <ele>425</ele>
        <time>2014-01-25T12:21:34.968Z</time>
      </trkpt>
      <trkpt lat="47.51387" lon="6.77241">
        <ele>427</ele>
        <time>2014-01-25T12:21:40.020Z</time>
      </trkpt>
      <trkpt lat="47.51365" lon="6.77256">
        <ele>427</ele>
        <time>2014-01-25T12:21:44.964Z</time>
      </trkpt>
      <trkpt lat="47.51347" lon="6.77272">
        <ele>429</ele>
        <time>2014-01-25T12:21:50.035Z</time>
      </trkpt>
      <trkpt lat="47.51332" lon="6.77282">
        <ele>430</ele>
        <time>2014-01-25T12:21:54.969Z</time>
      </trkpt>
      <trkpt lat="47.5126" lon="6.77243">
        <ele>435</ele>
        <time>2014-01-25T12:22:15.910Z</time>
      </trkpt>
      <trkpt lat="47.51228" lon="6.77178">
        <ele>437</ele>
        <time>2014-01-25T12:22:25.006Z</time>
      </trkpt>
      <trkpt lat="47.5121" lon="6.77142">
        <ele>437</ele>
        <time>2014-01-25T12:22:29.982Z</time>
      </trkpt>
      <trkpt lat="47.51185" lon="6.771">
        <ele>434</ele>
        <time>2014-01-25T12:22:35.036Z</time>
      </trkpt>
      <trkpt lat="47.51157" lon="6.77057">
        <ele>432</ele>
        <time>2014-01-25T12:22:39.968Z</time>
      </trkpt>
      <trkpt lat="47.51126" lon="6.77029">
        <ele>431</ele>
        <time>2014-01-25T12:22:45.005Z</time>
      </trkpt>
      <trkpt lat="47.51094" lon="6.77002">
        <ele>431</ele>
        <time>2014-01-25T12:22:49.969Z</time>
      </trkpt>
      <trkpt lat="47.51067" lon="6.76975">
        <ele>431</ele>
        <time>2014-01-25T12:22:54.965Z</time>
      </trkpt>
      <trkpt lat="47.5104" lon="6.76951">
        <ele>433</ele>
        <time>2014-01-25T12:23:00.044Z</time>
      </trkpt>
      <trkpt lat="47.51016" lon="6.76927">
        <ele>433</ele>
        <time>2014-01-25T12:23:04.973Z</time>
      </trkpt>
      <trkpt lat="47.50997" lon="6.76901">
        <ele>433</ele>
        <time>2014-01-25T12:23:09.969Z</time>
      </trkpt>
      <trkpt lat="47.50974" lon="6.76893">
        <ele>434</ele>
        <time>2014-01-25T12:23:15.037Z</time>
      </trkpt>
      <trkpt lat="47.50954" lon="6.76878">
        <ele>437</ele>
        <time>2014-01-25T12:23:19.977Z</time>
      </trkpt>
      <trkpt lat="47.50935" lon="6.76858">
        <ele>436</ele>
        <time>2014-01-25T12:23:25.034Z</time>
      </trkpt>
      <trkpt lat="47.50922" lon="6.76833">
        <ele>436</ele>
        <time>2014-01-25T12:23:29.976Z</time>
      </trkpt>
      <trkpt lat="47.5091" lon="6.76805">
        <ele>437</ele>
        <time>2014-01-25T12:23:35.038Z</time>
      </trkpt>
      <trkpt lat="47.50899" lon="6.76778">
        <ele>437</ele>
        <time>2014-01-25T12:23:39.966Z</time>
      </trkpt>
      <trkpt lat="47.5089" lon="6.76753">
        <ele>437</ele>
        <time>2014-01-25T12:23:45.037Z</time>
      </trkpt>
      <trkpt lat="47.50884" lon="6.76728">
        <ele>440</ele>
        <time>2014-01-25T12:23:49.970Z</time>
      </trkpt>
      <trkpt lat="47.50875" lon="6.76703">
        <ele>442</ele>
        <time>2014-01-25T12:23:55.038Z</time>
      </trkpt>
      <trkpt lat="47.50845" lon="6.76639">
        <ele>447</ele>
        <time>2014-01-25T12:24:10.767Z</time>
      </trkpt>
      <trkpt lat="47.50836" lon="6.76619">
        <ele>449</ele>
        <time>2014-01-25T12:24:15.042Z</time>
      </trkpt>
      <trkpt lat="47.50829" lon="6.766">
        <ele>450</ele>
        <time>2014-01-25T12:24:19.965Z</time>
      </trkpt>
      <trkpt lat="47.50819" lon="6.76595">
        <ele>449</ele>
        <time>2014-01-25T12:24:24.998Z</time>
      </trkpt>
      <trkpt lat="47.50811" lon="6.76583">
        <ele>451</ele>
        <time>2014-01-25T12:24:29.967Z</time>
      </trkpt>
      <trkpt lat="47.508" lon="6.76587">
        <ele>452</ele>
        <time>2014-01-25T12:24:35.039Z</time>
      </trkpt>
      <trkpt lat="47.50787" lon="6.76589">
        <ele>453</ele>
        <time>2014-01-25T12:24:39.964Z</time>
      </trkpt>
      <trkpt lat="47.50771" lon="6.76591">
        <ele>454</ele>
        <time>2014-01-25T12:24:45.037Z</time>
      </trkpt>
      <trkpt lat="47.50757" lon="6.76592">
        <ele>456</ele>
        <time>2014-01-25T12:24:49.964Z</time>
      </trkpt>
      <trkpt lat="47.50742" lon="6.76592">
        <ele>457</ele>
        <time>2014-01-25T12:24:55.027Z</time>
      </trkpt>
      <trkpt lat="47.50679" lon="6.76586">
        <ele>457</ele>
        <time>2014-01-25T12:25:14.974Z</time>
      </trkpt>
      <trkpt lat="47.50665" lon="6.76589">
        <ele>458</ele>
        <time>2014-01-25T12:25:19.954Z</time>
      </trkpt>
      <trkpt lat="47.50651" lon="6.76595">
        <ele>457</ele>
        <time>2014-01-25T12:25:25.019Z</time>
      </trkpt>
      <trkpt lat="47.50638" lon="6.76601">
        <ele>457</ele>
        <time>2014-01-25T12:25:29.959Z</time>
      </trkpt>
      <trkpt lat="47.50628" lon="6.76608">
        <ele>458</ele>
        <time>2014-01-25T12:25:35.041Z</time>
      </trkpt>
      <trkpt lat="47.50615" lon="6.76614">
        <ele>459</ele>
        <time>2014-01-25T12:25:39.963Z</time>
      </trkpt>
      <trkpt lat="47.50603" lon="6.76619">
        <ele>459</ele>
        <time>2014-01-25T12:25:45.035Z</time>
      </trkpt>
      <trkpt lat="47.5059" lon="6.76622">
        <ele>460</ele>
        <time>2014-01-25T12:25:49.972Z</time>
      </trkpt>
      <trkpt lat="47.50577" lon="6.76626">
        <ele>461</ele>
        <time>2014-01-25T12:25:55.044Z</time>
      </trkpt>
      <trkpt lat="47.50534" lon="6.76636">
        <ele>462</ele>
        <time>2014-01-25T12:26:09.961Z</time>
      </trkpt>
      <trkpt lat="47.50518" lon="6.76643">
        <ele>462</ele>
        <time>2014-01-25T12:26:15.046Z</time>
      </trkpt>
      <trkpt lat="47.505" lon="6.76648">
        <ele>461</ele>
        <time>2014-01-25T12:26:19.960Z</time>
      </trkpt>
      <trkpt lat="47.50481" lon="6.76653">
        <ele>461</ele>
        <time>2014-01-25T12:26:25.040Z</time>
      </trkpt>
      <trkpt lat="47.50462" lon="6.7666">
        <ele>460</ele>
        <time>2014-01-25T12:26:29.957Z</time>
      </trkpt>
      <trkpt lat="47.50444" lon="6.76669">
        <ele>460</ele>
        <time>2014-01-25T12:26:35.039Z</time>
      </trkpt>
      <trkpt lat="47.50427" lon="6.76675">
        <ele>460</ele>
        <time>2014-01-25T12:26:39.960Z</time>
      </trkpt>
      <trkpt lat="47.5041" lon="6.76681">
        <ele>461</ele>
        <time>2014-01-25T12:26:45.030Z</time>
      </trkpt>
      <trkpt lat="47.50394" lon="6.76687">
        <ele>461</ele>
        <time>2014-01-25T12:26:49.967Z</time>
      </trkpt>
      <trkpt lat="47.50379" lon="6.76697">
        <ele>461</ele>
        <time>2014-01-25T12:26:55.036Z</time>
      </trkpt>
      <trkpt lat="47.50331" lon="6.76715">
        <ele>463</ele>
        <time>2014-01-25T12:27:10.092Z</time>
      </trkpt>
      <trkpt lat="47.50314" lon="6.7672">
        <ele>463</ele>
        <time>2014-01-25T12:27:15.039Z</time>
      </trkpt>
      <trkpt lat="47.503" lon="6.76725">
        <ele>463</ele>
        <time>2014-01-25T12:27:19.965Z</time>
      </trkpt>
      <trkpt lat="47.50284" lon="6.76725">
        <ele>464</ele>
        <time>2014-01-25T12:27:25.037Z</time>
      </trkpt>
      <trkpt lat="47.50269" lon="6.76732">
        <ele>464</ele>
        <time>2014-01-25T12:27:29.965Z</time>
      </trkpt>
      <trkpt lat="47.50256" lon="6.76736">
        <ele>464</ele>
        <time>2014-01-25T12:27:34.968Z</time>
      </trkpt>
      <trkpt lat="47.50246" lon="6.76733">
        <ele>463</ele>
        <time>2014-01-25T12:27:40.010Z</time>
      </trkpt>
      <trkpt lat="47.50238" lon="6.76721">
        <ele>464</ele>
        <time>2014-01-25T12:27:44.964Z</time>
      </trkpt>
      <trkpt lat="47.50231" lon="6.76705">
        <ele>463</ele>
        <time>2014-01-25T12:27:50.040Z</time>
      </trkpt>
      <trkpt lat="47.50224" lon="6.76685">
        <ele>463</ele>
        <time>2014-01-25T12:27:54.965Z</time>
      </trkpt>
      <trkpt lat="47.50197" lon="6.76588">
        <ele>462</ele>
        <time>2014-01-25T12:28:19.975Z</time>
      </trkpt>
      <trkpt lat="47.50198" lon="6.76578">
        <ele>462</ele>
        <time>2014-01-25T12:28:24.991Z</time>
      </trkpt>
      <trkpt lat="47.5021" lon="6.76577">
        <ele>463</ele>
        <time>2014-01-25T12:28:29.965Z</time>
      </trkpt>
      <trkpt lat="47.50214" lon="6.76553">
        <ele>461</ele>
        <time>2014-01-25T12:28:35.032Z</time>
      </trkpt>
      <trkpt lat="47.50206" lon="6.7652">
        <ele>460</ele>
        <time>2014-01-25T12:28:39.973Z</time>
      </trkpt>
      <trkpt lat="47.50195" lon="6.76477">
        <ele>460</ele>
        <time>2014-01-25T12:28:45.042Z</time>
      </trkpt>
      <trkpt lat="47.50185" lon="6.76427">
        <ele>460</ele>
        <time>2014-01-25T12:28:49.966Z</time>
      </trkpt>
      <trkpt lat="47.50175" lon="6.76389">
        <ele>461</ele>
        <time>2014-01-25T12:28:55.037Z</time>
      </trkpt>
      <trkpt lat="47.50136" lon="6.76283">
        <ele>461</ele>
        <time>2014-01-25T12:29:09.960Z</time>
      </trkpt>
      <trkpt lat="47.50125" lon="6.76247">
        <ele>461</ele>
        <time>2014-01-25T12:29:15.020Z</time>
      </trkpt>
      <trkpt lat="47.50111" lon="6.762">
        <ele>460</ele>
        <time>2014-01-25T12:29:19.960Z</time>
      </trkpt>
      <trkpt lat="47.50112" lon="6.7615">
        <ele>459</ele>
        <time>2014-01-25T12:29:25.031Z</time>
      </trkpt>
      <trkpt lat="47.50103" lon="6.76103">
        <ele>458</ele>
        <time>2014-01-25T12:29:29.957Z</time>
      </trkpt>
      <trkpt lat="47.50099" lon="6.76045">
        <ele>457</ele>
        <time>2014-01-25T12:29:35.038Z</time>
      </trkpt>
      <trkpt lat="47.50099" lon="6.75994">
        <ele>456</ele>
        <time>2014-01-25T12:29:39.955Z</time>
      </trkpt>
      <trkpt lat="47.50093" lon="6.75955">
        <ele>456</ele>
        <time>2014-01-25T12:29:45.036Z</time>
      </trkpt>
      <trkpt lat="47.50071" lon="6.75919">
        <ele>457</ele>
        <time>2014-01-25T12:29:49.956Z</time>
      </trkpt>
      <trkpt lat="47.50052" lon="6.75885">
        <ele>456</ele>
        <time>2014-01-25T12:29:55.008Z</time>
      </trkpt>
      <trkpt lat="47.49926" lon="6.75708">
        <ele>449</ele>
        <time>2014-01-25T12:30:19.970Z</time>
      </trkpt>
      <trkpt lat="47.49888" lon="6.75707">
        <ele>445</ele>
        <time>2014-01-25T12:30:25.040Z</time>
      </trkpt>
      <trkpt lat="47.4985" lon="6.75715">
        <ele>442</ele>
        <time>2014-01-25T12:30:29.959Z</time>
      </trkpt>
      <trkpt lat="47.49813" lon="6.75727">
        <ele>439</ele>
        <time>2014-01-25T12:30:35.002Z</time>
      </trkpt>
      <trkpt lat="47.49773" lon="6.75735">
        <ele>437</ele>
        <time>2014-01-25T12:30:39.944Z</time>
      </trkpt>
      <trkpt lat="47.49737" lon="6.75744">
        <ele>434</ele>
        <time>2014-01-25T12:30:45.035Z</time>
      </trkpt>
      <trkpt lat="47.49704" lon="6.75755">
        <ele>431</ele>
        <time>2014-01-25T12:30:49.958Z</time>
      </trkpt>
      <trkpt lat="47.49671" lon="6.75759">
        <ele>428</ele>
        <time>2014-01-25T12:30:55.037Z</time>
      </trkpt>
      <trkpt lat="47.4965" lon="6.7576">
        <ele>426</ele>
        <time>2014-01-25T12:30:59.954Z</time>
      </trkpt>
      <trkpt lat="47.49595" lon="6.75758">
        <ele>420</ele>
        <time>2014-01-25T12:31:09.954Z</time>
      </trkpt>
      <trkpt lat="47.49575" lon="6.75751">
        <ele>416</ele>
        <time>2014-01-25T12:31:14.992Z</time>
      </trkpt>
      <trkpt lat="47.49564" lon="6.75747">
        <ele>408</ele>
        <time>2014-01-25T12:31:19.956Z</time>
      </trkpt>
      <trkpt lat="47.49567" lon="6.75741">
        <ele>405</ele>
        <time>2014-01-25T12:31:25.043Z</time>
      </trkpt>
      <trkpt lat="47.49588" lon="6.75702">
        <ele>405</ele>
        <time>2014-01-25T12:31:29.964Z</time>
      </trkpt>
      <trkpt lat="47.49592" lon="6.75665">
        <ele>404</ele>
        <time>2014-01-25T12:31:35.042Z</time>
      </trkpt>
      <trkpt lat="47.49558" lon="6.75703">
        <ele>401</ele>
        <time>2014-01-25T12:31:39.929Z</time>
      </trkpt>
      <trkpt lat="47.49523" lon="6.7572">
        <ele>397</ele>
        <time>2014-01-25T12:31:45.042Z</time>
      </trkpt>
      <trkpt lat="47.49489" lon="6.75731">
        <ele>392</ele>
        <time>2014-01-25T12:31:49.957Z</time>
      </trkpt>
      <trkpt lat="47.49473" lon="6.75699">
        <ele>390</ele>
        <time>2014-01-25T12:31:55.036Z</time>
      </trkpt>
      <trkpt lat="47.49451" lon="6.75691">
        <ele>389</ele>
        <time>2014-01-25T12:31:59.965Z</time>
      </trkpt>
      <trkpt lat="47.49436" lon="6.7567">
        <ele>388</ele>
        <time>2014-01-25T12:32:05.035Z</time>
      </trkpt>
      <trkpt lat="47.49416" lon="6.75673">
        <ele>388</ele>
        <time>2014-01-25T12:32:09.955Z</time>
      </trkpt>
      <trkpt lat="47.4939" lon="6.75691">
        <ele>390</ele>
        <time>2014-01-25T12:32:15.039Z</time>
      </trkpt>
      <trkpt lat="47.49367" lon="6.75701">
        <ele>389</ele>
        <time>2014-01-25T12:32:19.957Z</time>
      </trkpt>
      <trkpt lat="47.4936" lon="6.75712">
        <ele>390</ele>
        <time>2014-01-25T12:32:25.038Z</time>
      </trkpt>
      <trkpt lat="47.49339" lon="6.75723">
        <ele>391</ele>
        <time>2014-01-25T12:32:29.956Z</time>
      </trkpt>
      <trkpt lat="47.49315" lon="6.75745">
        <ele>391</ele>
        <time>2014-01-25T12:32:35.034Z</time>
      </trkpt>
      <trkpt lat="47.49293" lon="6.75772">
        <ele>390</ele>
        <time>2014-01-25T12:32:39.956Z</time>
      </trkpt>
      <trkpt lat="47.49268" lon="6.75804">
        <ele>389</ele>
        <time>2014-01-25T12:32:45.037Z</time>
      </trkpt>
      <trkpt lat="47.4925" lon="6.75838">
        <ele>388</ele>
        <time>2014-01-25T12:32:49.957Z</time>
      </trkpt>
      <trkpt lat="47.49232" lon="6.75875">
        <ele>387</ele>
        <time>2014-01-25T12:32:55.041Z</time>
      </trkpt>
      <trkpt lat="47.49186" lon="6.75984">
        <ele>388</ele>
        <time>2014-01-25T12:33:09.956Z</time>
      </trkpt>
      <trkpt lat="47.49172" lon="6.76022">
        <ele>391</ele>
        <time>2014-01-25T12:33:15.035Z</time>
      </trkpt>
      <trkpt lat="47.49156" lon="6.76061">
        <ele>392</ele>
        <time>2014-01-25T12:33:19.961Z</time>
      </trkpt>
      <trkpt lat="47.49144" lon="6.76103">
        <ele>392</ele>
        <time>2014-01-25T12:33:25.031Z</time>
      </trkpt>
      <trkpt lat="47.49134" lon="6.76145">
        <ele>391</ele>
        <time>2014-01-25T12:33:29.954Z</time>
      </trkpt>
      <trkpt lat="47.49128" lon="6.76185">
        <ele>392</ele>
        <time>2014-01-25T12:33:34.998Z</time>
      </trkpt>
      <trkpt lat="47.49123" lon="6.76222">
        <ele>391</ele>
        <time>2014-01-25T12:33:39.953Z</time>
      </trkpt>
      <trkpt lat="47.49129" lon="6.7627">
        <ele>390</ele>
        <time>2014-01-25T12:33:45.005Z</time>
      </trkpt>
      <trkpt lat="47.49131" lon="6.76312">
        <ele>389</ele>
        <time>2014-01-25T12:33:49.964Z</time>
      </trkpt>
      <trkpt lat="47.49125" lon="6.76346">
        <ele>387</ele>
        <time>2014-01-25T12:33:55.022Z</time>
      </trkpt>
      <trkpt lat="47.49124" lon="6.76392">
        <ele>386</ele>
        <time>2014-01-25T12:33:59.953Z</time>
      </trkpt>
      <trkpt lat="47.49118" lon="6.76437">
        <ele>384</ele>
        <time>2014-01-25T12:34:05.039Z</time>
      </trkpt>
      <trkpt lat="47.49113" lon="6.76484">
        <ele>382</ele>
        <time>2014-01-25T12:34:09.954Z</time>
      </trkpt>
      <trkpt lat="47.49138" lon="6.76522">
        <ele>382</ele>
        <time>2014-01-25T12:34:15.006Z</time>
      </trkpt>
      <trkpt lat="47.49168" lon="6.76505">
        <ele>383</ele>
        <time>2014-01-25T12:34:19.950Z</time>
      </trkpt>
      <trkpt lat="47.49178" lon="6.76485">
        <ele>380</ele>
        <time>2014-01-25T12:34:25.020Z</time>
      </trkpt>
      <trkpt lat="47.49179" lon="6.76476">
        <ele>379</ele>
        <time>2014-01-25T12:34:29.964Z</time>
      </trkpt>
      <trkpt lat="47.49187" lon="6.76478">
        <ele>382</ele>
        <time>2014-01-25T12:34:35.036Z</time>
      </trkpt>
      <trkpt lat="47.49185" lon="6.76476">
        <ele>383</ele>
        <time>2014-01-25T12:34:39.957Z</time>
      </trkpt>
      <trkpt lat="47.49181" lon="6.76473">
        <ele>381</ele>
        <time>2014-01-25T12:34:44.992Z</time>
      </trkpt>
      <trkpt lat="47.4918" lon="6.76477">
        <ele>381</ele>
        <time>2014-01-25T12:34:50.054Z</time>
      </trkpt>
      <trkpt lat="47.49181" lon="6.76479">
        <ele>381</ele>
        <time>2014-01-25T12:34:55.031Z</time>
      </trkpt>
      <trkpt lat="47.49186" lon="6.76484">
        <ele>382</ele>
        <time>2014-01-25T12:35:19.959Z</time>
      </trkpt>
      <trkpt lat="47.49186" lon="6.76484">
        <ele>382</ele>
        <time>2014-01-25T12:35:25.042Z</time>
      </trkpt>
      <trkpt lat="47.49186" lon="6.76484">
        <ele>382</ele>
        <time>2014-01-25T12:35:29.956Z</time>
      </trkpt>
      <trkpt lat="47.49186" lon="6.76483">
        <ele>382</ele>
        <time>2014-01-25T12:35:35.064Z</time>
      </trkpt>
      <trkpt lat="47.49186" lon="6.76483">
        <ele>382</ele>
        <time>2014-01-25T12:35:39.967Z</time>
      </trkpt>
      <trkpt lat="47.49186" lon="6.76483">
        <ele>382</ele>
        <time>2014-01-25T12:35:44.970Z</time>
      </trkpt>
      <trkpt lat="47.49186" lon="6.76483">
        <ele>382</ele>
        <time>2014-01-25T12:35:50.147Z</time>
      </trkpt>
      <trkpt lat="47.49186" lon="6.76484">
        <ele>383</ele>
        <time>2014-01-25T12:35:55.138Z</time>
      </trkpt>
      <trkpt lat="47.49196" lon="6.76486">
        <ele>387</ele>
        <time>2014-01-25T12:36:10.796Z</time>
      </trkpt>
      <trkpt lat="47.49196" lon="6.76486">
        <ele>387</ele>
        <time>2014-01-25T12:36:15.137Z</time>
      </trkpt>
      <trkpt lat="47.49196" lon="6.76486">
        <ele>387</ele>
        <time>2014-01-25T12:36:20.056Z</time>
      </trkpt>
      <trkpt lat="47.49196" lon="6.76486">
        <ele>387</ele>
        <time>2014-01-25T12:36:25.137Z</time>
      </trkpt>
      <trkpt lat="47.49197" lon="6.76487">
        <ele>387</ele>
        <time>2014-01-25T12:36:30.055Z</time>
      </trkpt>
      <trkpt lat="47.49197" lon="6.76487">
        <ele>387</ele>
        <time>2014-01-25T12:36:35.126Z</time>
      </trkpt>
      <trkpt lat="47.49197" lon="6.76487">
        <ele>387</ele>
        <time>2014-01-25T12:36:40.059Z</time>
      </trkpt>
      <trkpt lat="47.49197" lon="6.76487">
        <ele>387</ele>
        <time>2014-01-25T12:36:45.134Z</time>
      </trkpt>
      <trkpt lat="47.49197" lon="6.76487">
        <ele>387</ele>
        <time>2014-01-25T12:36:50.057Z</time>
      </trkpt>
      <trkpt lat="47.49197" lon="6.76487">
        <ele>387</ele>
        <time>2014-01-25T12:36:55.138Z</time>
      </trkpt>
      <trkpt lat="47.49197" lon="6.76487">
        <ele>387</ele>
        <time>2014-01-25T12:37:15.129Z</time>
      </trkpt>
      <trkpt lat="47.49197" lon="6.76487">
        <ele>387</ele>
        <time>2014-01-25T12:37:20.061Z</time>
      </trkpt>
      <trkpt lat="47.49197" lon="6.76487">
        <ele>387</ele>
        <time>2014-01-25T12:37:25.142Z</time>
      </trkpt>
      <trkpt lat="47.49197" lon="6.76487">
        <ele>387</ele>
        <time>2014-01-25T12:37:30.060Z</time>
      </trkpt>
      <trkpt lat="47.49197" lon="6.76487">
        <ele>387</ele>
        <time>2014-01-25T12:37:35.098Z</time>
      </trkpt>
      <trkpt lat="47.49197" lon="6.76487">
        <ele>387</ele>
        <time>2014-01-25T12:37:40.056Z</time>
      </trkpt>
      <trkpt lat="47.49198" lon="6.76487">
        <ele>387</ele>
        <time>2014-01-25T12:37:45.137Z</time>
      </trkpt>
      <trkpt lat="47.49198" lon="6.76487">
        <ele>387</ele>
        <time>2014-01-25T12:37:50.284Z</time>
      </trkpt>
      <trkpt lat="47.49198" lon="6.76487">
        <ele>387</ele>
        <time>2014-01-25T12:37:55.125Z</time>
      </trkpt>
      <trkpt lat="47.49198" lon="6.76487">
        <ele>387</ele>
        <time>2014-01-25T12:38:03.183Z</time>
      </trkpt>
      <trkpt lat="47.49198" lon="6.76487">
        <ele>387</ele>
        <time>2014-01-25T12:38:05.139Z</time>
      </trkpt>
      <trkpt lat="47.49197" lon="6.76487">
        <ele>387</ele>
        <time>2014-01-25T12:38:10.064Z</time>
      </trkpt>
      <trkpt lat="47.49197" lon="6.76487">
        <ele>387</ele>
        <time>2014-01-25T12:38:15.137Z</time>
      </trkpt>
      <trkpt lat="47.49197" lon="6.76487">
        <ele>387</ele>
        <time>2014-01-25T12:38:20.054Z</time>
      </trkpt>
      <trkpt lat="47.49197" lon="6.76487">
        <ele>387</ele>
        <time>2014-01-25T12:38:25.135Z</time>
      </trkpt>
      <trkpt lat="47.49197" lon="6.76487">
        <ele>387</ele>
        <time>2014-01-25T12:38:30.062Z</time>
      </trkpt>
      <trkpt lat="47.49197" lon="6.76488">
        <ele>388</ele>
        <time>2014-01-25T12:38:35.101Z</time>
      </trkpt>
      <trkpt lat="47.49197" lon="6.76488">
        <ele>388</ele>
        <time>2014-01-25T12:38:40.025Z</time>
      </trkpt>
      <trkpt lat="47.49197" lon="6.76488">
        <ele>387</ele>
        <time>2014-01-25T12:38:45.133Z</time>
      </trkpt>
      <trkpt lat="47.49197" lon="6.76488">
        <ele>387</ele>
        <time>2014-01-25T12:38:55.139Z</time>
      </trkpt>
      <trkpt lat="47.49197" lon="6.76488">
        <ele>388</ele>
        <time>2014-01-25T12:39:00.066Z</time>
      </trkpt>
      <trkpt lat="47.49197" lon="6.76488">
        <ele>387</ele>
        <time>2014-01-25T12:39:05.089Z</time>
      </trkpt>
      <trkpt lat="47.49197" lon="6.76488">
        <ele>388</ele>
        <time>2014-01-25T12:39:10.056Z</time>
      </trkpt>
      <trkpt lat="47.49197" lon="6.76488">
        <ele>388</ele>
        <time>2014-01-25T12:39:15.123Z</time>
      </trkpt>
      <trkpt lat="47.49198" lon="6.76489">
        <ele>388</ele>
        <time>2014-01-25T12:39:20.051Z</time>
      </trkpt>
      <trkpt lat="47.49198" lon="6.76489">
        <ele>388</ele>
        <time>2014-01-25T12:39:25.129Z</time>
      </trkpt>
      <trkpt lat="47.49198" lon="6.76489">
        <ele>388</ele>
        <time>2014-01-25T12:39:30.061Z</time>
      </trkpt>
      <trkpt lat="47.49197" lon="6.76487">
        <ele>388</ele>
        <time>2014-01-25T12:39:35.136Z</time>
      </trkpt>
      <trkpt lat="47.49194" lon="6.76487">
        <ele>386</ele>
        <time>2014-01-25T12:39:40.030Z</time>
      </trkpt>
      <trkpt lat="47.49191" lon="6.76496">
        <ele>385</ele>
        <time>2014-01-25T12:39:45.114Z</time>
      </trkpt>
      <trkpt lat="47.49185" lon="6.76506">
        <ele>385</ele>
        <time>2014-01-25T12:39:50.065Z</time>
      </trkpt>
      <trkpt lat="47.49172" lon="6.76513">
        <ele>384</ele>
        <time>2014-01-25T12:39:55.132Z</time>
      </trkpt>
      <trkpt lat="47.49112" lon="6.76554">
        <ele>381</ele>
        <time>2014-01-25T12:40:10.507Z</time>
      </trkpt>
      <trkpt lat="47.49118" lon="6.76591">
        <ele>380</ele>
        <time>2014-01-25T12:40:15.136Z</time>
      </trkpt>
      <trkpt lat="47.49121" lon="6.7662">
        <ele>379</ele>
        <time>2014-01-25T12:40:20.057Z</time>
      </trkpt>
      <trkpt lat="47.49127" lon="6.76651">
        <ele>379</ele>
        <time>2014-01-25T12:40:25.105Z</time>
      </trkpt>
      <trkpt lat="47.49132" lon="6.76684">
        <ele>379</ele>
        <time>2014-01-25T12:40:30.029Z</time>
      </trkpt>
      <trkpt lat="47.49138" lon="6.7675">
        <ele>377</ele>
        <time>2014-01-25T12:40:40.062Z</time>
      </trkpt>
      <trkpt lat="47.4914" lon="6.76788">
        <ele>376</ele>
        <time>2014-01-25T12:40:45.102Z</time>
      </trkpt>
      <trkpt lat="47.49143" lon="6.76822">
        <ele>375</ele>
        <time>2014-01-25T12:40:50.059Z</time>
      </trkpt>
      <trkpt lat="47.49141" lon="6.76853">
        <ele>373</ele>
        <time>2014-01-25T12:40:55.136Z</time>
      </trkpt>
      <trkpt lat="47.4914" lon="6.76922">
        <ele>373</ele>
        <time>2014-01-25T12:41:05.134Z</time>
      </trkpt>
      <trkpt lat="47.4914" lon="6.76952">
        <ele>373</ele>
        <time>2014-01-25T12:41:10.037Z</time>
      </trkpt>
      <trkpt lat="47.49149" lon="6.7699">
        <ele>372</ele>
        <time>2014-01-25T12:41:15.133Z</time>
      </trkpt>
      <trkpt lat="47.49159" lon="6.77024">
        <ele>372</ele>
        <time>2014-01-25T12:41:20.056Z</time>
      </trkpt>
      <trkpt lat="47.49164" lon="6.77059">
        <ele>371</ele>
        <time>2014-01-25T12:41:25.124Z</time>
      </trkpt>
      <trkpt lat="47.49169" lon="6.77094">
        <ele>372</ele>
        <time>2014-01-25T12:41:30.038Z</time>
      </trkpt>
      <trkpt lat="47.49167" lon="6.77114">
        <ele>374</ele>
        <time>2014-01-25T12:41:35.083Z</time>
      </trkpt>
      <trkpt lat="47.49165" lon="6.77118">
        <ele>377</ele>
        <time>2014-01-25T12:41:40.052Z</time>
      </trkpt>
      <trkpt lat="47.49168" lon="6.7713">
        <ele>380</ele>
        <time>2014-01-25T12:41:45.086Z</time>
      </trkpt>
      <trkpt lat="47.49174" lon="6.77153">
        <ele>380</ele>
        <time>2014-01-25T12:41:50.058Z</time>
      </trkpt>
      <trkpt lat="47.49177" lon="6.77176">
        <ele>379</ele>
        <time>2014-01-25T12:41:55.124Z</time>
      </trkpt>
      <trkpt lat="47.49181" lon="6.77244">
        <ele>377</ele>
        <time>2014-01-25T12:42:10.049Z</time>
      </trkpt>
      <trkpt lat="47.49179" lon="6.77278">
        <ele>377</ele>
        <time>2014-01-25T12:42:15.133Z</time>
      </trkpt>
      <trkpt lat="47.49176" lon="6.77319">
        <ele>375</ele>
        <time>2014-01-25T12:42:20.060Z</time>
      </trkpt>
      <trkpt lat="47.49163" lon="6.77329">
        <ele>375</ele>
        <time>2014-01-25T12:42:25.134Z</time>
      </trkpt>
      <trkpt lat="47.49145" lon="6.77328">
        <ele>374</ele>
        <time>2014-01-25T12:42:30.068Z</time>
      </trkpt>
      <trkpt lat="47.49125" lon="6.77328">
        <ele>373</ele>
        <time>2014-01-25T12:42:35.133Z</time>
      </trkpt>
      <trkpt lat="47.49105" lon="6.77327">
        <ele>373</ele>
        <time>2014-01-25T12:42:40.063Z</time>
      </trkpt>
      <trkpt lat="47.49083" lon="6.77326">
        <ele>373</ele>
        <time>2014-01-25T12:42:45.135Z</time>
      </trkpt>
      <trkpt lat="47.49058" lon="6.77323">
        <ele>374</ele>
        <time>2014-01-25T12:42:50.061Z</time>
      </trkpt>
      <trkpt lat="47.49036" lon="6.77322">
        <ele>374</ele>
        <time>2014-01-25T12:42:55.131Z</time>
      </trkpt>
      <trkpt lat="47.48991" lon="6.77317">
        <ele>376</ele>
        <time>2014-01-25T12:43:05.135Z</time>
      </trkpt>
      <trkpt lat="47.48969" lon="6.77316">
        <ele>377</ele>
        <time>2014-01-25T12:43:10.059Z</time>
      </trkpt>
      <trkpt lat="47.48945" lon="6.77309">
        <ele>377</ele>
        <time>2014-01-25T12:43:15.132Z</time>
      </trkpt>
      <trkpt lat="47.4892" lon="6.773">
        <ele>376</ele>
        <time>2014-01-25T12:43:20.053Z</time>
      </trkpt>
      <trkpt lat="47.48896" lon="6.7729">
        <ele>376</ele>
        <time>2014-01-25T12:43:25.115Z</time>
      </trkpt>
      <trkpt lat="47.48871" lon="6.77283">
        <ele>375</ele>
        <time>2014-01-25T12:43:30.063Z</time>
      </trkpt>
      <trkpt lat="47.48848" lon="6.77272">
        <ele>375</ele>
        <time>2014-01-25T12:43:35.099Z</time>
      </trkpt>
      <trkpt lat="47.48827" lon="6.77257">
        <ele>375</ele>
        <time>2014-01-25T12:43:40.055Z</time>
      </trkpt>
      <trkpt lat="47.48803" lon="6.7724">
        <ele>374</ele>
        <time>2014-01-25T12:43:45.136Z</time>
      </trkpt>
      <trkpt lat="47.48779" lon="6.77223">
        <ele>373</ele>
        <time>2014-01-25T12:43:50.053Z</time>
      </trkpt>
      <trkpt lat="47.48755" lon="6.77205">
        <ele>373</ele>
        <time>2014-01-25T12:43:55.132Z</time>
      </trkpt>
      <trkpt lat="47.48733" lon="6.77188">
        <ele>373</ele>
        <time>2014-01-25T12:44:00.124Z</time>
      </trkpt>
      <trkpt lat="47.4871" lon="6.77171">
        <ele>373</ele>
        <time>2014-01-25T12:44:05.141Z</time>
      </trkpt>
      <trkpt lat="47.48688" lon="6.77151">
        <ele>373</ele>
        <time>2014-01-25T12:44:10.066Z</time>
      </trkpt>
      <trkpt lat="47.48669" lon="6.77131">
        <ele>372</ele>
        <time>2014-01-25T12:44:15.122Z</time>
      </trkpt>
      <trkpt lat="47.4865" lon="6.77109">
        <ele>372</ele>
        <time>2014-01-25T12:44:20.135Z</time>
      </trkpt>
      <trkpt lat="47.48632" lon="6.7709">
        <ele>371</ele>
        <time>2014-01-25T12:44:25.059Z</time>
      </trkpt>
      <trkpt lat="47.48614" lon="6.77078">
        <ele>371</ele>
        <time>2014-01-25T12:44:30.131Z</time>
      </trkpt>
      <trkpt lat="47.48596" lon="6.77063">
        <ele>373</ele>
        <time>2014-01-25T12:44:35.055Z</time>
      </trkpt>
      <trkpt lat="47.48572" lon="6.77049">
        <ele>374</ele>
        <time>2014-01-25T12:44:40.137Z</time>
      </trkpt>
      <trkpt lat="47.48549" lon="6.77039">
        <ele>375</ele>
        <time>2014-01-25T12:44:45.063Z</time>
      </trkpt>
      <trkpt lat="47.48521" lon="6.7702">
        <ele>375</ele>
        <time>2014-01-25T12:44:50.130Z</time>
      </trkpt>
      <trkpt lat="47.48493" lon="6.77002">
        <ele>373</ele>
        <time>2014-01-25T12:44:55.058Z</time>
      </trkpt>
      <trkpt lat="47.48413" lon="6.76953">
        <ele>372</ele>
        <time>2014-01-25T12:45:10.113Z</time>
      </trkpt>
      <trkpt lat="47.48385" lon="6.76939">
        <ele>372</ele>
        <time>2014-01-25T12:45:15.065Z</time>
      </trkpt>
      <trkpt lat="47.48359" lon="6.76923">
        <ele>372</ele>
        <time>2014-01-25T12:45:20.107Z</time>
      </trkpt>
      <trkpt lat="47.48333" lon="6.76906">
        <ele>372</ele>
        <time>2014-01-25T12:45:25.059Z</time>
      </trkpt>
      <trkpt lat="47.48307" lon="6.76886">
        <ele>371</ele>
        <time>2014-01-25T12:45:30.098Z</time>
      </trkpt>
      <trkpt lat="47.48284" lon="6.76864">
        <ele>371</ele>
        <time>2014-01-25T12:45:35.066Z</time>
      </trkpt>
      <trkpt lat="47.48265" lon="6.76835">
        <ele>372</ele>
        <time>2014-01-25T12:45:40.094Z</time>
      </trkpt>
      <trkpt lat="47.48245" lon="6.76808">
        <ele>372</ele>
        <time>2014-01-25T12:45:45.064Z</time>
      </trkpt>
      <trkpt lat="47.4822" lon="6.76792">
        <ele>372</ele>
        <time>2014-01-25T12:45:50.128Z</time>
      </trkpt>
      <trkpt lat="47.48192" lon="6.76778">
        <ele>372</ele>
        <time>2014-01-25T12:45:55.058Z</time>
      </trkpt>
      <trkpt lat="47.4815" lon="6.76722">
        <ele>373</ele>
        <time>2014-01-25T12:46:05.542Z</time>
      </trkpt>
      <trkpt lat="47.48134" lon="6.76687">
        <ele>374</ele>
        <time>2014-01-25T12:46:10.127Z</time>
      </trkpt>
      <trkpt lat="47.48116" lon="6.76657">
        <ele>374</ele>
        <time>2014-01-25T12:46:15.042Z</time>
      </trkpt>
      <trkpt lat="47.48101" lon="6.76627">
        <ele>375</ele>
        <time>2014-01-25T12:46:20.133Z</time>
      </trkpt>
      <trkpt lat="47.48099" lon="6.76591">
        <ele>374</ele>
        <time>2014-01-25T12:46:25.071Z</time>
      </trkpt>
      <trkpt lat="47.48113" lon="6.7657">
        <ele>375</ele>
        <time>2014-01-25T12:46:30.131Z</time>
      </trkpt>
      <trkpt lat="47.48122" lon="6.76545">
        <ele>378</ele>
        <time>2014-01-25T12:46:35.064Z</time>
      </trkpt>
      <trkpt lat="47.48118" lon="6.76519">
        <ele>379</ele>
        <time>2014-01-25T12:46:40.132Z</time>
      </trkpt>
      <trkpt lat="47.48094" lon="6.76525">
        <ele>378</ele>
        <time>2014-01-25T12:46:45.184Z</time>
      </trkpt>
      <trkpt lat="47.48075" lon="6.76541">
        <ele>378</ele>
        <time>2014-01-25T12:46:50.134Z</time>
      </trkpt>
      <trkpt lat="47.48055" lon="6.76557">
        <ele>378</ele>
        <time>2014-01-25T12:46:55.062Z</time>
      </trkpt>
      <trkpt lat="47.48014" lon="6.76588">
        <ele>377</ele>
        <time>2014-01-25T12:47:05.031Z</time>
      </trkpt>
      <trkpt lat="47.47993" lon="6.766">
        <ele>377</ele>
        <time>2014-01-25T12:47:10.135Z</time>
      </trkpt>
      <trkpt lat="47.47974" lon="6.76611">
        <ele>377</ele>
        <time>2014-01-25T12:47:15.070Z</time>
      </trkpt>
      <trkpt lat="47.47962" lon="6.76621">
        <ele>377</ele>
        <time>2014-01-25T12:47:20.136Z</time>
      </trkpt>
      <trkpt lat="47.47968" lon="6.76647">
        <ele>375</ele>
        <time>2014-01-25T12:47:25.136Z</time>
      </trkpt>
      <trkpt lat="47.47972" lon="6.76659">
        <ele>375</ele>
        <time>2014-01-25T12:47:30.062Z</time>
      </trkpt>
      <trkpt lat="47.47971" lon="6.76632">
        <ele>375</ele>
        <time>2014-01-25T12:47:35.136Z</time>
      </trkpt>
      <trkpt lat="47.47965" lon="6.76604">
        <ele>375</ele>
        <time>2014-01-25T12:47:40.060Z</time>
      </trkpt>
      <trkpt lat="47.47951" lon="6.76573">
        <ele>376</ele>
        <time>2014-01-25T12:47:45.134Z</time>
      </trkpt>
      <trkpt lat="47.4794" lon="6.76532">
        <ele>375</ele>
        <time>2014-01-25T12:47:50.064Z</time>
      </trkpt>
      <trkpt lat="47.4793" lon="6.76491">
        <ele>374</ele>
        <time>2014-01-25T12:47:55.134Z</time>
      </trkpt>
      <trkpt lat="47.47883" lon="6.76331">
        <ele>378</ele>
        <time>2014-01-25T12:48:20.057Z</time>
      </trkpt>
      <trkpt lat="47.47864" lon="6.76296">
        <ele>376</ele>
        <time>2014-01-25T12:48:25.134Z</time>
      </trkpt>
      <trkpt lat="47.47844" lon="6.76269">
        <ele>378</ele>
        <time>2014-01-25T12:48:30.064Z</time>
      </trkpt>
      <trkpt lat="47.47816" lon="6.76257">
        <ele>380</ele>
        <time>2014-01-25T12:48:35.136Z</time>
      </trkpt>
      <trkpt lat="47.47792" lon="6.76241">
        <ele>379</ele>
        <time>2014-01-25T12:48:40.061Z</time>
      </trkpt>
      <trkpt lat="47.47772" lon="6.76217">
        <ele>377</ele>
        <time>2014-01-25T12:48:45.135Z</time>
      </trkpt>
      <trkpt lat="47.47755" lon="6.76193">
        <ele>376</ele>
        <time>2014-01-25T12:48:50.066Z</time>
      </trkpt>
      <trkpt lat="47.47739" lon="6.76171">
        <ele>375</ele>
        <time>2014-01-25T12:48:55.135Z</time>
      </trkpt>
      <trkpt lat="47.47706" lon="6.76122">
        <ele>373</ele>
        <time>2014-01-25T12:49:06.104Z</time>
      </trkpt>
      <trkpt lat="47.47688" lon="6.76095">
        <ele>373</ele>
        <time>2014-01-25T12:49:10.058Z</time>
      </trkpt>
      <trkpt lat="47.47672" lon="6.76066">
        <ele>373</ele>
        <time>2014-01-25T12:49:15.118Z</time>
      </trkpt>
      <trkpt lat="47.47665" lon="6.76031">
        <ele>372</ele>
        <time>2014-01-25T12:49:20.058Z</time>
      </trkpt>
      <trkpt lat="47.47668" lon="6.75997">
        <ele>372</ele>
        <time>2014-01-25T12:49:25.110Z</time>
      </trkpt>
      <trkpt lat="47.47681" lon="6.75967">
        <ele>372</ele>
        <time>2014-01-25T12:49:30.066Z</time>
      </trkpt>
      <trkpt lat="47.47694" lon="6.75934">
        <ele>371</ele>
        <time>2014-01-25T12:49:35.138Z</time>
      </trkpt>
      <trkpt lat="47.47696" lon="6.75892">
        <ele>371</ele>
        <time>2014-01-25T12:49:40.059Z</time>
      </trkpt>
      <trkpt lat="47.47697" lon="6.7585">
        <ele>369</ele>
        <time>2014-01-25T12:49:45.136Z</time>
      </trkpt>
      <trkpt lat="47.47699" lon="6.75809">
        <ele>370</ele>
        <time>2014-01-25T12:49:50.066Z</time>
      </trkpt>
      <trkpt lat="47.47702" lon="6.75765">
        <ele>369</ele>
        <time>2014-01-25T12:49:55.109Z</time>
      </trkpt>
      <trkpt lat="47.47703" lon="6.75725">
        <ele>369</ele>
        <time>2014-01-25T12:50:02.637Z</time>
      </trkpt>
      <trkpt lat="47.47704" lon="6.7569">
        <ele>369</ele>
        <time>2014-01-25T12:50:05.137Z</time>
      </trkpt>
      <trkpt lat="47.47706" lon="6.75646">
        <ele>367</ele>
        <time>2014-01-25T12:50:10.075Z</time>
      </trkpt>
      <trkpt lat="47.47708" lon="6.756">
        <ele>367</ele>
        <time>2014-01-25T12:50:15.103Z</time>
      </trkpt>
      <trkpt lat="47.47709" lon="6.75558">
        <ele>367</ele>
        <time>2014-01-25T12:50:20.063Z</time>
      </trkpt>
      <trkpt lat="47.47709" lon="6.75513">
        <ele>367</ele>
        <time>2014-01-25T12:50:25.135Z</time>
      </trkpt>
      <trkpt lat="47.47713" lon="6.75469">
        <ele>367</ele>
        <time>2014-01-25T12:50:30.064Z</time>
      </trkpt>
      <trkpt lat="47.47715" lon="6.75424">
        <ele>367</ele>
        <time>2014-01-25T12:50:35.136Z</time>
      </trkpt>
      <trkpt lat="47.47715" lon="6.7538">
        <ele>367</ele>
        <time>2014-01-25T12:50:40.059Z</time>
      </trkpt>
      <trkpt lat="47.47714" lon="6.7534">
        <ele>367</ele>
        <time>2014-01-25T12:50:45.136Z</time>
      </trkpt>
      <trkpt lat="47.47717" lon="6.75299">
        <ele>366</ele>
        <time>2014-01-25T12:50:50.058Z</time>
      </trkpt>
      <trkpt lat="47.47718" lon="6.75257">
        <ele>366</ele>
        <time>2014-01-25T12:50:55.135Z</time>
      </trkpt>
      <trkpt lat="47.47719" lon="6.75216">
        <ele>366</ele>
        <time>2014-01-25T12:51:00.462Z</time>
      </trkpt>
      <trkpt lat="47.47719" lon="6.75171">
        <ele>366</ele>
        <time>2014-01-25T12:51:05.135Z</time>
      </trkpt>
      <trkpt lat="47.47721" lon="6.75125">
        <ele>366</ele>
        <time>2014-01-25T12:51:10.059Z</time>
      </trkpt>
      <trkpt lat="47.47721" lon="6.75081">
        <ele>365</ele>
        <time>2014-01-25T12:51:15.138Z</time>
      </trkpt>
      <trkpt lat="47.47722" lon="6.75036">
        <ele>365</ele>
        <time>2014-01-25T12:51:20.046Z</time>
      </trkpt>
      <trkpt lat="47.47725" lon="6.74991">
        <ele>366</ele>
        <time>2014-01-25T12:51:25.150Z</time>
      </trkpt>
      <trkpt lat="47.47726" lon="6.74905">
        <ele>365</ele>
        <time>2014-01-25T12:51:35.136Z</time>
      </trkpt>
      <trkpt lat="47.47726" lon="6.7486">
        <ele>367</ele>
        <time>2014-01-25T12:51:40.055Z</time>
      </trkpt>
      <trkpt lat="47.47726" lon="6.74818">
        <ele>367</ele>
        <time>2014-01-25T12:51:45.133Z</time>
      </trkpt>
      <trkpt lat="47.47726" lon="6.74775">
        <ele>367</ele>
        <time>2014-01-25T12:51:50.060Z</time>
      </trkpt>
      <trkpt lat="47.47729" lon="6.74734">
        <ele>368</ele>
        <time>2014-01-25T12:51:55.135Z</time>
      </trkpt>
      <trkpt lat="47.47729" lon="6.74649">
        <ele>369</ele>
        <time>2014-01-25T12:52:05.135Z</time>
      </trkpt>
      <trkpt lat="47.47728" lon="6.74608">
        <ele>369</ele>
        <time>2014-01-25T12:52:10.062Z</time>
      </trkpt>
      <trkpt lat="47.47728" lon="6.74567">
        <ele>368</ele>
        <time>2014-01-25T12:52:15.135Z</time>
      </trkpt>
      <trkpt lat="47.47727" lon="6.74531">
        <ele>368</ele>
        <time>2014-01-25T12:52:20.056Z</time>
      </trkpt>
      <trkpt lat="47.47733" lon="6.74502">
        <ele>369</ele>
        <time>2014-01-25T12:52:25.131Z</time>
      </trkpt>
      <trkpt lat="47.47725" lon="6.74466">
        <ele>368</ele>
        <time>2014-01-25T12:52:30.061Z</time>
      </trkpt>
      <trkpt lat="47.47722" lon="6.74425">
        <ele>368</ele>
        <time>2014-01-25T12:52:35.138Z</time>
      </trkpt>
      <trkpt lat="47.47716" lon="6.74382">
        <ele>368</ele>
        <time>2014-01-25T12:52:40.058Z</time>
      </trkpt>
      <trkpt lat="47.47711" lon="6.7434">
        <ele>369</ele>
        <time>2014-01-25T12:52:45.142Z</time>
      </trkpt>
      <trkpt lat="47.47707" lon="6.74301">
        <ele>369</ele>
        <time>2014-01-25T12:52:50.070Z</time>
      </trkpt>
      <trkpt lat="47.477" lon="6.74259">
        <ele>369</ele>
        <time>2014-01-25T12:52:55.118Z</time>
      </trkpt>
      <trkpt lat="47.47693" lon="6.74216">
        <ele>368</ele>
        <time>2014-01-25T12:53:00.823Z</time>
      </trkpt>
      <trkpt lat="47.47684" lon="6.74175">
        <ele>368</ele>
        <time>2014-01-25T12:53:05.058Z</time>
      </trkpt>
      <trkpt lat="47.47677" lon="6.74138">
        <ele>367</ele>
        <time>2014-01-25T12:53:10.136Z</time>
      </trkpt>
      <trkpt lat="47.47668" lon="6.74113">
        <ele>368</ele>
        <time>2014-01-25T12:53:15.061Z</time>
      </trkpt>
      <trkpt lat="47.4766" lon="6.74099">
        <ele>368</ele>
        <time>2014-01-25T12:53:20.139Z</time>
      </trkpt>
      <trkpt lat="47.47653" lon="6.74072">
        <ele>367</ele>
        <time>2014-01-25T12:53:25.067Z</time>
      </trkpt>
      <trkpt lat="47.47647" lon="6.74051">
        <ele>367</ele>
        <time>2014-01-25T12:53:30.137Z</time>
      </trkpt>
      <trkpt lat="47.47624" lon="6.74038">
        <ele>368</ele>
        <time>2014-01-25T12:53:35.060Z</time>
      </trkpt>
      <trkpt lat="47.47596" lon="6.74059">
        <ele>369</ele>
        <time>2014-01-25T12:53:40.140Z</time>
      </trkpt>
      <trkpt lat="47.47568" lon="6.74082">
        <ele>369</ele>
        <time>2014-01-25T12:53:45.154Z</time>
      </trkpt>
      <trkpt lat="47.47543" lon="6.74103">
        <ele>370</ele>
        <time>2014-01-25T12:53:50.135Z</time>
      </trkpt>
      <trkpt lat="47.47517" lon="6.74122">
        <ele>370</ele>
        <time>2014-01-25T12:53:55.138Z</time>
      </trkpt>
      <trkpt lat="47.47493" lon="6.74143">
        <ele>370</ele>
        <time>2014-01-25T12:54:00.940Z</time>
      </trkpt>
      <trkpt lat="47.47473" lon="6.74159">
        <ele>373</ele>
        <time>2014-01-25T12:54:05.135Z</time>
      </trkpt>
      <trkpt lat="47.47453" lon="6.7417">
        <ele>373</ele>
        <time>2014-01-25T12:54:10.066Z</time>
      </trkpt>
      <trkpt lat="47.47424" lon="6.74182">
        <ele>372</ele>
        <time>2014-01-25T12:54:15.139Z</time>
      </trkpt>
      <trkpt lat="47.474" lon="6.74194">
        <ele>372</ele>
        <time>2014-01-25T12:54:20.066Z</time>
      </trkpt>
      <trkpt lat="47.47376" lon="6.74205">
        <ele>372</ele>
        <time>2014-01-25T12:54:25.108Z</time>
      </trkpt>
      <trkpt lat="47.47352" lon="6.74217">
        <ele>371</ele>
        <time>2014-01-25T12:54:30.064Z</time>
      </trkpt>
      <trkpt lat="47.4733" lon="6.74231">
        <ele>372</ele>
        <time>2014-01-25T12:54:35.136Z</time>
      </trkpt>
      <trkpt lat="47.47306" lon="6.74244">
        <ele>372</ele>
        <time>2014-01-25T12:54:40.059Z</time>
      </trkpt>
      <trkpt lat="47.47282" lon="6.74251">
        <ele>373</ele>
        <time>2014-01-25T12:54:45.137Z</time>
      </trkpt>
      <trkpt lat="47.47258" lon="6.74257">
        <ele>374</ele>
        <time>2014-01-25T12:54:50.057Z</time>
      </trkpt>
      <trkpt lat="47.47247" lon="6.74288">
        <ele>373</ele>
        <time>2014-01-25T12:54:55.135Z</time>
      </trkpt>
      <trkpt lat="47.47245" lon="6.74321">
        <ele>374</ele>
        <time>2014-01-25T12:55:00.393Z</time>
      </trkpt>
      <trkpt lat="47.47232" lon="6.74343">
        <ele>374</ele>
        <time>2014-01-25T12:55:05.095Z</time>
      </trkpt>
      <trkpt lat="47.47219" lon="6.74351">
        <ele>376</ele>
        <time>2014-01-25T12:55:10.049Z</time>
      </trkpt>
      <trkpt lat="47.4721" lon="6.74353">
        <ele>376</ele>
        <time>2014-01-25T12:55:15.133Z</time>
      </trkpt>
      <trkpt lat="47.47201" lon="6.74356">
        <ele>375</ele>
        <time>2014-01-25T12:55:20.051Z</time>
      </trkpt>
      <trkpt lat="47.47189" lon="6.74357">
        <ele>375</ele>
        <time>2014-01-25T12:55:25.135Z</time>
      </trkpt>
      <trkpt lat="47.47176" lon="6.74359">
        <ele>375</ele>
        <time>2014-01-25T12:55:30.053Z</time>
      </trkpt>
      <trkpt lat="47.47164" lon="6.74359">
        <ele>376</ele>
        <time>2014-01-25T12:55:35.131Z</time>
      </trkpt>
      <trkpt lat="47.47152" lon="6.7436">
        <ele>377</ele>
        <time>2014-01-25T12:55:40.026Z</time>
      </trkpt>
      <trkpt lat="47.47141" lon="6.74362">
        <ele>378</ele>
        <time>2014-01-25T12:55:45.134Z</time>
      </trkpt>
      <trkpt lat="47.47132" lon="6.74364">
        <ele>379</ele>
        <time>2014-01-25T12:55:50.057Z</time>
      </trkpt>
      <trkpt lat="47.47123" lon="6.74365">
        <ele>382</ele>
        <time>2014-01-25T12:55:55.137Z</time>
      </trkpt>
      <trkpt lat="47.47095" lon="6.74377">
        <ele>383</ele>
        <time>2014-01-25T12:56:10.788Z</time>
      </trkpt>
      <trkpt lat="47.4708" lon="6.74383">
        <ele>386</ele>
        <time>2014-01-25T12:56:20.064Z</time>
      </trkpt>
      <trkpt lat="47.4707" lon="6.74387">
        <ele>387</ele>
        <time>2014-01-25T12:56:25.141Z</time>
      </trkpt>
      <trkpt lat="47.47061" lon="6.74389">
        <ele>388</ele>
        <time>2014-01-25T12:56:30.062Z</time>
      </trkpt>
      <trkpt lat="47.47053" lon="6.74394">
        <ele>389</ele>
        <time>2014-01-25T12:56:35.099Z</time>
      </trkpt>
      <trkpt lat="47.47053" lon="6.74394">
        <ele>389</ele>
        <time>2014-01-25T12:56:35.099Z</time>
      </trkpt>
      <trkpt lat="47.47037" lon="6.74403">
        <ele>391</ele>
        <time>2014-01-25T12:56:45.137Z</time>
      </trkpt>
      <trkpt lat="47.47031" lon="6.7441">
        <ele>392</ele>
        <time>2014-01-25T12:56:50.058Z</time>
      </trkpt>
      <trkpt lat="47.47025" lon="6.74418">
        <ele>394</ele>
        <time>2014-01-25T12:56:55.110Z</time>
      </trkpt>
      <trkpt lat="47.47011" lon="6.74431">
        <ele>396</ele>
        <time>2014-01-25T12:57:05.092Z</time>
      </trkpt>
      <trkpt lat="47.47005" lon="6.74439">
        <ele>396</ele>
        <time>2014-01-25T12:57:10.059Z</time>
      </trkpt>
      <trkpt lat="47.47003" lon="6.74445">
        <ele>399</ele>
        <time>2014-01-25T12:57:15.136Z</time>
      </trkpt>
      <trkpt lat="47.47" lon="6.74457">
        <ele>402</ele>
        <time>2014-01-25T12:57:20.063Z</time>
      </trkpt>
      <trkpt lat="47.46995" lon="6.74465">
        <ele>404</ele>
        <time>2014-01-25T12:57:25.139Z</time>
      </trkpt>
      <trkpt lat="47.46993" lon="6.74473">
        <ele>408</ele>
        <time>2014-01-25T12:57:30.062Z</time>
      </trkpt>
      <trkpt lat="47.46987" lon="6.74478">
        <ele>410</ele>
        <time>2014-01-25T12:57:35.132Z</time>
      </trkpt>
      <trkpt lat="47.46977" lon="6.74484">
        <ele>412</ele>
        <time>2014-01-25T12:57:40.063Z</time>
      </trkpt>
      <trkpt lat="47.46969" lon="6.74487">
        <ele>413</ele>
        <time>2014-01-25T12:57:45.135Z</time>
      </trkpt>
      <trkpt lat="47.46961" lon="6.74492">
        <ele>413</ele>
        <time>2014-01-25T12:57:50.067Z</time>
      </trkpt>
      <trkpt lat="47.46954" lon="6.74496">
        <ele>411</ele>
        <time>2014-01-25T12:57:55.140Z</time>
      </trkpt>
      <trkpt lat="47.46935" lon="6.74512">
        <ele>414</ele>
        <time>2014-01-25T12:58:05.116Z</time>
      </trkpt>
      <trkpt lat="47.46925" lon="6.74516">
        <ele>415</ele>
        <time>2014-01-25T12:58:10.059Z</time>
      </trkpt>
      <trkpt lat="47.46922" lon="6.74513">
        <ele>413</ele>
        <time>2014-01-25T12:58:15.121Z</time>
      </trkpt>
      <trkpt lat="47.4692" lon="6.74505">
        <ele>414</ele>
        <time>2014-01-25T12:58:20.073Z</time>
      </trkpt>
      <trkpt lat="47.46918" lon="6.74496">
        <ele>413</ele>
        <time>2014-01-25T12:58:25.135Z</time>
      </trkpt>
      <trkpt lat="47.46916" lon="6.74488">
        <ele>413</ele>
        <time>2014-01-25T12:58:30.066Z</time>
      </trkpt>
      <trkpt lat="47.46913" lon="6.74479">
        <ele>413</ele>
        <time>2014-01-25T12:58:35.135Z</time>
      </trkpt>
      <trkpt lat="47.4691" lon="6.7447">
        <ele>412</ele>
        <time>2014-01-25T12:58:40.059Z</time>
      </trkpt>
      <trkpt lat="47.46907" lon="6.74459">
        <ele>412</ele>
        <time>2014-01-25T12:58:45.136Z</time>
      </trkpt>
      <trkpt lat="47.46905" lon="6.74448">
        <ele>412</ele>
        <time>2014-01-25T12:58:50.059Z</time>
      </trkpt>
      <trkpt lat="47.46902" lon="6.74436">
        <ele>413</ele>
        <time>2014-01-25T12:58:55.113Z</time>
      </trkpt>
      <trkpt lat="47.46898" lon="6.74424">
        <ele>414</ele>
        <time>2014-01-25T12:59:00.501Z</time>
      </trkpt>
      <trkpt lat="47.46896" lon="6.74413">
        <ele>415</ele>
        <time>2014-01-25T12:59:05.136Z</time>
      </trkpt>
      <trkpt lat="47.46893" lon="6.74401">
        <ele>416</ele>
        <time>2014-01-25T12:59:10.062Z</time>
      </trkpt>
      <trkpt lat="47.46892" lon="6.74391">
        <ele>418</ele>
        <time>2014-01-25T12:59:15.115Z</time>
      </trkpt>
      <trkpt lat="47.46891" lon="6.74384">
        <ele>419</ele>
        <time>2014-01-25T12:59:20.061Z</time>
      </trkpt>
      <trkpt lat="47.4689" lon="6.74376">
        <ele>420</ele>
        <time>2014-01-25T12:59:25.136Z</time>
      </trkpt>
      <trkpt lat="47.4689" lon="6.74367">
        <ele>421</ele>
        <time>2014-01-25T12:59:30.068Z</time>
      </trkpt>
      <trkpt lat="47.46892" lon="6.74357">
        <ele>421</ele>
        <time>2014-01-25T12:59:35.140Z</time>
      </trkpt>
      <trkpt lat="47.46893" lon="6.74346">
        <ele>422</ele>
        <time>2014-01-25T12:59:40.065Z</time>
      </trkpt>
      <trkpt lat="47.46894" lon="6.74336">
        <ele>425</ele>
        <time>2014-01-25T12:59:45.102Z</time>
      </trkpt>
      <trkpt lat="47.46897" lon="6.74326">
        <ele>427</ele>
        <time>2014-01-25T12:59:50.069Z</time>
      </trkpt>
      <trkpt lat="47.469" lon="6.74314">
        <ele>426</ele>
        <time>2014-01-25T12:59:55.137Z</time>
      </trkpt>
      <trkpt lat="47.46903" lon="6.74302">
        <ele>427</ele>
        <time>2014-01-25T13:00:01.041Z</time>
      </trkpt>
      <trkpt lat="47.46904" lon="6.74295">
        <ele>430</ele>
        <time>2014-01-25T13:00:05.141Z</time>
      </trkpt>
      <trkpt lat="47.46906" lon="6.74285">
        <ele>431</ele>
        <time>2014-01-25T13:00:10.062Z</time>
      </trkpt>
      <trkpt lat="47.46908" lon="6.74274">
        <ele>432</ele>
        <time>2014-01-25T13:00:15.102Z</time>
      </trkpt>
      <trkpt lat="47.46907" lon="6.7426">
        <ele>432</ele>
        <time>2014-01-25T13:00:20.031Z</time>
      </trkpt>
      <trkpt lat="47.46908" lon="6.74247">
        <ele>433</ele>
        <time>2014-01-25T13:00:25.142Z</time>
      </trkpt>
      <trkpt lat="47.46904" lon="6.74238">
        <ele>435</ele>
        <time>2014-01-25T13:00:30.064Z</time>
      </trkpt>
      <trkpt lat="47.46905" lon="6.74216">
        <ele>438</ele>
        <time>2014-01-25T13:00:40.058Z</time>
      </trkpt>
      <trkpt lat="47.46906" lon="6.74206">
        <ele>438</ele>
        <time>2014-01-25T13:00:45.141Z</time>
      </trkpt>
      <trkpt lat="47.46908" lon="6.74197">
        <ele>440</ele>
        <time>2014-01-25T13:00:50.060Z</time>
      </trkpt>
      <trkpt lat="47.46908" lon="6.74186">
        <ele>443</ele>
        <time>2014-01-25T13:00:55.141Z</time>
      </trkpt>
      <trkpt lat="47.46908" lon="6.74186">
        <ele>443</ele>
        <time>2014-01-25T13:00:55.141Z</time>
      </trkpt>
      <trkpt lat="47.4691" lon="6.74163">
        <ele>445</ele>
        <time>2014-01-25T13:01:05.133Z</time>
      </trkpt>
      <trkpt lat="47.46911" lon="6.74151">
        <ele>445</ele>
        <time>2014-01-25T13:01:10.059Z</time>
      </trkpt>
      <trkpt lat="47.46907" lon="6.7414">
        <ele>445</ele>
        <time>2014-01-25T13:01:15.136Z</time>
      </trkpt>
      <trkpt lat="47.46907" lon="6.74128">
        <ele>445</ele>
        <time>2014-01-25T13:01:20.060Z</time>
      </trkpt>
      <trkpt lat="47.4691" lon="6.74115">
        <ele>447</ele>
        <time>2014-01-25T13:01:25.138Z</time>
      </trkpt>
      <trkpt lat="47.46908" lon="6.74105">
        <ele>449</ele>
        <time>2014-01-25T13:01:30.069Z</time>
      </trkpt>
      <trkpt lat="47.46905" lon="6.74096">
        <ele>451</ele>
        <time>2014-01-25T13:01:35.476Z</time>
      </trkpt>
      <trkpt lat="47.46903" lon="6.74084">
        <ele>452</ele>
        <time>2014-01-25T13:01:40.064Z</time>
      </trkpt>
      <trkpt lat="47.46901" lon="6.74074">
        <ele>454</ele>
        <time>2014-01-25T13:01:45.138Z</time>
      </trkpt>
      <trkpt lat="47.469" lon="6.74063">
        <ele>453</ele>
        <time>2014-01-25T13:01:50.050Z</time>
      </trkpt>
      <trkpt lat="47.46897" lon="6.74053">
        <ele>454</ele>
        <time>2014-01-25T13:01:55.137Z</time>
      </trkpt>
      <trkpt lat="47.46895" lon="6.7404">
        <ele>452</ele>
        <time>2014-01-25T13:02:00.947Z</time>
      </trkpt>
      <trkpt lat="47.46894" lon="6.74029">
        <ele>452</ele>
        <time>2014-01-25T13:02:05.065Z</time>
      </trkpt>
      <trkpt lat="47.46891" lon="6.74022">
        <ele>454</ele>
        <time>2014-01-25T13:02:10.145Z</time>
      </trkpt>
      <trkpt lat="47.46888" lon="6.74012">
        <ele>454</ele>
        <time>2014-01-25T13:02:15.057Z</time>
      </trkpt>
      <trkpt lat="47.46885" lon="6.74">
        <ele>454</ele>
        <time>2014-01-25T13:02:20.114Z</time>
      </trkpt>
      <trkpt lat="47.46881" lon="6.73987">
        <ele>453</ele>
        <time>2014-01-25T13:02:25.058Z</time>
      </trkpt>
      <trkpt lat="47.4688" lon="6.73974">
        <ele>453</ele>
        <time>2014-01-25T13:02:30.139Z</time>
      </trkpt>
      <trkpt lat="47.46877" lon="6.73963">
        <ele>455</ele>
        <time>2014-01-25T13:02:35.061Z</time>
      </trkpt>
      <trkpt lat="47.46873" lon="6.73954">
        <ele>457</ele>
        <time>2014-01-25T13:02:40.140Z</time>
      </trkpt>
      <trkpt lat="47.4687" lon="6.73946">
        <ele>459</ele>
        <time>2014-01-25T13:02:45.068Z</time>
      </trkpt>
      <trkpt lat="47.46865" lon="6.73934">
        <ele>461</ele>
        <time>2014-01-25T13:02:50.043Z</time>
      </trkpt>
      <trkpt lat="47.46861" lon="6.73923">
        <ele>463</ele>
        <time>2014-01-25T13:02:55.140Z</time>
      </trkpt>
      <trkpt lat="47.46858" lon="6.73913">
        <ele>463</ele>
        <time>2014-01-25T13:03:00.483Z</time>
      </trkpt>
      <trkpt lat="47.46855" lon="6.73903">
        <ele>463</ele>
        <time>2014-01-25T13:03:05.066Z</time>
      </trkpt>
      <trkpt lat="47.46851" lon="6.73891">
        <ele>463</ele>
        <time>2014-01-25T13:03:10.140Z</time>
      </trkpt>
      <trkpt lat="47.46849" lon="6.73879">
        <ele>463</ele>
        <time>2014-01-25T13:03:15.069Z</time>
      </trkpt>
      <trkpt lat="47.46848" lon="6.73874">
        <ele>464</ele>
        <time>2014-01-25T13:03:20.141Z</time>
      </trkpt>
      <trkpt lat="47.46848" lon="6.73874">
        <ele>464</ele>
        <time>2014-01-25T13:03:25.066Z</time>
      </trkpt>
      <trkpt lat="47.46849" lon="6.73873">
        <ele>462</ele>
        <time>2014-01-25T13:03:30.135Z</time>
      </trkpt>
      <trkpt lat="47.4685" lon="6.73873">
        <ele>461</ele>
        <time>2014-01-25T13:03:35.066Z</time>
      </trkpt>
      <trkpt lat="47.46849" lon="6.73873">
        <ele>461</ele>
        <time>2014-01-25T13:03:40.122Z</time>
      </trkpt>
      <trkpt lat="47.46851" lon="6.73874">
        <ele>460</ele>
        <time>2014-01-25T13:03:45.062Z</time>
      </trkpt>
      <trkpt lat="47.46851" lon="6.73871">
        <ele>460</ele>
        <time>2014-01-25T13:03:50.140Z</time>
      </trkpt>
      <trkpt lat="47.4685" lon="6.73869">
        <ele>459</ele>
        <time>2014-01-25T13:03:55.062Z</time>
      </trkpt>
      <trkpt lat="47.46852" lon="6.73869">
        <ele>457</ele>
        <time>2014-01-25T13:04:00.991Z</time>
      </trkpt>
      <trkpt lat="47.46851" lon="6.73873">
        <ele>455</ele>
        <time>2014-01-25T13:04:05.203Z</time>
      </trkpt>
      <trkpt lat="47.46852" lon="6.73874">
        <ele>454</ele>
        <time>2014-01-25T13:04:10.135Z</time>
      </trkpt>
      <trkpt lat="47.46849" lon="6.73874">
        <ele>452</ele>
        <time>2014-01-25T13:04:15.060Z</time>
      </trkpt>
      <trkpt lat="47.46847" lon="6.73878">
        <ele>451</ele>
        <time>2014-01-25T13:04:20.122Z</time>
      </trkpt>
      <trkpt lat="47.46847" lon="6.73875">
        <ele>453</ele>
        <time>2014-01-25T13:04:25.061Z</time>
      </trkpt>
      <trkpt lat="47.46848" lon="6.73874">
        <ele>452</ele>
        <time>2014-01-25T13:04:30.137Z</time>
      </trkpt>
      <trkpt lat="47.46848" lon="6.73874">
        <ele>452</ele>
        <time>2014-01-25T13:04:35.072Z</time>
      </trkpt>
      <trkpt lat="47.46848" lon="6.73874">
        <ele>452</ele>
        <time>2014-01-25T13:04:40.139Z</time>
      </trkpt>
      <trkpt lat="47.46848" lon="6.73872">
        <ele>452</ele>
        <time>2014-01-25T13:04:45.071Z</time>
      </trkpt>
      <trkpt lat="47.46844" lon="6.73873">
        <ele>453</ele>
        <time>2014-01-25T13:04:50.143Z</time>
      </trkpt>
      <trkpt lat="47.46844" lon="6.73872">
        <ele>453</ele>
        <time>2014-01-25T13:04:55.062Z</time>
      </trkpt>
      <trkpt lat="47.46846" lon="6.73871">
        <ele>455</ele>
        <time>2014-01-25T13:05:15.165Z</time>
      </trkpt>
      <trkpt lat="47.46847" lon="6.73872">
        <ele>455</ele>
        <time>2014-01-25T13:05:20.073Z</time>
      </trkpt>
      <trkpt lat="47.46847" lon="6.73871">
        <ele>456</ele>
        <time>2014-01-25T13:05:25.136Z</time>
      </trkpt>
      <trkpt lat="47.46849" lon="6.7387">
        <ele>456</ele>
        <time>2014-01-25T13:05:30.066Z</time>
      </trkpt>
      <trkpt lat="47.46851" lon="6.73868">
        <ele>456</ele>
        <time>2014-01-25T13:05:35.116Z</time>
      </trkpt>
      <trkpt lat="47.46853" lon="6.73869">
        <ele>455</ele>
        <time>2014-01-25T13:05:40.065Z</time>
      </trkpt>
      <trkpt lat="47.46853" lon="6.73869">
        <ele>456</ele>
        <time>2014-01-25T13:05:45.137Z</time>
      </trkpt>
      <trkpt lat="47.46848" lon="6.73859">
        <ele>457</ele>
        <time>2014-01-25T13:05:50.061Z</time>
      </trkpt>
      <trkpt lat="47.46844" lon="6.73846">
        <ele>457</ele>
        <time>2014-01-25T13:05:55.096Z</time>
      </trkpt>
      <trkpt lat="47.46813" lon="6.73781">
        <ele>460</ele>
        <time>2014-01-25T13:06:10.070Z</time>
      </trkpt>
      <trkpt lat="47.4678" lon="6.73777">
        <ele>462</ele>
        <time>2014-01-25T13:06:15.101Z</time>
      </trkpt>
      <trkpt lat="47.46746" lon="6.73783">
        <ele>461</ele>
        <time>2014-01-25T13:06:20.073Z</time>
      </trkpt>
      <trkpt lat="47.46721" lon="6.73795">
        <ele>462</ele>
        <time>2014-01-25T13:06:25.133Z</time>
      </trkpt>
      <trkpt lat="47.46705" lon="6.73816">
        <ele>461</ele>
        <time>2014-01-25T13:06:30.063Z</time>
      </trkpt>
      <trkpt lat="47.46691" lon="6.73839">
        <ele>461</ele>
        <time>2014-01-25T13:06:35.096Z</time>
      </trkpt>
      <trkpt lat="47.46677" lon="6.73845">
        <ele>459</ele>
        <time>2014-01-25T13:06:40.059Z</time>
      </trkpt>
      <trkpt lat="47.46672" lon="6.73837">
        <ele>459</ele>
        <time>2014-01-25T13:06:45.097Z</time>
      </trkpt>
      <trkpt lat="47.46671" lon="6.73829">
        <ele>459</ele>
        <time>2014-01-25T13:06:50.060Z</time>
      </trkpt>
      <trkpt lat="47.46672" lon="6.73815">
        <ele>458</ele>
        <time>2014-01-25T13:06:55.110Z</time>
      </trkpt>
      <trkpt lat="47.46647" lon="6.73763">
        <ele>456</ele>
        <time>2014-01-25T13:07:15.131Z</time>
      </trkpt>
      <trkpt lat="47.46635" lon="6.73752">
        <ele>457</ele>
        <time>2014-01-25T13:07:20.050Z</time>
      </trkpt>
      <trkpt lat="47.46622" lon="6.73743">
        <ele>457</ele>
        <time>2014-01-25T13:07:25.122Z</time>
      </trkpt>
      <trkpt lat="47.46614" lon="6.73738">
        <ele>458</ele>
        <time>2014-01-25T13:07:30.067Z</time>
      </trkpt>
      <trkpt lat="47.46603" lon="6.73734">
        <ele>458</ele>
        <time>2014-01-25T13:07:35.139Z</time>
      </trkpt>
      <trkpt lat="47.46591" lon="6.7373">
        <ele>459</ele>
        <time>2014-01-25T13:07:40.057Z</time>
      </trkpt>
      <trkpt lat="47.46581" lon="6.73725">
        <ele>460</ele>
        <time>2014-01-25T13:07:45.145Z</time>
      </trkpt>
      <trkpt lat="47.46571" lon="6.73721">
        <ele>461</ele>
        <time>2014-01-25T13:07:50.063Z</time>
      </trkpt>
      <trkpt lat="47.4656" lon="6.73716">
        <ele>460</ele>
        <time>2014-01-25T13:07:55.138Z</time>
      </trkpt>
      <trkpt lat="47.46543" lon="6.7371">
        <ele>460</ele>
        <time>2014-01-25T13:08:01.792Z</time>
      </trkpt>
      <trkpt lat="47.46526" lon="6.73706">
        <ele>460</ele>
        <time>2014-01-25T13:08:05.121Z</time>
      </trkpt>
      <trkpt lat="47.46515" lon="6.73705">
        <ele>461</ele>
        <time>2014-01-25T13:08:10.049Z</time>
      </trkpt>
      <trkpt lat="47.46502" lon="6.73702">
        <ele>461</ele>
        <time>2014-01-25T13:08:15.117Z</time>
      </trkpt>
      <trkpt lat="47.46491" lon="6.73702">
        <ele>462</ele>
        <time>2014-01-25T13:08:20.062Z</time>
      </trkpt>
      <trkpt lat="47.46481" lon="6.73705">
        <ele>463</ele>
        <time>2014-01-25T13:08:25.141Z</time>
      </trkpt>
      <trkpt lat="47.46476" lon="6.73709">
        <ele>465</ele>
        <time>2014-01-25T13:08:30.070Z</time>
      </trkpt>
      <trkpt lat="47.4647" lon="6.73713">
        <ele>466</ele>
        <time>2014-01-25T13:08:35.137Z</time>
      </trkpt>
      <trkpt lat="47.46465" lon="6.73718">
        <ele>467</ele>
        <time>2014-01-25T13:08:40.075Z</time>
      </trkpt>
      <trkpt lat="47.4646" lon="6.73725">
        <ele>468</ele>
        <time>2014-01-25T13:08:45.119Z</time>
      </trkpt>
      <trkpt lat="47.46455" lon="6.7373">
        <ele>469</ele>
        <time>2014-01-25T13:08:50.142Z</time>
      </trkpt>
      <trkpt lat="47.4644" lon="6.73737">
        <ele>470</ele>
        <time>2014-01-25T13:09:05.064Z</time>
      </trkpt>
      <trkpt lat="47.46434" lon="6.73738">
        <ele>470</ele>
        <time>2014-01-25T13:09:10.104Z</time>
      </trkpt>
      <trkpt lat="47.46427" lon="6.73734">
        <ele>470</ele>
        <time>2014-01-25T13:09:15.087Z</time>
      </trkpt>
      <trkpt lat="47.4642" lon="6.73734">
        <ele>470</ele>
        <time>2014-01-25T13:09:20.049Z</time>
      </trkpt>
      <trkpt lat="47.46413" lon="6.73734">
        <ele>470</ele>
        <time>2014-01-25T13:09:25.103Z</time>
      </trkpt>
      <trkpt lat="47.46406" lon="6.73733">
        <ele>470</ele>
        <time>2014-01-25T13:09:30.074Z</time>
      </trkpt>
      <trkpt lat="47.46399" lon="6.73733">
        <ele>470</ele>
        <time>2014-01-25T13:09:35.139Z</time>
      </trkpt>
      <trkpt lat="47.46393" lon="6.73733">
        <ele>471</ele>
        <time>2014-01-25T13:09:40.061Z</time>
      </trkpt>
      <trkpt lat="47.46386" lon="6.73733">
        <ele>472</ele>
        <time>2014-01-25T13:09:45.140Z</time>
      </trkpt>
      <trkpt lat="47.46379" lon="6.73732">
        <ele>473</ele>
        <time>2014-01-25T13:09:50.141Z</time>
      </trkpt>
      <trkpt lat="47.46372" lon="6.73729">
        <ele>474</ele>
        <time>2014-01-25T13:09:55.067Z</time>
      </trkpt>
      <trkpt lat="47.46363" lon="6.73726">
        <ele>474</ele>
        <time>2014-01-25T13:10:00.157Z</time>
      </trkpt>
      <trkpt lat="47.46356" lon="6.73722">
        <ele>476</ele>
        <time>2014-01-25T13:10:05.060Z</time>
      </trkpt>
      <trkpt lat="47.46347" lon="6.73719">
        <ele>476</ele>
        <time>2014-01-25T13:10:10.108Z</time>
      </trkpt>
      <trkpt lat="47.46343" lon="6.73717">
        <ele>478</ele>
        <time>2014-01-25T13:10:15.063Z</time>
      </trkpt>
      <trkpt lat="47.46341" lon="6.73715">
        <ele>479</ele>
        <time>2014-01-25T13:10:20.120Z</time>
      </trkpt>
      <trkpt lat="47.46338" lon="6.73712">
        <ele>479</ele>
        <time>2014-01-25T13:10:25.069Z</time>
      </trkpt>
      <trkpt lat="47.46334" lon="6.73709">
        <ele>479</ele>
        <time>2014-01-25T13:10:30.146Z</time>
      </trkpt>
      <trkpt lat="47.46329" lon="6.73706">
        <ele>479</ele>
        <time>2014-01-25T13:10:35.075Z</time>
      </trkpt>
      <trkpt lat="47.46329" lon="6.73707">
        <ele>478</ele>
        <time>2014-01-25T13:10:40.142Z</time>
      </trkpt>
      <trkpt lat="47.46325" lon="6.7371">
        <ele>479</ele>
        <time>2014-01-25T13:10:45.080Z</time>
      </trkpt>
      <trkpt lat="47.46321" lon="6.73713">
        <ele>479</ele>
        <time>2014-01-25T13:10:50.139Z</time>
      </trkpt>
      <trkpt lat="47.4632" lon="6.73711">
        <ele>480</ele>
        <time>2014-01-25T13:10:55.067Z</time>
      </trkpt>
      <trkpt lat="47.46323" lon="6.73712">
        <ele>480</ele>
        <time>2014-01-25T13:11:00.151Z</time>
      </trkpt>
      <trkpt lat="47.4632" lon="6.73715">
        <ele>480</ele>
        <time>2014-01-25T13:11:05.067Z</time>
      </trkpt>
      <trkpt lat="47.46319" lon="6.73716">
        <ele>480</ele>
        <time>2014-01-25T13:11:10.142Z</time>
      </trkpt>
      <trkpt lat="47.46314" lon="6.73713">
        <ele>481</ele>
        <time>2014-01-25T13:11:15.070Z</time>
      </trkpt>
      <trkpt lat="47.46306" lon="6.73711">
        <ele>481</ele>
        <time>2014-01-25T13:11:20.140Z</time>
      </trkpt>
      <trkpt lat="47.46299" lon="6.73711">
        <ele>481</ele>
        <time>2014-01-25T13:11:25.066Z</time>
      </trkpt>
      <trkpt lat="47.46291" lon="6.73712">
        <ele>481</ele>
        <time>2014-01-25T13:11:30.138Z</time>
      </trkpt>
      <trkpt lat="47.46285" lon="6.73712">
        <ele>481</ele>
        <time>2014-01-25T13:11:35.069Z</time>
      </trkpt>
      <trkpt lat="47.46283" lon="6.73714">
        <ele>481</ele>
        <time>2014-01-25T13:11:40.128Z</time>
      </trkpt>
      <trkpt lat="47.46274" lon="6.73712">
        <ele>481</ele>
        <time>2014-01-25T13:11:45.071Z</time>
      </trkpt>
      <trkpt lat="47.46267" lon="6.73711">
        <ele>481</ele>
        <time>2014-01-25T13:11:50.140Z</time>
      </trkpt>
      <trkpt lat="47.46265" lon="6.73711">
        <ele>480</ele>
        <time>2014-01-25T13:11:55.068Z</time>
      </trkpt>
      <trkpt lat="47.46263" lon="6.73712">
        <ele>480</ele>
        <time>2014-01-25T13:12:00.152Z</time>
      </trkpt>
      <trkpt lat="47.46259" lon="6.73711">
        <ele>481</ele>
        <time>2014-01-25T13:12:05.075Z</time>
      </trkpt>
      <trkpt lat="47.46254" lon="6.73709">
        <ele>480</ele>
        <time>2014-01-25T13:12:10.113Z</time>
      </trkpt>
      <trkpt lat="47.46248" lon="6.73706">
        <ele>480</ele>
        <time>2014-01-25T13:12:15.068Z</time>
      </trkpt>
      <trkpt lat="47.46244" lon="6.7371">
        <ele>480</ele>
        <time>2014-01-25T13:12:20.119Z</time>
      </trkpt>
      <trkpt lat="47.4624" lon="6.73709">
        <ele>481</ele>
        <time>2014-01-25T13:12:25.066Z</time>
      </trkpt>
      <trkpt lat="47.46235" lon="6.7371">
        <ele>481</ele>
        <time>2014-01-25T13:12:30.142Z</time>
      </trkpt>
      <trkpt lat="47.46226" lon="6.73709">
        <ele>481</ele>
        <time>2014-01-25T13:12:35.076Z</time>
      </trkpt>
      <trkpt lat="47.4622" lon="6.73709">
        <ele>481</ele>
        <time>2014-01-25T13:12:40.139Z</time>
      </trkpt>
      <trkpt lat="47.46208" lon="6.73708">
        <ele>480</ele>
        <time>2014-01-25T13:12:45.068Z</time>
      </trkpt>
      <trkpt lat="47.46201" lon="6.7371">
        <ele>481</ele>
        <time>2014-01-25T13:12:50.140Z</time>
      </trkpt>
      <trkpt lat="47.46192" lon="6.73707">
        <ele>481</ele>
        <time>2014-01-25T13:12:55.078Z</time>
      </trkpt>
      <trkpt lat="47.46162" lon="6.73697">
        <ele>481</ele>
        <time>2014-01-25T13:13:20.144Z</time>
      </trkpt>
      <trkpt lat="47.46156" lon="6.73692">
        <ele>481</ele>
        <time>2014-01-25T13:13:25.067Z</time>
      </trkpt>
      <trkpt lat="47.46157" lon="6.73692">
        <ele>481</ele>
        <time>2014-01-25T13:13:30.118Z</time>
      </trkpt>
      <trkpt lat="47.46157" lon="6.73686">
        <ele>482</ele>
        <time>2014-01-25T13:13:35.068Z</time>
      </trkpt>
      <trkpt lat="47.46155" lon="6.73682">
        <ele>483</ele>
        <time>2014-01-25T13:13:40.143Z</time>
      </trkpt>
      <trkpt lat="47.46148" lon="6.73676">
        <ele>483</ele>
        <time>2014-01-25T13:13:45.075Z</time>
      </trkpt>
      <trkpt lat="47.46143" lon="6.73672">
        <ele>482</ele>
        <time>2014-01-25T13:13:50.140Z</time>
      </trkpt>
      <trkpt lat="47.46139" lon="6.73671">
        <ele>482</ele>
        <time>2014-01-25T13:13:55.069Z</time>
      </trkpt>
      <trkpt lat="47.46122" lon="6.73663">
        <ele>482</ele>
        <time>2014-01-25T13:14:05.660Z</time>
      </trkpt>
      <trkpt lat="47.46115" lon="6.73658">
        <ele>481</ele>
        <time>2014-01-25T13:14:10.140Z</time>
      </trkpt>
      <trkpt lat="47.46109" lon="6.73654">
        <ele>482</ele>
        <time>2014-01-25T13:14:15.080Z</time>
      </trkpt>
      <trkpt lat="47.46105" lon="6.7365">
        <ele>483</ele>
        <time>2014-01-25T13:14:20.133Z</time>
      </trkpt>
      <trkpt lat="47.461" lon="6.73642">
        <ele>483</ele>
        <time>2014-01-25T13:14:25.069Z</time>
      </trkpt>
      <trkpt lat="47.46095" lon="6.73637">
        <ele>485</ele>
        <time>2014-01-25T13:14:30.140Z</time>
      </trkpt>
      <trkpt lat="47.46088" lon="6.73629">
        <ele>486</ele>
        <time>2014-01-25T13:14:35.070Z</time>
      </trkpt>
      <trkpt lat="47.4608" lon="6.73622">
        <ele>487</ele>
        <time>2014-01-25T13:14:40.140Z</time>
      </trkpt>
      <trkpt lat="47.46071" lon="6.73615">
        <ele>489</ele>
        <time>2014-01-25T13:14:45.069Z</time>
      </trkpt>
      <trkpt lat="47.46063" lon="6.7361">
        <ele>490</ele>
        <time>2014-01-25T13:14:50.140Z</time>
      </trkpt>
      <trkpt lat="47.46054" lon="6.73606">
        <ele>492</ele>
        <time>2014-01-25T13:14:55.068Z</time>
      </trkpt>
      <trkpt lat="47.46016" lon="6.73603">
        <ele>493</ele>
        <time>2014-01-25T13:15:15.081Z</time>
      </trkpt>
      <trkpt lat="47.46005" lon="6.73604">
        <ele>493</ele>
        <time>2014-01-25T13:15:20.341Z</time>
      </trkpt>
      <trkpt lat="47.45998" lon="6.73606">
        <ele>494</ele>
        <time>2014-01-25T13:15:25.143Z</time>
      </trkpt>
      <trkpt lat="47.45993" lon="6.73607">
        <ele>495</ele>
        <time>2014-01-25T13:15:30.082Z</time>
      </trkpt>
      <trkpt lat="47.45983" lon="6.73607">
        <ele>496</ele>
        <time>2014-01-25T13:15:35.140Z</time>
      </trkpt>
      <trkpt lat="47.45972" lon="6.73607">
        <ele>497</ele>
        <time>2014-01-25T13:15:40.068Z</time>
      </trkpt>
      <trkpt lat="47.45962" lon="6.7361">
        <ele>499</ele>
        <time>2014-01-25T13:15:45.140Z</time>
      </trkpt>
      <trkpt lat="47.4595" lon="6.73613">
        <ele>498</ele>
        <time>2014-01-25T13:15:50.080Z</time>
      </trkpt>
      <trkpt lat="47.45939" lon="6.73615">
        <ele>497</ele>
        <time>2014-01-25T13:15:55.140Z</time>
      </trkpt>
      <trkpt lat="47.4593" lon="6.73624">
        <ele>498</ele>
        <time>2014-01-25T13:16:02.578Z</time>
      </trkpt>
      <trkpt lat="47.45921" lon="6.73632">
        <ele>499</ele>
        <time>2014-01-25T13:16:05.141Z</time>
      </trkpt>
      <trkpt lat="47.4591" lon="6.73637">
        <ele>499</ele>
        <time>2014-01-25T13:16:10.070Z</time>
      </trkpt>
      <trkpt lat="47.459" lon="6.73638">
        <ele>500</ele>
        <time>2014-01-25T13:16:15.138Z</time>
      </trkpt>
      <trkpt lat="47.4589" lon="6.73637">
        <ele>500</ele>
        <time>2014-01-25T13:16:20.074Z</time>
      </trkpt>
      <trkpt lat="47.45888" lon="6.73641">
        <ele>502</ele>
        <time>2014-01-25T13:16:25.145Z</time>
      </trkpt>
      <trkpt lat="47.45882" lon="6.73643">
        <ele>503</ele>
        <time>2014-01-25T13:16:30.082Z</time>
      </trkpt>
      <trkpt lat="47.45874" lon="6.73642">
        <ele>504</ele>
        <time>2014-01-25T13:16:35.140Z</time>
      </trkpt>
      <trkpt lat="47.45869" lon="6.73644">
        <ele>504</ele>
        <time>2014-01-25T13:16:40.077Z</time>
      </trkpt>
      <trkpt lat="47.45869" lon="6.73644">
        <ele>504</ele>
        <time>2014-01-25T13:16:45.139Z</time>
      </trkpt>
      <trkpt lat="47.45869" lon="6.73644">
        <ele>504</ele>
        <time>2014-01-25T13:16:50.069Z</time>
      </trkpt>
      <trkpt lat="47.45869" lon="6.73644">
        <ele>504</ele>
        <time>2014-01-25T13:16:55.138Z</time>
      </trkpt>
      <trkpt lat="47.45852" lon="6.73643">
        <ele>505</ele>
        <time>2014-01-25T13:17:15.134Z</time>
      </trkpt>
      <trkpt lat="47.45838" lon="6.73642">
        <ele>503</ele>
        <time>2014-01-25T13:17:20.078Z</time>
      </trkpt>
      <trkpt lat="47.45826" lon="6.73642">
        <ele>503</ele>
        <time>2014-01-25T13:17:25.145Z</time>
      </trkpt>
      <trkpt lat="47.45814" lon="6.73643">
        <ele>504</ele>
        <time>2014-01-25T13:17:30.067Z</time>
      </trkpt>
      <trkpt lat="47.45802" lon="6.73642">
        <ele>504</ele>
        <time>2014-01-25T13:17:35.143Z</time>
      </trkpt>
      <trkpt lat="47.4579" lon="6.73642">
        <ele>504</ele>
        <time>2014-01-25T13:17:40.083Z</time>
      </trkpt>
      <trkpt lat="47.45779" lon="6.73644">
        <ele>505</ele>
        <time>2014-01-25T13:17:45.135Z</time>
      </trkpt>
      <trkpt lat="47.45769" lon="6.73645">
        <ele>506</ele>
        <time>2014-01-25T13:17:50.087Z</time>
      </trkpt>
      <trkpt lat="47.45759" lon="6.73645">
        <ele>507</ele>
        <time>2014-01-25T13:17:55.140Z</time>
      </trkpt>
      <trkpt lat="47.45749" lon="6.73645">
        <ele>508</ele>
        <time>2014-01-25T13:18:02.108Z</time>
      </trkpt>
      <trkpt lat="47.45739" lon="6.73644">
        <ele>510</ele>
        <time>2014-01-25T13:18:05.143Z</time>
      </trkpt>
      <trkpt lat="47.4573" lon="6.73645">
        <ele>510</ele>
        <time>2014-01-25T13:18:10.070Z</time>
      </trkpt>
      <trkpt lat="47.45721" lon="6.73646">
        <ele>511</ele>
        <time>2014-01-25T13:18:15.119Z</time>
      </trkpt>
      <trkpt lat="47.45711" lon="6.73647">
        <ele>512</ele>
        <time>2014-01-25T13:18:20.078Z</time>
      </trkpt>
      <trkpt lat="47.45702" lon="6.73651">
        <ele>511</ele>
        <time>2014-01-25T13:18:25.123Z</time>
      </trkpt>
      <trkpt lat="47.45691" lon="6.73653">
        <ele>511</ele>
        <time>2014-01-25T13:18:30.080Z</time>
      </trkpt>
      <trkpt lat="47.45681" lon="6.73653">
        <ele>510</ele>
        <time>2014-01-25T13:18:35.140Z</time>
      </trkpt>
      <trkpt lat="47.45668" lon="6.73654">
        <ele>510</ele>
        <time>2014-01-25T13:18:40.045Z</time>
      </trkpt>
      <trkpt lat="47.45657" lon="6.73655">
        <ele>511</ele>
        <time>2014-01-25T13:18:45.136Z</time>
      </trkpt>
      <trkpt lat="47.45648" lon="6.7366">
        <ele>511</ele>
        <time>2014-01-25T13:18:55.141Z</time>
      </trkpt>
      <trkpt lat="47.45648" lon="6.7366">
        <ele>511</ele>
        <time>2014-01-25T13:18:55.141Z</time>
      </trkpt>
      <trkpt lat="47.45647" lon="6.7366">
        <ele>510</ele>
        <time>2014-01-25T13:19:05.114Z</time>
      </trkpt>
      <trkpt lat="47.45647" lon="6.7366">
        <ele>510</ele>
        <time>2014-01-25T13:19:10.073Z</time>
      </trkpt>
      <trkpt lat="47.45647" lon="6.7366">
        <ele>510</ele>
        <time>2014-01-25T13:19:15.140Z</time>
      </trkpt>
      <trkpt lat="47.45647" lon="6.7366">
        <ele>510</ele>
        <time>2014-01-25T13:19:20.069Z</time>
      </trkpt>
      <trkpt lat="47.45647" lon="6.7366">
        <ele>510</ele>
        <time>2014-01-25T13:19:25.142Z</time>
      </trkpt>
      <trkpt lat="47.45645" lon="6.7366">
        <ele>508</ele>
        <time>2014-01-25T13:19:30.076Z</time>
      </trkpt>
      <trkpt lat="47.45644" lon="6.73662">
        <ele>509</ele>
        <time>2014-01-25T13:19:35.074Z</time>
      </trkpt>
      <trkpt lat="47.45642" lon="6.73661">
        <ele>510</ele>
        <time>2014-01-25T13:19:40.142Z</time>
      </trkpt>
      <trkpt lat="47.45642" lon="6.73661">
        <ele>510</ele>
        <time>2014-01-25T13:19:45.072Z</time>
      </trkpt>
      <trkpt lat="47.45641" lon="6.7366">
        <ele>510</ele>
        <time>2014-01-25T13:19:50.119Z</time>
      </trkpt>
      <trkpt lat="47.4564" lon="6.73661">
        <ele>511</ele>
        <time>2014-01-25T13:19:55.069Z</time>
      </trkpt>
      <trkpt lat="47.4564" lon="6.7366">
        <ele>511</ele>
        <time>2014-01-25T13:20:00.753Z</time>
      </trkpt>
      <trkpt lat="47.4564" lon="6.73659">
        <ele>512</ele>
        <time>2014-01-25T13:20:05.070Z</time>
      </trkpt>
      <trkpt lat="47.4564" lon="6.73659">
        <ele>512</ele>
        <time>2014-01-25T13:20:10.145Z</time>
      </trkpt>
      <trkpt lat="47.45642" lon="6.73656">
        <ele>511</ele>
        <time>2014-01-25T13:20:15.141Z</time>
      </trkpt>
      <trkpt lat="47.45643" lon="6.73653">
        <ele>510</ele>
        <time>2014-01-25T13:20:20.082Z</time>
      </trkpt>
      <trkpt lat="47.45643" lon="6.73653">
        <ele>510</ele>
        <time>2014-01-25T13:20:25.130Z</time>
      </trkpt>
      <trkpt lat="47.45644" lon="6.73653">
        <ele>510</ele>
        <time>2014-01-25T13:20:30.150Z</time>
      </trkpt>
      <trkpt lat="47.45644" lon="6.73653">
        <ele>510</ele>
        <time>2014-01-25T13:20:35.073Z</time>
      </trkpt>
      <trkpt lat="47.45644" lon="6.73653">
        <ele>510</ele>
        <time>2014-01-25T13:20:40.134Z</time>
      </trkpt>
      <trkpt lat="47.45644" lon="6.73653">
        <ele>510</ele>
        <time>2014-01-25T13:20:45.070Z</time>
      </trkpt>
      <trkpt lat="47.45644" lon="6.73653">
        <ele>510</ele>
        <time>2014-01-25T13:20:50.147Z</time>
      </trkpt>
      <trkpt lat="47.45644" lon="6.73653">
        <ele>510</ele>
        <time>2014-01-25T13:20:55.074Z</time>
      </trkpt>
      <trkpt lat="47.45611" lon="6.73662">
        <ele>513</ele>
        <time>2014-01-25T13:21:15.074Z</time>
      </trkpt>
      <trkpt lat="47.45594" lon="6.73659">
        <ele>513</ele>
        <time>2014-01-25T13:21:20.128Z</time>
      </trkpt>
      <trkpt lat="47.45579" lon="6.73657">
        <ele>514</ele>
        <time>2014-01-25T13:21:25.068Z</time>
      </trkpt>
      <trkpt lat="47.45566" lon="6.73657">
        <ele>515</ele>
        <time>2014-01-25T13:21:30.137Z</time>
      </trkpt>
      <trkpt lat="47.4555" lon="6.73653">
        <ele>516</ele>
        <time>2014-01-25T13:21:35.076Z</time>
      </trkpt>
      <trkpt lat="47.45537" lon="6.73647">
        <ele>518</ele>
        <time>2014-01-25T13:21:40.141Z</time>
      </trkpt>
      <trkpt lat="47.45528" lon="6.73641">
        <ele>518</ele>
        <time>2014-01-25T13:21:45.068Z</time>
      </trkpt>
      <trkpt lat="47.45519" lon="6.73633">
        <ele>518</ele>
        <time>2014-01-25T13:21:50.142Z</time>
      </trkpt>
      <trkpt lat="47.45507" lon="6.73624">
        <ele>517</ele>
        <time>2014-01-25T13:21:55.075Z</time>
      </trkpt>
      <trkpt lat="47.45497" lon="6.73607">
        <ele>516</ele>
        <time>2014-01-25T13:22:07.099Z</time>
      </trkpt>
      <trkpt lat="47.45492" lon="6.73581">
        <ele>514</ele>
        <time>2014-01-25T13:22:10.146Z</time>
      </trkpt>
      <trkpt lat="47.45486" lon="6.7356">
        <ele>514</ele>
        <time>2014-01-25T13:22:15.078Z</time>
      </trkpt>
      <trkpt lat="47.45481" lon="6.73551">
        <ele>515</ele>
        <time>2014-01-25T13:22:20.144Z</time>
      </trkpt>
      <trkpt lat="47.45476" lon="6.73546">
        <ele>517</ele>
        <time>2014-01-25T13:22:25.071Z</time>
      </trkpt>
      <trkpt lat="47.45474" lon="6.73528">
        <ele>516</ele>
        <time>2014-01-25T13:22:30.134Z</time>
      </trkpt>
      <trkpt lat="47.4547" lon="6.73515">
        <ele>517</ele>
        <time>2014-01-25T13:22:35.078Z</time>
      </trkpt>
      <trkpt lat="47.45468" lon="6.73499">
        <ele>517</ele>
        <time>2014-01-25T13:22:40.141Z</time>
      </trkpt>
      <trkpt lat="47.45468" lon="6.7348">
        <ele>516</ele>
        <time>2014-01-25T13:22:45.077Z</time>
      </trkpt>
      <trkpt lat="47.45466" lon="6.73461">
        <ele>516</ele>
        <time>2014-01-25T13:22:50.142Z</time>
      </trkpt>
      <trkpt lat="47.45464" lon="6.73445">
        <ele>517</ele>
        <time>2014-01-25T13:22:55.049Z</time>
      </trkpt>
      <trkpt lat="47.45462" lon="6.7343">
        <ele>519</ele>
        <time>2014-01-25T13:23:00.809Z</time>
      </trkpt>
      <trkpt lat="47.45464" lon="6.73415">
        <ele>520</ele>
        <time>2014-01-25T13:23:05.071Z</time>
      </trkpt>
      <trkpt lat="47.45468" lon="6.73406">
        <ele>522</ele>
        <time>2014-01-25T13:23:10.143Z</time>
      </trkpt>
      <trkpt lat="47.45474" lon="6.7339">
        <ele>523</ele>
        <time>2014-01-25T13:23:15.068Z</time>
      </trkpt>
      <trkpt lat="47.45478" lon="6.73375">
        <ele>522</ele>
        <time>2014-01-25T13:23:20.149Z</time>
      </trkpt>
      <trkpt lat="47.45481" lon="6.73362">
        <ele>522</ele>
        <time>2014-01-25T13:23:25.074Z</time>
      </trkpt>
      <trkpt lat="47.45481" lon="6.73362">
        <ele>522</ele>
        <time>2014-01-25T13:23:30.141Z</time>
      </trkpt>
      <trkpt lat="47.45487" lon="6.73356">
        <ele>521</ele>
        <time>2014-01-25T13:23:35.074Z</time>
      </trkpt>
      <trkpt lat="47.45492" lon="6.73346">
        <ele>522</ele>
        <time>2014-01-25T13:23:40.069Z</time>
      </trkpt>
      <trkpt lat="47.45498" lon="6.73342">
        <ele>524</ele>
        <time>2014-01-25T13:23:45.143Z</time>
      </trkpt>
      <trkpt lat="47.45506" lon="6.73338">
        <ele>525</ele>
        <time>2014-01-25T13:23:50.070Z</time>
      </trkpt>
      <trkpt lat="47.45516" lon="6.73335">
        <ele>526</ele>
        <time>2014-01-25T13:23:55.144Z</time>
      </trkpt>
      <trkpt lat="47.45526" lon="6.73334">
        <ele>526</ele>
        <time>2014-01-25T13:24:03.121Z</time>
      </trkpt>
      <trkpt lat="47.45536" lon="6.73325">
        <ele>527</ele>
        <time>2014-01-25T13:24:05.097Z</time>
      </trkpt>
      <trkpt lat="47.45545" lon="6.73316">
        <ele>528</ele>
        <time>2014-01-25T13:24:10.068Z</time>
      </trkpt>
      <trkpt lat="47.45555" lon="6.73306">
        <ele>528</ele>
        <time>2014-01-25T13:24:15.145Z</time>
      </trkpt>
      <trkpt lat="47.4556" lon="6.73299">
        <ele>529</ele>
        <time>2014-01-25T13:24:20.067Z</time>
      </trkpt>
      <trkpt lat="47.45567" lon="6.7329">
        <ele>529</ele>
        <time>2014-01-25T13:24:25.142Z</time>
      </trkpt>
      <trkpt lat="47.45574" lon="6.73281">
        <ele>529</ele>
        <time>2014-01-25T13:24:30.071Z</time>
      </trkpt>
      <trkpt lat="47.45579" lon="6.73272">
        <ele>531</ele>
        <time>2014-01-25T13:24:35.119Z</time>
      </trkpt>
      <trkpt lat="47.45582" lon="6.73259">
        <ele>533</ele>
        <time>2014-01-25T13:24:40.070Z</time>
      </trkpt>
      <trkpt lat="47.45584" lon="6.73243">
        <ele>534</ele>
        <time>2014-01-25T13:24:45.147Z</time>
      </trkpt>
      <trkpt lat="47.45585" lon="6.73229">
        <ele>534</ele>
        <time>2014-01-25T13:24:50.065Z</time>
      </trkpt>
      <trkpt lat="47.45588" lon="6.73213">
        <ele>534</ele>
        <time>2014-01-25T13:24:55.143Z</time>
      </trkpt>
      <trkpt lat="47.4559" lon="6.73198">
        <ele>534</ele>
        <time>2014-01-25T13:25:00.299Z</time>
      </trkpt>
      <trkpt lat="47.45588" lon="6.73178">
        <ele>534</ele>
        <time>2014-01-25T13:25:05.142Z</time>
      </trkpt>
      <trkpt lat="47.45589" lon="6.73158">
        <ele>533</ele>
        <time>2014-01-25T13:25:10.069Z</time>
      </trkpt>
      <trkpt lat="47.45589" lon="6.7314">
        <ele>532</ele>
        <time>2014-01-25T13:25:15.143Z</time>
      </trkpt>
      <trkpt lat="47.45589" lon="6.73122">
        <ele>531</ele>
        <time>2014-01-25T13:25:20.072Z</time>
      </trkpt>
      <trkpt lat="47.45588" lon="6.73104">
        <ele>529</ele>
        <time>2014-01-25T13:25:25.071Z</time>
      </trkpt>
      <trkpt lat="47.45589" lon="6.73088">
        <ele>530</ele>
        <time>2014-01-25T13:25:30.179Z</time>
      </trkpt>
      <trkpt lat="47.45592" lon="6.73063">
        <ele>530</ele>
        <time>2014-01-25T13:25:35.079Z</time>
      </trkpt>
      <trkpt lat="47.45592" lon="6.73041">
        <ele>528</ele>
        <time>2014-01-25T13:25:40.138Z</time>
      </trkpt>
      <trkpt lat="47.45588" lon="6.7303">
        <ele>527</ele>
        <time>2014-01-25T13:25:45.075Z</time>
      </trkpt>
      <trkpt lat="47.45574" lon="6.73018">
        <ele>526</ele>
        <time>2014-01-25T13:25:50.145Z</time>
      </trkpt>
      <trkpt lat="47.45565" lon="6.73003">
        <ele>527</ele>
        <time>2014-01-25T13:25:55.086Z</time>
      </trkpt>
      <trkpt lat="47.4556" lon="6.72992">
        <ele>527</ele>
        <time>2014-01-25T13:26:00.478Z</time>
      </trkpt>
      <trkpt lat="47.45555" lon="6.72979">
        <ele>527</ele>
        <time>2014-01-25T13:26:05.133Z</time>
      </trkpt>
      <trkpt lat="47.4555" lon="6.72964">
        <ele>527</ele>
        <time>2014-01-25T13:26:10.068Z</time>
      </trkpt>
      <trkpt lat="47.45543" lon="6.72951">
        <ele>528</ele>
        <time>2014-01-25T13:26:15.143Z</time>
      </trkpt>
      <trkpt lat="47.45536" lon="6.72938">
        <ele>528</ele>
        <time>2014-01-25T13:26:20.071Z</time>
      </trkpt>
      <trkpt lat="47.45529" lon="6.72928">
        <ele>527</ele>
        <time>2014-01-25T13:26:25.144Z</time>
      </trkpt>
      <trkpt lat="47.45522" lon="6.72919">
        <ele>528</ele>
        <time>2014-01-25T13:26:30.081Z</time>
      </trkpt>
      <trkpt lat="47.4551" lon="6.72898">
        <ele>526</ele>
        <time>2014-01-25T13:26:40.076Z</time>
      </trkpt>
      <trkpt lat="47.4551" lon="6.72898">
        <ele>526</ele>
        <time>2014-01-25T13:26:40.076Z</time>
      </trkpt>
      <trkpt lat="47.45496" lon="6.72879">
        <ele>526</ele>
        <time>2014-01-25T13:26:50.176Z</time>
      </trkpt>
      <trkpt lat="47.45499" lon="6.72861">
        <ele>526</ele>
        <time>2014-01-25T13:26:55.073Z</time>
      </trkpt>
      <trkpt lat="47.45495" lon="6.72822">
        <ele>522</ele>
        <time>2014-01-25T13:27:05.071Z</time>
      </trkpt>
      <trkpt lat="47.4549" lon="6.72807">
        <ele>521</ele>
        <time>2014-01-25T13:27:10.058Z</time>
      </trkpt>
      <trkpt lat="47.45486" lon="6.72795">
        <ele>522</ele>
        <time>2014-01-25T13:27:15.135Z</time>
      </trkpt>
      <trkpt lat="47.45478" lon="6.72782">
        <ele>523</ele>
        <time>2014-01-25T13:27:20.076Z</time>
      </trkpt>
      <trkpt lat="47.45471" lon="6.72767">
        <ele>524</ele>
        <time>2014-01-25T13:27:25.133Z</time>
      </trkpt>
      <trkpt lat="47.45459" lon="6.72759">
        <ele>524</ele>
        <time>2014-01-25T13:27:30.071Z</time>
      </trkpt>
      <trkpt lat="47.45448" lon="6.7276">
        <ele>520</ele>
        <time>2014-01-25T13:27:35.146Z</time>
      </trkpt>
      <trkpt lat="47.45445" lon="6.72762">
        <ele>517</ele>
        <time>2014-01-25T13:27:40.073Z</time>
      </trkpt>
      <trkpt lat="47.45443" lon="6.72763">
        <ele>517</ele>
        <time>2014-01-25T13:27:45.146Z</time>
      </trkpt>
      <trkpt lat="47.45443" lon="6.72763">
        <ele>517</ele>
        <time>2014-01-25T13:27:50.072Z</time>
      </trkpt>
      <trkpt lat="47.45443" lon="6.72763">
        <ele>517</ele>
        <time>2014-01-25T13:27:55.147Z</time>
      </trkpt>
      <trkpt lat="47.45443" lon="6.72763">
        <ele>517</ele>
        <time>2014-01-25T13:28:00.826Z</time>
      </trkpt>
      <trkpt lat="47.45443" lon="6.72763">
        <ele>517</ele>
        <time>2014-01-25T13:28:05.141Z</time>
      </trkpt>
      <trkpt lat="47.45442" lon="6.72761">
        <ele>517</ele>
        <time>2014-01-25T13:28:10.061Z</time>
      </trkpt>
      <trkpt lat="47.45441" lon="6.7276">
        <ele>518</ele>
        <time>2014-01-25T13:28:15.058Z</time>
      </trkpt>
      <trkpt lat="47.45441" lon="6.7276">
        <ele>518</ele>
        <time>2014-01-25T13:28:20.118Z</time>
      </trkpt>
      <trkpt lat="47.45441" lon="6.7276">
        <ele>518</ele>
        <time>2014-01-25T13:28:25.068Z</time>
      </trkpt>
      <trkpt lat="47.45441" lon="6.7276">
        <ele>518</ele>
        <time>2014-01-25T13:28:30.143Z</time>
      </trkpt>
      <trkpt lat="47.45441" lon="6.7276">
        <ele>518</ele>
        <time>2014-01-25T13:28:35.069Z</time>
      </trkpt>
      <trkpt lat="47.45441" lon="6.7276">
        <ele>518</ele>
        <time>2014-01-25T13:28:40.134Z</time>
      </trkpt>
      <trkpt lat="47.45441" lon="6.7276">
        <ele>518</ele>
        <time>2014-01-25T13:28:45.070Z</time>
      </trkpt>
      <trkpt lat="47.45441" lon="6.7276">
        <ele>518</ele>
        <time>2014-01-25T13:28:50.072Z</time>
      </trkpt>
      <trkpt lat="47.4544" lon="6.7276">
        <ele>517</ele>
        <time>2014-01-25T13:28:55.142Z</time>
      </trkpt>
      <trkpt lat="47.45438" lon="6.7276">
        <ele>518</ele>
        <time>2014-01-25T13:29:00.113Z</time>
      </trkpt>
      <trkpt lat="47.45441" lon="6.72754">
        <ele>519</ele>
        <time>2014-01-25T13:29:05.075Z</time>
      </trkpt>
      <trkpt lat="47.45439" lon="6.72735">
        <ele>519</ele>
        <time>2014-01-25T13:29:10.111Z</time>
      </trkpt>
      <trkpt lat="47.45428" lon="6.72731">
        <ele>519</ele>
        <time>2014-01-25T13:29:15.290Z</time>
      </trkpt>
      <trkpt lat="47.45415" lon="6.72726">
        <ele>519</ele>
        <time>2014-01-25T13:29:20.140Z</time>
      </trkpt>
      <trkpt lat="47.45407" lon="6.72719">
        <ele>519</ele>
        <time>2014-01-25T13:29:25.065Z</time>
      </trkpt>
      <trkpt lat="47.45395" lon="6.72706">
        <ele>519</ele>
        <time>2014-01-25T13:29:30.146Z</time>
      </trkpt>
      <trkpt lat="47.4538" lon="6.72689">
        <ele>519</ele>
        <time>2014-01-25T13:29:35.079Z</time>
      </trkpt>
      <trkpt lat="47.45367" lon="6.7267">
        <ele>518</ele>
        <time>2014-01-25T13:29:40.139Z</time>
      </trkpt>
      <trkpt lat="47.45349" lon="6.7265">
        <ele>518</ele>
        <time>2014-01-25T13:29:45.073Z</time>
      </trkpt>
      <trkpt lat="47.45332" lon="6.72633">
        <ele>518</ele>
        <time>2014-01-25T13:29:50.076Z</time>
      </trkpt>
      <trkpt lat="47.45315" lon="6.72616">
        <ele>517</ele>
        <time>2014-01-25T13:29:55.133Z</time>
      </trkpt>
      <trkpt lat="47.45261" lon="6.72574">
        <ele>516</ele>
        <time>2014-01-25T13:30:10.145Z</time>
      </trkpt>
      <trkpt lat="47.45239" lon="6.72559">
        <ele>514</ele>
        <time>2014-01-25T13:30:15.120Z</time>
      </trkpt>
      <trkpt lat="47.45213" lon="6.72545">
        <ele>513</ele>
        <time>2014-01-25T13:30:20.132Z</time>
      </trkpt>
      <trkpt lat="47.45182" lon="6.72523">
        <ele>512</ele>
        <time>2014-01-25T13:30:25.073Z</time>
      </trkpt>
      <trkpt lat="47.45157" lon="6.72506">
        <ele>512</ele>
        <time>2014-01-25T13:30:30.113Z</time>
      </trkpt>
      <trkpt lat="47.45135" lon="6.72489">
        <ele>512</ele>
        <time>2014-01-25T13:30:35.046Z</time>
      </trkpt>
      <trkpt lat="47.45087" lon="6.72456">
        <ele>512</ele>
        <time>2014-01-25T13:30:45.080Z</time>
      </trkpt>
      <trkpt lat="47.45064" lon="6.7244">
        <ele>513</ele>
        <time>2014-01-25T13:30:50.147Z</time>
      </trkpt>
      <trkpt lat="47.45042" lon="6.72425">
        <ele>513</ele>
        <time>2014-01-25T13:30:55.071Z</time>
      </trkpt>
      <trkpt lat="47.44986" lon="6.72379">
        <ele>514</ele>
        <time>2014-01-25T13:31:12.256Z</time>
      </trkpt>
      <trkpt lat="47.44967" lon="6.72362">
        <ele>514</ele>
        <time>2014-01-25T13:31:15.077Z</time>
      </trkpt>
      <trkpt lat="47.44948" lon="6.72345">
        <ele>514</ele>
        <time>2014-01-25T13:31:20.139Z</time>
      </trkpt>
      <trkpt lat="47.44932" lon="6.7233">
        <ele>515</ele>
        <time>2014-01-25T13:31:25.066Z</time>
      </trkpt>
      <trkpt lat="47.44918" lon="6.72318">
        <ele>515</ele>
        <time>2014-01-25T13:31:30.143Z</time>
      </trkpt>
      <trkpt lat="47.44907" lon="6.7231">
        <ele>515</ele>
        <time>2014-01-25T13:31:35.064Z</time>
      </trkpt>
      <trkpt lat="47.44897" lon="6.72301">
        <ele>516</ele>
        <time>2014-01-25T13:31:40.139Z</time>
      </trkpt>
      <trkpt lat="47.44887" lon="6.72293">
        <ele>516</ele>
        <time>2014-01-25T13:31:45.064Z</time>
      </trkpt>
      <trkpt lat="47.4488" lon="6.72287">
        <ele>516</ele>
        <time>2014-01-25T13:31:50.143Z</time>
      </trkpt>
      <trkpt lat="47.44873" lon="6.72281">
        <ele>517</ele>
        <time>2014-01-25T13:31:55.066Z</time>
      </trkpt>
      <trkpt lat="47.44859" lon="6.72275">
        <ele>517</ele>
        <time>2014-01-25T13:32:00.137Z</time>
      </trkpt>
      <trkpt lat="47.44838" lon="6.72268">
        <ele>518</ele>
        <time>2014-01-25T13:32:05.082Z</time>
      </trkpt>
      <trkpt lat="47.44809" lon="6.72265">
        <ele>521</ele>
        <time>2014-01-25T13:32:15.082Z</time>
      </trkpt>
      <trkpt lat="47.44801" lon="6.72263">
        <ele>524</ele>
        <time>2014-01-25T13:32:20.148Z</time>
      </trkpt>
      <trkpt lat="47.44789" lon="6.7226">
        <ele>526</ele>
        <time>2014-01-25T13:32:25.070Z</time>
      </trkpt>
      <trkpt lat="47.4478" lon="6.72257">
        <ele>527</ele>
        <time>2014-01-25T13:32:30.145Z</time>
      </trkpt>
      <trkpt lat="47.4477" lon="6.72259">
        <ele>528</ele>
        <time>2014-01-25T13:32:35.072Z</time>
      </trkpt>
      <trkpt lat="47.44758" lon="6.7226">
        <ele>530</ele>
        <time>2014-01-25T13:32:40.145Z</time>
      </trkpt>
      <trkpt lat="47.44743" lon="6.72264">
        <ele>532</ele>
        <time>2014-01-25T13:32:45.069Z</time>
      </trkpt>
      <trkpt lat="47.44729" lon="6.72272">
        <ele>532</ele>
        <time>2014-01-25T13:32:50.143Z</time>
      </trkpt>
      <trkpt lat="47.44717" lon="6.72277">
        <ele>533</ele>
        <time>2014-01-25T13:32:55.064Z</time>
      </trkpt>
      <trkpt lat="47.44691" lon="6.7229">
        <ele>535</ele>
        <time>2014-01-25T13:33:05.066Z</time>
      </trkpt>
      <trkpt lat="47.44678" lon="6.72299">
        <ele>534</ele>
        <time>2014-01-25T13:33:10.107Z</time>
      </trkpt>
      <trkpt lat="47.4466" lon="6.72302">
        <ele>535</ele>
        <time>2014-01-25T13:33:15.070Z</time>
      </trkpt>
      <trkpt lat="47.4464" lon="6.72305">
        <ele>535</ele>
        <time>2014-01-25T13:33:20.140Z</time>
      </trkpt>
      <trkpt lat="47.44619" lon="6.72304">
        <ele>535</ele>
        <time>2014-01-25T13:33:25.065Z</time>
      </trkpt>
      <trkpt lat="47.44594" lon="6.72306">
        <ele>536</ele>
        <time>2014-01-25T13:33:30.135Z</time>
      </trkpt>
      <trkpt lat="47.4457" lon="6.72311">
        <ele>536</ele>
        <time>2014-01-25T13:33:35.063Z</time>
      </trkpt>
      <trkpt lat="47.4454" lon="6.72314">
        <ele>536</ele>
        <time>2014-01-25T13:33:40.137Z</time>
      </trkpt>
      <trkpt lat="47.44519" lon="6.72323">
        <ele>536</ele>
        <time>2014-01-25T13:33:45.260Z</time>
      </trkpt>
      <trkpt lat="47.44498" lon="6.7233">
        <ele>536</ele>
        <time>2014-01-25T13:33:50.074Z</time>
      </trkpt>
      <trkpt lat="47.44476" lon="6.72335">
        <ele>537</ele>
        <time>2014-01-25T13:33:55.127Z</time>
      </trkpt>
      <trkpt lat="47.44457" lon="6.7234">
        <ele>537</ele>
        <time>2014-01-25T13:34:00.125Z</time>
      </trkpt>
      <trkpt lat="47.44432" lon="6.72346">
        <ele>536</ele>
        <time>2014-01-25T13:34:05.071Z</time>
      </trkpt>
      <trkpt lat="47.44405" lon="6.72355">
        <ele>534</ele>
        <time>2014-01-25T13:34:10.126Z</time>
      </trkpt>
      <trkpt lat="47.44379" lon="6.72362">
        <ele>533</ele>
        <time>2014-01-25T13:34:15.058Z</time>
      </trkpt>
      <trkpt lat="47.44353" lon="6.72369">
        <ele>533</ele>
        <time>2014-01-25T13:34:20.126Z</time>
      </trkpt>
      <trkpt lat="47.44332" lon="6.72375">
        <ele>534</ele>
        <time>2014-01-25T13:34:25.055Z</time>
      </trkpt>
      <trkpt lat="47.44315" lon="6.72376">
        <ele>535</ele>
        <time>2014-01-25T13:34:30.124Z</time>
      </trkpt>
      <trkpt lat="47.44295" lon="6.72378">
        <ele>537</ele>
        <time>2014-01-25T13:34:35.076Z</time>
      </trkpt>
      <trkpt lat="47.44279" lon="6.72382">
        <ele>539</ele>
        <time>2014-01-25T13:34:40.138Z</time>
      </trkpt>
      <trkpt lat="47.44255" lon="6.72386">
        <ele>541</ele>
        <time>2014-01-25T13:34:45.076Z</time>
      </trkpt>
      <trkpt lat="47.44233" lon="6.7239">
        <ele>542</ele>
        <time>2014-01-25T13:34:50.079Z</time>
      </trkpt>
      <trkpt lat="47.44203" lon="6.72394">
        <ele>541</ele>
        <time>2014-01-25T13:34:55.144Z</time>
      </trkpt>
      <trkpt lat="47.44126" lon="6.72418">
        <ele>541</ele>
        <time>2014-01-25T13:35:10.136Z</time>
      </trkpt>
      <trkpt lat="47.44096" lon="6.72426">
        <ele>542</ele>
        <time>2014-01-25T13:35:15.139Z</time>
      </trkpt>
      <trkpt lat="47.44061" lon="6.72433">
        <ele>542</ele>
        <time>2014-01-25T13:35:20.074Z</time>
      </trkpt>
      <trkpt lat="47.44026" lon="6.72453">
        <ele>538</ele>
        <time>2014-01-25T13:35:25.153Z</time>
      </trkpt>
      <trkpt lat="47.43998" lon="6.72468">
        <ele>534</ele>
        <time>2014-01-25T13:35:30.250Z</time>
      </trkpt>
      <trkpt lat="47.43972" lon="6.72482">
        <ele>530</ele>
        <time>2014-01-25T13:35:35.112Z</time>
      </trkpt>
      <trkpt lat="47.43947" lon="6.72494">
        <ele>529</ele>
        <time>2014-01-25T13:35:40.059Z</time>
      </trkpt>
      <trkpt lat="47.43922" lon="6.72494">
        <ele>528</ele>
        <time>2014-01-25T13:35:45.125Z</time>
      </trkpt>
      <trkpt lat="47.43899" lon="6.72479">
        <ele>526</ele>
        <time>2014-01-25T13:35:50.062Z</time>
      </trkpt>
      <trkpt lat="47.43877" lon="6.72458">
        <ele>525</ele>
        <time>2014-01-25T13:35:55.142Z</time>
      </trkpt>
      <trkpt lat="47.43853" lon="6.72435">
        <ele>525</ele>
        <time>2014-01-25T13:36:00.110Z</time>
      </trkpt>
      <trkpt lat="47.43833" lon="6.72413">
        <ele>525</ele>
        <time>2014-01-25T13:36:05.075Z</time>
      </trkpt>
      <trkpt lat="47.43815" lon="6.72393">
        <ele>525</ele>
        <time>2014-01-25T13:36:10.072Z</time>
      </trkpt>
      <trkpt lat="47.43796" lon="6.7237">
        <ele>525</ele>
        <time>2014-01-25T13:36:15.070Z</time>
      </trkpt>
      <trkpt lat="47.43775" lon="6.72343">
        <ele>525</ele>
        <time>2014-01-25T13:36:20.149Z</time>
      </trkpt>
      <trkpt lat="47.43756" lon="6.72315">
        <ele>524</ele>
        <time>2014-01-25T13:36:25.143Z</time>
      </trkpt>
      <trkpt lat="47.43733" lon="6.72301">
        <ele>523</ele>
        <time>2014-01-25T13:36:30.072Z</time>
      </trkpt>
      <trkpt lat="47.43707" lon="6.72314">
        <ele>523</ele>
        <time>2014-01-25T13:36:35.078Z</time>
      </trkpt>
      <trkpt lat="47.43681" lon="6.72334">
        <ele>524</ele>
        <time>2014-01-25T13:36:40.141Z</time>
      </trkpt>
      <trkpt lat="47.43659" lon="6.72349">
        <ele>524</ele>
        <time>2014-01-25T13:36:45.038Z</time>
      </trkpt>
      <trkpt lat="47.43622" lon="6.72373">
        <ele>525</ele>
        <time>2014-01-25T13:36:55.073Z</time>
      </trkpt>
      <trkpt lat="47.43574" lon="6.72397">
        <ele>525</ele>
        <time>2014-01-25T13:37:10.074Z</time>
      </trkpt>
      <trkpt lat="47.43559" lon="6.72403">
        <ele>526</ele>
        <time>2014-01-25T13:37:15.075Z</time>
      </trkpt>
      <trkpt lat="47.43546" lon="6.72409">
        <ele>526</ele>
        <time>2014-01-25T13:37:20.076Z</time>
      </trkpt>
      <trkpt lat="47.43533" lon="6.72416">
        <ele>527</ele>
        <time>2014-01-25T13:37:25.156Z</time>
      </trkpt>
      <trkpt lat="47.43522" lon="6.72422">
        <ele>528</ele>
        <time>2014-01-25T13:37:30.077Z</time>
      </trkpt>
      <trkpt lat="47.4351" lon="6.72421">
        <ele>529</ele>
        <time>2014-01-25T13:37:35.143Z</time>
      </trkpt>
      <trkpt lat="47.43503" lon="6.72406">
        <ele>529</ele>
        <time>2014-01-25T13:37:40.080Z</time>
      </trkpt>
      <trkpt lat="47.43494" lon="6.7239">
        <ele>529</ele>
        <time>2014-01-25T13:37:45.141Z</time>
      </trkpt>
      <trkpt lat="47.43483" lon="6.72373">
        <ele>529</ele>
        <time>2014-01-25T13:37:50.074Z</time>
      </trkpt>
      <trkpt lat="47.43473" lon="6.72354">
        <ele>531</ele>
        <time>2014-01-25T13:37:55.140Z</time>
      </trkpt>
      <trkpt lat="47.43446" lon="6.72311">
        <ele>530</ele>
        <time>2014-01-25T13:38:05.767Z</time>
      </trkpt>
      <trkpt lat="47.43431" lon="6.72288">
        <ele>530</ele>
        <time>2014-01-25T13:38:10.081Z</time>
      </trkpt>
      <trkpt lat="47.43417" lon="6.72265">
        <ele>530</ele>
        <time>2014-01-25T13:38:15.144Z</time>
      </trkpt>
      <trkpt lat="47.43401" lon="6.72243">
        <ele>530</ele>
        <time>2014-01-25T13:38:20.073Z</time>
      </trkpt>
      <trkpt lat="47.43384" lon="6.72221">
        <ele>530</ele>
        <time>2014-01-25T13:38:25.142Z</time>
      </trkpt>
      <trkpt lat="47.43368" lon="6.72197">
        <ele>529</ele>
        <time>2014-01-25T13:38:30.070Z</time>
      </trkpt>
      <trkpt lat="47.43352" lon="6.72172">
        <ele>529</ele>
        <time>2014-01-25T13:38:35.122Z</time>
      </trkpt>
      <trkpt lat="47.43338" lon="6.7215">
        <ele>529</ele>
        <time>2014-01-25T13:38:40.061Z</time>
      </trkpt>
      <trkpt lat="47.43323" lon="6.72128">
        <ele>529</ele>
        <time>2014-01-25T13:38:45.141Z</time>
      </trkpt>
      <trkpt lat="47.43309" lon="6.72105">
        <ele>529</ele>
        <time>2014-01-25T13:38:50.053Z</time>
      </trkpt>
      <trkpt lat="47.43239" lon="6.71986">
        <ele>530</ele>
        <time>2014-01-25T13:39:20.072Z</time>
      </trkpt>
      <trkpt lat="47.43229" lon="6.71968">
        <ele>530</ele>
        <time>2014-01-25T13:39:25.146Z</time>
      </trkpt>
      <trkpt lat="47.43219" lon="6.71952">
        <ele>531</ele>
        <time>2014-01-25T13:39:30.074Z</time>
      </trkpt>
      <trkpt lat="47.43209" lon="6.71936">
        <ele>531</ele>
        <time>2014-01-25T13:39:35.073Z</time>
      </trkpt>
      <trkpt lat="47.432" lon="6.71921">
        <ele>532</ele>
        <time>2014-01-25T13:39:40.143Z</time>
      </trkpt>
      <trkpt lat="47.43192" lon="6.71908">
        <ele>532</ele>
        <time>2014-01-25T13:39:45.047Z</time>
      </trkpt>
      <trkpt lat="47.43184" lon="6.71901">
        <ele>533</ele>
        <time>2014-01-25T13:39:50.145Z</time>
      </trkpt>
      <trkpt lat="47.43176" lon="6.71902">
        <ele>533</ele>
        <time>2014-01-25T13:39:55.139Z</time>
      </trkpt>
      <trkpt lat="47.43167" lon="6.71909">
        <ele>533</ele>
        <time>2014-01-25T13:40:05.153Z</time>
      </trkpt>
      <trkpt lat="47.43161" lon="6.71911">
        <ele>534</ele>
        <time>2014-01-25T13:40:10.070Z</time>
      </trkpt>
      <trkpt lat="47.43159" lon="6.71916">
        <ele>535</ele>
        <time>2014-01-25T13:40:15.059Z</time>
      </trkpt>
      <trkpt lat="47.43155" lon="6.7192">
        <ele>535</ele>
        <time>2014-01-25T13:40:20.115Z</time>
      </trkpt>
      <trkpt lat="47.43151" lon="6.71924">
        <ele>536</ele>
        <time>2014-01-25T13:40:25.075Z</time>
      </trkpt>
      <trkpt lat="47.43147" lon="6.71926">
        <ele>536</ele>
        <time>2014-01-25T13:40:30.141Z</time>
      </trkpt>
      <trkpt lat="47.43143" lon="6.71928">
        <ele>537</ele>
        <time>2014-01-25T13:40:35.073Z</time>
      </trkpt>
      <trkpt lat="47.43139" lon="6.71931">
        <ele>538</ele>
        <time>2014-01-25T13:40:40.144Z</time>
      </trkpt>
      <trkpt lat="47.43136" lon="6.71936">
        <ele>540</ele>
        <time>2014-01-25T13:40:45.075Z</time>
      </trkpt>
      <trkpt lat="47.43132" lon="6.71939">
        <ele>540</ele>
        <time>2014-01-25T13:40:50.081Z</time>
      </trkpt>
      <trkpt lat="47.43128" lon="6.71942">
        <ele>541</ele>
        <time>2014-01-25T13:40:55.146Z</time>
      </trkpt>
      <trkpt lat="47.43111" lon="6.71959">
        <ele>544</ele>
        <time>2014-01-25T13:41:15.154Z</time>
      </trkpt>
      <trkpt lat="47.43106" lon="6.71962">
        <ele>544</ele>
        <time>2014-01-25T13:41:20.087Z</time>
      </trkpt>
      <trkpt lat="47.43099" lon="6.71967">
        <ele>545</ele>
        <time>2014-01-25T13:41:25.059Z</time>
      </trkpt>
      <trkpt lat="47.43094" lon="6.71971">
        <ele>546</ele>
        <time>2014-01-25T13:41:30.122Z</time>
      </trkpt>
      <trkpt lat="47.43089" lon="6.71976">
        <ele>547</ele>
        <time>2014-01-25T13:41:35.060Z</time>
      </trkpt>
      <trkpt lat="47.43083" lon="6.7198">
        <ele>547</ele>
        <time>2014-01-25T13:41:40.141Z</time>
      </trkpt>
      <trkpt lat="47.43078" lon="6.71983">
        <ele>547</ele>
        <time>2014-01-25T13:41:45.074Z</time>
      </trkpt>
      <trkpt lat="47.43073" lon="6.71988">
        <ele>547</ele>
        <time>2014-01-25T13:41:50.135Z</time>
      </trkpt>
      <trkpt lat="47.43069" lon="6.71992">
        <ele>548</ele>
        <time>2014-01-25T13:41:55.079Z</time>
      </trkpt>
      <trkpt lat="47.43057" lon="6.72002">
        <ele>550</ele>
        <time>2014-01-25T13:42:10.148Z</time>
      </trkpt>
      <trkpt lat="47.43053" lon="6.72006">
        <ele>550</ele>
        <time>2014-01-25T13:42:15.079Z</time>
      </trkpt>
      <trkpt lat="47.43047" lon="6.72009">
        <ele>551</ele>
        <time>2014-01-25T13:42:20.075Z</time>
      </trkpt>
      <trkpt lat="47.43042" lon="6.72014">
        <ele>551</ele>
        <time>2014-01-25T13:42:25.143Z</time>
      </trkpt>
      <trkpt lat="47.43036" lon="6.72018">
        <ele>552</ele>
        <time>2014-01-25T13:42:30.074Z</time>
      </trkpt>
      <trkpt lat="47.43032" lon="6.72022">
        <ele>553</ele>
        <time>2014-01-25T13:42:35.143Z</time>
      </trkpt>
      <trkpt lat="47.43027" lon="6.72026">
        <ele>553</ele>
        <time>2014-01-25T13:42:40.073Z</time>
      </trkpt>
      <trkpt lat="47.43023" lon="6.72031">
        <ele>554</ele>
        <time>2014-01-25T13:42:45.153Z</time>
      </trkpt>
      <trkpt lat="47.43019" lon="6.72035">
        <ele>555</ele>
        <time>2014-01-25T13:42:50.076Z</time>
      </trkpt>
      <trkpt lat="47.43014" lon="6.72038">
        <ele>555</ele>
        <time>2014-01-25T13:42:55.149Z</time>
      </trkpt>
      <trkpt lat="47.43006" lon="6.72049">
        <ele>557</ele>
        <time>2014-01-25T13:43:05.145Z</time>
      </trkpt>
      <trkpt lat="47.43011" lon="6.72049">
        <ele>556</ele>
        <time>2014-01-25T13:43:10.079Z</time>
      </trkpt>
      <trkpt lat="47.43011" lon="6.72043">
        <ele>556</ele>
        <time>2014-01-25T13:43:15.075Z</time>
      </trkpt>
      <trkpt lat="47.4301" lon="6.72038">
        <ele>556</ele>
        <time>2014-01-25T13:43:20.145Z</time>
      </trkpt>
      <trkpt lat="47.43006" lon="6.72037">
        <ele>557</ele>
        <time>2014-01-25T13:43:25.051Z</time>
      </trkpt>
      <trkpt lat="47.43003" lon="6.7204">
        <ele>557</ele>
        <time>2014-01-25T13:43:30.213Z</time>
      </trkpt>
      <trkpt lat="47.42998" lon="6.72042">
        <ele>558</ele>
        <time>2014-01-25T13:43:35.134Z</time>
      </trkpt>
      <trkpt lat="47.42994" lon="6.7204">
        <ele>557</ele>
        <time>2014-01-25T13:43:40.074Z</time>
      </trkpt>
      <trkpt lat="47.42991" lon="6.72035">
        <ele>557</ele>
        <time>2014-01-25T13:43:45.146Z</time>
      </trkpt>
      <trkpt lat="47.42988" lon="6.72027">
        <ele>557</ele>
        <time>2014-01-25T13:43:50.077Z</time>
      </trkpt>
      <trkpt lat="47.42984" lon="6.72017">
        <ele>557</ele>
        <time>2014-01-25T13:43:55.149Z</time>
      </trkpt>
      <trkpt lat="47.42955" lon="6.71956">
        <ele>557</ele>
        <time>2014-01-25T13:44:20.143Z</time>
      </trkpt>
      <trkpt lat="47.42948" lon="6.71941">
        <ele>557</ele>
        <time>2014-01-25T13:44:25.071Z</time>
      </trkpt>
      <trkpt lat="47.42947" lon="6.71939">
        <ele>557</ele>
        <time>2014-01-25T13:44:30.147Z</time>
      </trkpt>
      <trkpt lat="47.42947" lon="6.71939">
        <ele>557</ele>
        <time>2014-01-25T13:44:35.119Z</time>
      </trkpt>
      <trkpt lat="47.42947" lon="6.71939">
        <ele>557</ele>
        <time>2014-01-25T13:44:40.077Z</time>
      </trkpt>
      <trkpt lat="47.42948" lon="6.71939">
        <ele>557</ele>
        <time>2014-01-25T13:44:45.145Z</time>
      </trkpt>
      <trkpt lat="47.42948" lon="6.71939">
        <ele>557</ele>
        <time>2014-01-25T13:44:50.074Z</time>
      </trkpt>
      <trkpt lat="47.42947" lon="6.71939">
        <ele>557</ele>
        <time>2014-01-25T13:44:55.145Z</time>
      </trkpt>
      <trkpt lat="47.42942" lon="6.71927">
        <ele>556</ele>
        <time>2014-01-25T13:45:05.143Z</time>
      </trkpt>
      <trkpt lat="47.42932" lon="6.71907">
        <ele>556</ele>
        <time>2014-01-25T13:45:10.073Z</time>
      </trkpt>
      <trkpt lat="47.42922" lon="6.71887">
        <ele>555</ele>
        <time>2014-01-25T13:45:15.142Z</time>
      </trkpt>
      <trkpt lat="47.42916" lon="6.71867">
        <ele>555</ele>
        <time>2014-01-25T13:45:20.083Z</time>
      </trkpt>
      <trkpt lat="47.4291" lon="6.71843">
        <ele>554</ele>
        <time>2014-01-25T13:45:25.129Z</time>
      </trkpt>
      <trkpt lat="47.42907" lon="6.71817">
        <ele>554</ele>
        <time>2014-01-25T13:45:30.075Z</time>
      </trkpt>
      <trkpt lat="47.42903" lon="6.71795">
        <ele>554</ele>
        <time>2014-01-25T13:45:35.143Z</time>
      </trkpt>
      <trkpt lat="47.42896" lon="6.71773">
        <ele>554</ele>
        <time>2014-01-25T13:45:40.144Z</time>
      </trkpt>
      <trkpt lat="47.42888" lon="6.7175">
        <ele>553</ele>
        <time>2014-01-25T13:45:45.079Z</time>
      </trkpt>
      <trkpt lat="47.42877" lon="6.71725">
        <ele>552</ele>
        <time>2014-01-25T13:45:50.110Z</time>
      </trkpt>
      <trkpt lat="47.42866" lon="6.71701">
        <ele>551</ele>
        <time>2014-01-25T13:45:55.074Z</time>
      </trkpt>
      <trkpt lat="47.4282" lon="6.7162">
        <ele>550</ele>
        <time>2014-01-25T13:46:15.062Z</time>
      </trkpt>
      <trkpt lat="47.42811" lon="6.71608">
        <ele>550</ele>
        <time>2014-01-25T13:46:20.148Z</time>
      </trkpt>
      <trkpt lat="47.42807" lon="6.71604">
        <ele>550</ele>
        <time>2014-01-25T13:46:25.074Z</time>
      </trkpt>
      <trkpt lat="47.42805" lon="6.71604">
        <ele>550</ele>
        <time>2014-01-25T13:46:30.082Z</time>
      </trkpt>
      <trkpt lat="47.42804" lon="6.71604">
        <ele>550</ele>
        <time>2014-01-25T13:46:35.075Z</time>
      </trkpt>
      <trkpt lat="47.42803" lon="6.71602">
        <ele>549</ele>
        <time>2014-01-25T13:46:40.146Z</time>
      </trkpt>
      <trkpt lat="47.428" lon="6.71596">
        <ele>549</ele>
        <time>2014-01-25T13:46:45.080Z</time>
      </trkpt>
      <trkpt lat="47.42791" lon="6.71584">
        <ele>549</ele>
        <time>2014-01-25T13:46:50.141Z</time>
      </trkpt>
      <trkpt lat="47.42778" lon="6.71571">
        <ele>548</ele>
        <time>2014-01-25T13:46:55.080Z</time>
      </trkpt>
      <trkpt lat="47.42766" lon="6.71555">
        <ele>548</ele>
        <time>2014-01-25T13:47:02.190Z</time>
      </trkpt>
      <trkpt lat="47.42756" lon="6.7153">
        <ele>547</ele>
        <time>2014-01-25T13:47:05.144Z</time>
      </trkpt>
      <trkpt lat="47.42744" lon="6.71502">
        <ele>547</ele>
        <time>2014-01-25T13:47:10.074Z</time>
      </trkpt>
      <trkpt lat="47.42733" lon="6.71472">
        <ele>546</ele>
        <time>2014-01-25T13:47:15.146Z</time>
      </trkpt>
      <trkpt lat="47.42722" lon="6.71441">
        <ele>546</ele>
        <time>2014-01-25T13:47:20.074Z</time>
      </trkpt>
      <trkpt lat="47.4271" lon="6.71407">
        <ele>545</ele>
        <time>2014-01-25T13:47:25.147Z</time>
      </trkpt>
      <trkpt lat="47.42696" lon="6.71371">
        <ele>543</ele>
        <time>2014-01-25T13:47:30.073Z</time>
      </trkpt>
      <trkpt lat="47.42681" lon="6.71337">
        <ele>541</ele>
        <time>2014-01-25T13:47:35.145Z</time>
      </trkpt>
      <trkpt lat="47.42671" lon="6.71299">
        <ele>541</ele>
        <time>2014-01-25T13:47:40.043Z</time>
      </trkpt>
      <trkpt lat="47.4266" lon="6.71266">
        <ele>540</ele>
        <time>2014-01-25T13:47:45.117Z</time>
      </trkpt>
      <trkpt lat="47.42639" lon="6.71269">
        <ele>539</ele>
        <time>2014-01-25T13:47:50.055Z</time>
      </trkpt>
      <trkpt lat="47.42614" lon="6.71293">
        <ele>541</ele>
        <time>2014-01-25T13:48:00.061Z</time>
      </trkpt>
      <trkpt lat="47.426" lon="6.71303">
        <ele>541</ele>
        <time>2014-01-25T13:48:05.146Z</time>
      </trkpt>
      <trkpt lat="47.42586" lon="6.7131">
        <ele>542</ele>
        <time>2014-01-25T13:48:10.073Z</time>
      </trkpt>
      <trkpt lat="47.42571" lon="6.71319">
        <ele>542</ele>
        <time>2014-01-25T13:48:15.154Z</time>
      </trkpt>
      <trkpt lat="47.42557" lon="6.71327">
        <ele>543</ele>
        <time>2014-01-25T13:48:20.075Z</time>
      </trkpt>
      <trkpt lat="47.42543" lon="6.71336">
        <ele>543</ele>
        <time>2014-01-25T13:48:25.078Z</time>
      </trkpt>
      <trkpt lat="47.42527" lon="6.71343">
        <ele>543</ele>
        <time>2014-01-25T13:48:30.144Z</time>
      </trkpt>
      <trkpt lat="47.42512" lon="6.71352">
        <ele>543</ele>
        <time>2014-01-25T13:48:35.076Z</time>
      </trkpt>
      <trkpt lat="47.42498" lon="6.71359">
        <ele>544</ele>
        <time>2014-01-25T13:48:40.082Z</time>
      </trkpt>
      <trkpt lat="47.42492" lon="6.71359">
        <ele>544</ele>
        <time>2014-01-25T13:48:45.126Z</time>
      </trkpt>
      <trkpt lat="47.42491" lon="6.71354">
        <ele>544</ele>
        <time>2014-01-25T13:48:50.088Z</time>
      </trkpt>
      <trkpt lat="47.42491" lon="6.71354">
        <ele>543</ele>
        <time>2014-01-25T13:48:55.143Z</time>
      </trkpt>
      <trkpt lat="47.42491" lon="6.71354">
        <ele>543</ele>
        <time>2014-01-25T13:49:05.140Z</time>
      </trkpt>
      <trkpt lat="47.42491" lon="6.71354">
        <ele>543</ele>
        <time>2014-01-25T13:49:10.128Z</time>
      </trkpt>
      <trkpt lat="47.42491" lon="6.71355">
        <ele>543</ele>
        <time>2014-01-25T13:49:15.060Z</time>
      </trkpt>
      <trkpt lat="47.42491" lon="6.71355">
        <ele>543</ele>
        <time>2014-01-25T13:49:20.148Z</time>
      </trkpt>
      <trkpt lat="47.42491" lon="6.71355">
        <ele>543</ele>
        <time>2014-01-25T13:49:25.076Z</time>
      </trkpt>
      <trkpt lat="47.42491" lon="6.71355">
        <ele>543</ele>
        <time>2014-01-25T13:49:30.074Z</time>
      </trkpt>
      <trkpt lat="47.42492" lon="6.71343">
        <ele>542</ele>
        <time>2014-01-25T13:49:35.150Z</time>
      </trkpt>
      <trkpt lat="47.42492" lon="6.71313">
        <ele>542</ele>
        <time>2014-01-25T13:49:40.081Z</time>
      </trkpt>
      <trkpt lat="47.42491" lon="6.71275">
        <ele>542</ele>
        <time>2014-01-25T13:49:45.074Z</time>
      </trkpt>
      <trkpt lat="47.4249" lon="6.71241">
        <ele>541</ele>
        <time>2014-01-25T13:49:50.074Z</time>
      </trkpt>
      <trkpt lat="47.42485" lon="6.71203">
        <ele>540</ele>
        <time>2014-01-25T13:49:55.072Z</time>
      </trkpt>
      <trkpt lat="47.42447" lon="6.71016">
        <ele>529</ele>
        <time>2014-01-25T13:50:20.141Z</time>
      </trkpt>
      <trkpt lat="47.4243" lon="6.70992">
        <ele>526</ele>
        <time>2014-01-25T13:50:25.067Z</time>
      </trkpt>
      <trkpt lat="47.42411" lon="6.70951">
        <ele>522</ele>
        <time>2014-01-25T13:50:30.145Z</time>
      </trkpt>
      <trkpt lat="47.4239" lon="6.70908">
        <ele>517</ele>
        <time>2014-01-25T13:50:35.071Z</time>
      </trkpt>
      <trkpt lat="47.42375" lon="6.70869">
        <ele>513</ele>
        <time>2014-01-25T13:50:40.143Z</time>
      </trkpt>
      <trkpt lat="47.42362" lon="6.70837">
        <ele>508</ele>
        <time>2014-01-25T13:50:45.072Z</time>
      </trkpt>
      <trkpt lat="47.42356" lon="6.70829">
        <ele>504</ele>
        <time>2014-01-25T13:50:50.115Z</time>
      </trkpt>
      <trkpt lat="47.42353" lon="6.70828">
        <ele>501</ele>
        <time>2014-01-25T13:50:55.072Z</time>
      </trkpt>
      <trkpt lat="47.42353" lon="6.70844">
        <ele>498</ele>
        <time>2014-01-25T13:51:05.064Z</time>
      </trkpt>
      <trkpt lat="47.42356" lon="6.70858">
        <ele>499</ele>
        <time>2014-01-25T13:51:10.143Z</time>
      </trkpt>
      <trkpt lat="47.42361" lon="6.70876">
        <ele>499</ele>
        <time>2014-01-25T13:51:15.067Z</time>
      </trkpt>
      <trkpt lat="47.42366" lon="6.70889">
        <ele>498</ele>
        <time>2014-01-25T13:51:20.145Z</time>
      </trkpt>
      <trkpt lat="47.4237" lon="6.70901">
        <ele>498</ele>
        <time>2014-01-25T13:51:25.061Z</time>
      </trkpt>
      <trkpt lat="47.42374" lon="6.70911">
        <ele>499</ele>
        <time>2014-01-25T13:51:30.149Z</time>
      </trkpt>
      <trkpt lat="47.42379" lon="6.70926">
        <ele>500</ele>
        <time>2014-01-25T13:51:35.071Z</time>
      </trkpt>
      <trkpt lat="47.42381" lon="6.70927">
        <ele>499</ele>
        <time>2014-01-25T13:51:40.143Z</time>
      </trkpt>
      <trkpt lat="47.42383" lon="6.70921">
        <ele>497</ele>
        <time>2014-01-25T13:51:45.080Z</time>
      </trkpt>
      <trkpt lat="47.42384" lon="6.70903">
        <ele>497</ele>
        <time>2014-01-25T13:51:50.269Z</time>
      </trkpt>
      <trkpt lat="47.42373" lon="6.70873">
        <ele>496</ele>
        <time>2014-01-25T13:51:55.145Z</time>
      </trkpt>
      <trkpt lat="47.42359" lon="6.70834">
        <ele>496</ele>
        <time>2014-01-25T13:52:01.182Z</time>
      </trkpt>
      <trkpt lat="47.4234" lon="6.70791">
        <ele>494</ele>
        <time>2014-01-25T13:52:05.144Z</time>
      </trkpt>
      <trkpt lat="47.42318" lon="6.70745">
        <ele>490</ele>
        <time>2014-01-25T13:52:10.063Z</time>
      </trkpt>
      <trkpt lat="47.42304" lon="6.70704">
        <ele>487</ele>
        <time>2014-01-25T13:52:15.143Z</time>
      </trkpt>
      <trkpt lat="47.42301" lon="6.70687">
        <ele>487</ele>
        <time>2014-01-25T13:52:20.077Z</time>
      </trkpt>
      <trkpt lat="47.42295" lon="6.70664">
        <ele>486</ele>
        <time>2014-01-25T13:52:25.131Z</time>
      </trkpt>
      <trkpt lat="47.42282" lon="6.70634">
        <ele>485</ele>
        <time>2014-01-25T13:52:30.104Z</time>
      </trkpt>
      <trkpt lat="47.42268" lon="6.70598">
        <ele>482</ele>
        <time>2014-01-25T13:52:35.142Z</time>
      </trkpt>
      <trkpt lat="47.42259" lon="6.70556">
        <ele>479</ele>
        <time>2014-01-25T13:52:40.068Z</time>
      </trkpt>
      <trkpt lat="47.42252" lon="6.70513">
        <ele>476</ele>
        <time>2014-01-25T13:52:45.146Z</time>
      </trkpt>
      <trkpt lat="47.42241" lon="6.7047">
        <ele>473</ele>
        <time>2014-01-25T13:52:50.063Z</time>
      </trkpt>
      <trkpt lat="47.42235" lon="6.70429">
        <ele>471</ele>
        <time>2014-01-25T13:52:55.106Z</time>
      </trkpt>
      <trkpt lat="47.42233" lon="6.7038">
        <ele>469</ele>
        <time>2014-01-25T13:53:00.456Z</time>
      </trkpt>
      <trkpt lat="47.4223" lon="6.70325">
        <ele>466</ele>
        <time>2014-01-25T13:53:05.062Z</time>
      </trkpt>
      <trkpt lat="47.42231" lon="6.70266">
        <ele>462</ele>
        <time>2014-01-25T13:53:10.142Z</time>
      </trkpt>
      <trkpt lat="47.42235" lon="6.70198">
        <ele>458</ele>
        <time>2014-01-25T13:53:15.067Z</time>
      </trkpt>
      <trkpt lat="47.42242" lon="6.7013">
        <ele>453</ele>
        <time>2014-01-25T13:53:20.142Z</time>
      </trkpt>
      <trkpt lat="47.42252" lon="6.70073">
        <ele>451</ele>
        <time>2014-01-25T13:53:25.246Z</time>
      </trkpt>
      <trkpt lat="47.42262" lon="6.70052">
        <ele>450</ele>
        <time>2014-01-25T13:53:30.060Z</time>
      </trkpt>
      <trkpt lat="47.42263" lon="6.7005">
        <ele>450</ele>
        <time>2014-01-25T13:53:35.119Z</time>
      </trkpt>
      <trkpt lat="47.42263" lon="6.70051">
        <ele>450</ele>
        <time>2014-01-25T13:53:40.032Z</time>
      </trkpt>
      <trkpt lat="47.42261" lon="6.70052">
        <ele>450</ele>
        <time>2014-01-25T13:53:50.065Z</time>
      </trkpt>
      <trkpt lat="47.42263" lon="6.70052">
        <ele>450</ele>
        <time>2014-01-25T13:53:55.143Z</time>
      </trkpt>
      <trkpt lat="47.42264" lon="6.70054">
        <ele>450</ele>
        <time>2014-01-25T13:54:05.141Z</time>
      </trkpt>
      <trkpt lat="47.42263" lon="6.70054">
        <ele>450</ele>
        <time>2014-01-25T13:54:10.062Z</time>
      </trkpt>
      <trkpt lat="47.42262" lon="6.70054">
        <ele>450</ele>
        <time>2014-01-25T13:54:15.141Z</time>
      </trkpt>
      <trkpt lat="47.42262" lon="6.70054">
        <ele>450</ele>
        <time>2014-01-25T13:54:20.062Z</time>
      </trkpt>
      <trkpt lat="47.42262" lon="6.70054">
        <ele>450</ele>
        <time>2014-01-25T13:54:25.141Z</time>
      </trkpt>
      <trkpt lat="47.42262" lon="6.70045">
        <ele>450</ele>
        <time>2014-01-25T13:54:30.066Z</time>
      </trkpt>
      <trkpt lat="47.4226" lon="6.70008">
        <ele>439</ele>
        <time>2014-01-25T13:54:35.141Z</time>
      </trkpt>
      <trkpt lat="47.42257" lon="6.69954">
        <ele>438</ele>
        <time>2014-01-25T13:54:40.071Z</time>
      </trkpt>
      <trkpt lat="47.42252" lon="6.69891">
        <ele>436</ele>
        <time>2014-01-25T13:54:45.143Z</time>
      </trkpt>
      <trkpt lat="47.42241" lon="6.69842">
        <ele>433</ele>
        <time>2014-01-25T13:54:50.066Z</time>
      </trkpt>
      <trkpt lat="47.42239" lon="6.69833">
        <ele>431</ele>
        <time>2014-01-25T13:54:55.114Z</time>
      </trkpt>
      <trkpt lat="47.42233" lon="6.69825">
        <ele>430</ele>
        <time>2014-01-25T13:55:00.653Z</time>
      </trkpt>
      <trkpt lat="47.42207" lon="6.69835">
        <ele>428</ele>
        <time>2014-01-25T13:55:05.112Z</time>
      </trkpt>
      <trkpt lat="47.42172" lon="6.69852">
        <ele>426</ele>
        <time>2014-01-25T13:55:10.070Z</time>
      </trkpt>
      <trkpt lat="47.42148" lon="6.6987">
        <ele>426</ele>
        <time>2014-01-25T13:55:15.142Z</time>
      </trkpt>
      <trkpt lat="47.42132" lon="6.69882">
        <ele>426</ele>
        <time>2014-01-25T13:55:20.079Z</time>
      </trkpt>
      <trkpt lat="47.42115" lon="6.69888">
        <ele>425</ele>
        <time>2014-01-25T13:55:25.143Z</time>
      </trkpt>
      <trkpt lat="47.42098" lon="6.69897">
        <ele>424</ele>
        <time>2014-01-25T13:55:30.070Z</time>
      </trkpt>
      <trkpt lat="47.42083" lon="6.69907">
        <ele>424</ele>
        <time>2014-01-25T13:55:35.140Z</time>
      </trkpt>
      <trkpt lat="47.42072" lon="6.69912">
        <ele>424</ele>
        <time>2014-01-25T13:55:40.065Z</time>
      </trkpt>
      <trkpt lat="47.42056" lon="6.69916">
        <ele>426</ele>
        <time>2014-01-25T13:55:45.133Z</time>
      </trkpt>
      <trkpt lat="47.42039" lon="6.69916">
        <ele>426</ele>
        <time>2014-01-25T13:55:50.074Z</time>
      </trkpt>
      <trkpt lat="47.42021" lon="6.69917">
        <ele>426</ele>
        <time>2014-01-25T13:55:55.130Z</time>
      </trkpt>
      <trkpt lat="47.42002" lon="6.69917">
        <ele>427</ele>
        <time>2014-01-25T13:56:00.940Z</time>
      </trkpt>
      <trkpt lat="47.4198" lon="6.69921">
        <ele>427</ele>
        <time>2014-01-25T13:56:05.143Z</time>
      </trkpt>
      <trkpt lat="47.41958" lon="6.69924">
        <ele>428</ele>
        <time>2014-01-25T13:56:10.060Z</time>
      </trkpt>
      <trkpt lat="47.41938" lon="6.69928">
        <ele>429</ele>
        <time>2014-01-25T13:56:15.117Z</time>
      </trkpt>
      <trkpt lat="47.41919" lon="6.69936">
        <ele>427</ele>
        <time>2014-01-25T13:56:20.068Z</time>
      </trkpt>
      <trkpt lat="47.41896" lon="6.69947">
        <ele>426</ele>
        <time>2014-01-25T13:56:25.144Z</time>
      </trkpt>
      <trkpt lat="47.41872" lon="6.69959">
        <ele>425</ele>
        <time>2014-01-25T13:56:30.064Z</time>
      </trkpt>
      <trkpt lat="47.41848" lon="6.69973">
        <ele>425</ele>
        <time>2014-01-25T13:56:35.100Z</time>
      </trkpt>
      <trkpt lat="47.41823" lon="6.69978">
        <ele>424</ele>
        <time>2014-01-25T13:56:40.065Z</time>
      </trkpt>
      <trkpt lat="47.41799" lon="6.6998">
        <ele>424</ele>
        <time>2014-01-25T13:56:45.110Z</time>
      </trkpt>
      <trkpt lat="47.41777" lon="6.69982">
        <ele>424</ele>
        <time>2014-01-25T13:56:50.043Z</time>
      </trkpt>
      <trkpt lat="47.41658" lon="6.70022">
        <ele>429</ele>
        <time>2014-01-25T13:57:20.129Z</time>
      </trkpt>
      <trkpt lat="47.41643" lon="6.70029">
        <ele>431</ele>
        <time>2014-01-25T13:57:25.065Z</time>
      </trkpt>
      <trkpt lat="47.41629" lon="6.70037">
        <ele>432</ele>
        <time>2014-01-25T13:57:30.140Z</time>
      </trkpt>
      <trkpt lat="47.41616" lon="6.70046">
        <ele>432</ele>
        <time>2014-01-25T13:57:35.070Z</time>
      </trkpt>
      <trkpt lat="47.41604" lon="6.70057">
        <ele>433</ele>
        <time>2014-01-25T13:57:40.143Z</time>
      </trkpt>
      <trkpt lat="47.4159" lon="6.70067">
        <ele>433</ele>
        <time>2014-01-25T13:57:45.072Z</time>
      </trkpt>
      <trkpt lat="47.41578" lon="6.70079">
        <ele>435</ele>
        <time>2014-01-25T13:57:50.119Z</time>
      </trkpt>
      <trkpt lat="47.41566" lon="6.70094">
        <ele>435</ele>
        <time>2014-01-25T13:57:55.061Z</time>
      </trkpt>
      <trkpt lat="47.41513" lon="6.70147">
        <ele>435</ele>
        <time>2014-01-25T13:58:15.064Z</time>
      </trkpt>
      <trkpt lat="47.41498" lon="6.70155">
        <ele>434</ele>
        <time>2014-01-25T13:58:20.154Z</time>
      </trkpt>
      <trkpt lat="47.41481" lon="6.70161">
        <ele>434</ele>
        <time>2014-01-25T13:58:25.071Z</time>
      </trkpt>
      <trkpt lat="47.4146" lon="6.70171">
        <ele>434</ele>
        <time>2014-01-25T13:58:30.143Z</time>
      </trkpt>
      <trkpt lat="47.41435" lon="6.70188">
        <ele>433</ele>
        <time>2014-01-25T13:58:35.072Z</time>
      </trkpt>
      <trkpt lat="47.41412" lon="6.70226">
        <ele>432</ele>
        <time>2014-01-25T13:58:40.149Z</time>
      </trkpt>
      <trkpt lat="47.41387" lon="6.70262">
        <ele>430</ele>
        <time>2014-01-25T13:58:45.073Z</time>
      </trkpt>
      <trkpt lat="47.41366" lon="6.70256">
        <ele>429</ele>
        <time>2014-01-25T13:58:50.142Z</time>
      </trkpt>
      <trkpt lat="47.41352" lon="6.70245">
        <ele>428</ele>
        <time>2014-01-25T13:58:55.061Z</time>
      </trkpt>
      <trkpt lat="47.41339" lon="6.70236">
        <ele>429</ele>
        <time>2014-01-25T13:59:00.829Z</time>
      </trkpt>
      <trkpt lat="47.41325" lon="6.70232">
        <ele>430</ele>
        <time>2014-01-25T13:59:05.067Z</time>
      </trkpt>
      <trkpt lat="47.4131" lon="6.70231">
        <ele>430</ele>
        <time>2014-01-25T13:59:10.144Z</time>
      </trkpt>
      <trkpt lat="47.41296" lon="6.70233">
        <ele>430</ele>
        <time>2014-01-25T13:59:15.143Z</time>
      </trkpt>
      <trkpt lat="47.41283" lon="6.70233">
        <ele>431</ele>
        <time>2014-01-25T13:59:20.072Z</time>
      </trkpt>
      <trkpt lat="47.41273" lon="6.70234">
        <ele>431</ele>
        <time>2014-01-25T13:59:25.119Z</time>
      </trkpt>
      <trkpt lat="47.41261" lon="6.70234">
        <ele>431</ele>
        <time>2014-01-25T13:59:30.077Z</time>
      </trkpt>
      <trkpt lat="47.41249" lon="6.70236">
        <ele>432</ele>
        <time>2014-01-25T13:59:35.148Z</time>
      </trkpt>
      <trkpt lat="47.4124" lon="6.70236">
        <ele>433</ele>
        <time>2014-01-25T13:59:40.071Z</time>
      </trkpt>
      <trkpt lat="47.4123" lon="6.70234">
        <ele>434</ele>
        <time>2014-01-25T13:59:45.144Z</time>
      </trkpt>
      <trkpt lat="47.41219" lon="6.70231">
        <ele>436</ele>
        <time>2014-01-25T13:59:50.071Z</time>
      </trkpt>
      <trkpt lat="47.4121" lon="6.70229">
        <ele>436</ele>
        <time>2014-01-25T13:59:55.140Z</time>
      </trkpt>
      <trkpt lat="47.41185" lon="6.70222">
        <ele>439</ele>
        <time>2014-01-25T14:00:10.677Z</time>
      </trkpt>
      <trkpt lat="47.41174" lon="6.70222">
        <ele>441</ele>
        <time>2014-01-25T14:00:15.148Z</time>
      </trkpt>
      <trkpt lat="47.41166" lon="6.70222">
        <ele>443</ele>
        <time>2014-01-25T14:00:20.082Z</time>
      </trkpt>
      <trkpt lat="47.41155" lon="6.70222">
        <ele>446</ele>
        <time>2014-01-25T14:00:25.940Z</time>
      </trkpt>
      <trkpt lat="47.41132" lon="6.70225">
        <ele>450</ele>
        <time>2014-01-25T14:00:35.144Z</time>
      </trkpt>
      <trkpt lat="47.41129" lon="6.70234">
        <ele>452</ele>
        <time>2014-01-25T14:00:40.069Z</time>
      </trkpt>
      <trkpt lat="47.41128" lon="6.70246">
        <ele>451</ele>
        <time>2014-01-25T14:00:45.132Z</time>
      </trkpt>
      <trkpt lat="47.41128" lon="6.70259">
        <ele>451</ele>
        <time>2014-01-25T14:00:50.069Z</time>
      </trkpt>
      <trkpt lat="47.41126" lon="6.70268">
        <ele>453</ele>
        <time>2014-01-25T14:00:55.142Z</time>
      </trkpt>
      <trkpt lat="47.41118" lon="6.70286">
        <ele>457</ele>
        <time>2014-01-25T14:01:05.139Z</time>
      </trkpt>
      <trkpt lat="47.41118" lon="6.70294">
        <ele>460</ele>
        <time>2014-01-25T14:01:10.065Z</time>
      </trkpt>
      <trkpt lat="47.41115" lon="6.70302">
        <ele>462</ele>
        <time>2014-01-25T14:01:15.041Z</time>
      </trkpt>
      <trkpt lat="47.41111" lon="6.7031">
        <ele>463</ele>
        <time>2014-01-25T14:01:20.142Z</time>
      </trkpt>
      <trkpt lat="47.41106" lon="6.70318">
        <ele>464</ele>
        <time>2014-01-25T14:01:25.118Z</time>
      </trkpt>
      <trkpt lat="47.41099" lon="6.70326">
        <ele>465</ele>
        <time>2014-01-25T14:01:30.082Z</time>
      </trkpt>
      <trkpt lat="47.41095" lon="6.70339">
        <ele>468</ele>
        <time>2014-01-25T14:01:35.118Z</time>
      </trkpt>
      <trkpt lat="47.41091" lon="6.70353">
        <ele>469</ele>
        <time>2014-01-25T14:01:40.067Z</time>
      </trkpt>
      <trkpt lat="47.41089" lon="6.70368">
        <ele>469</ele>
        <time>2014-01-25T14:01:45.123Z</time>
      </trkpt>
      <trkpt lat="47.41088" lon="6.70384">
        <ele>468</ele>
        <time>2014-01-25T14:01:50.044Z</time>
      </trkpt>
      <trkpt lat="47.41088" lon="6.70398">
        <ele>468</ele>
        <time>2014-01-25T14:01:55.141Z</time>
      </trkpt>
      <trkpt lat="47.41088" lon="6.70442">
        <ele>471</ele>
        <time>2014-01-25T14:02:10.092Z</time>
      </trkpt>
      <trkpt lat="47.41084" lon="6.70455">
        <ele>472</ele>
        <time>2014-01-25T14:02:15.079Z</time>
      </trkpt>
      <trkpt lat="47.4108" lon="6.70465">
        <ele>472</ele>
        <time>2014-01-25T14:02:20.144Z</time>
      </trkpt>
      <trkpt lat="47.4108" lon="6.70464">
        <ele>471</ele>
        <time>2014-01-25T14:02:25.076Z</time>
      </trkpt>
      <trkpt lat="47.41084" lon="6.70461">
        <ele>472</ele>
        <time>2014-01-25T14:02:30.142Z</time>
      </trkpt>
      <trkpt lat="47.41084" lon="6.70456">
        <ele>470</ele>
        <time>2014-01-25T14:02:35.067Z</time>
      </trkpt>
      <trkpt lat="47.4108" lon="6.70445">
        <ele>470</ele>
        <time>2014-01-25T14:02:40.145Z</time>
      </trkpt>
      <trkpt lat="47.41075" lon="6.70434">
        <ele>471</ele>
        <time>2014-01-25T14:02:45.073Z</time>
      </trkpt>
      <trkpt lat="47.41069" lon="6.70425">
        <ele>471</ele>
        <time>2014-01-25T14:02:50.144Z</time>
      </trkpt>
      <trkpt lat="47.41062" lon="6.70417">
        <ele>471</ele>
        <time>2014-01-25T14:02:55.143Z</time>
      </trkpt>
      <trkpt lat="47.41056" lon="6.70409">
        <ele>471</ele>
        <time>2014-01-25T14:03:03.672Z</time>
      </trkpt>
      <trkpt lat="47.41047" lon="6.70402">
        <ele>473</ele>
        <time>2014-01-25T14:03:05.120Z</time>
      </trkpt>
      <trkpt lat="47.41034" lon="6.70399">
        <ele>474</ele>
        <time>2014-01-25T14:03:10.039Z</time>
      </trkpt>
      <trkpt lat="47.41017" lon="6.70391">
        <ele>476</ele>
        <time>2014-01-25T14:03:20.076Z</time>
      </trkpt>
      <trkpt lat="47.41017" lon="6.70391">
        <ele>476</ele>
        <time>2014-01-25T14:03:20.076Z</time>
      </trkpt>
      <trkpt lat="47.40994" lon="6.70384">
        <ele>480</ele>
        <time>2014-01-25T14:03:30.171Z</time>
      </trkpt>
      <trkpt lat="47.40982" lon="6.7038">
        <ele>481</ele>
        <time>2014-01-25T14:03:35.195Z</time>
      </trkpt>
      <trkpt lat="47.40971" lon="6.70378">
        <ele>483</ele>
        <time>2014-01-25T14:03:40.177Z</time>
      </trkpt>
      <trkpt lat="47.40959" lon="6.70385">
        <ele>486</ele>
        <time>2014-01-25T14:03:45.242Z</time>
      </trkpt>
      <trkpt lat="47.40943" lon="6.70392">
        <ele>485</ele>
        <time>2014-01-25T14:03:50.169Z</time>
      </trkpt>
      <trkpt lat="47.40935" lon="6.70403">
        <ele>483</ele>
        <time>2014-01-25T14:03:55.245Z</time>
      </trkpt>
      <trkpt lat="47.40946" lon="6.70434">
        <ele>485</ele>
        <time>2014-01-25T14:04:05.251Z</time>
      </trkpt>
      <trkpt lat="47.4095" lon="6.70451">
        <ele>485</ele>
        <time>2014-01-25T14:04:10.169Z</time>
      </trkpt>
      <trkpt lat="47.40953" lon="6.7046">
        <ele>486</ele>
        <time>2014-01-25T14:04:15.246Z</time>
      </trkpt>
      <trkpt lat="47.40952" lon="6.70473">
        <ele>487</ele>
        <time>2014-01-25T14:04:20.166Z</time>
      </trkpt>
      <trkpt lat="47.4095" lon="6.70482">
        <ele>487</ele>
        <time>2014-01-25T14:04:25.242Z</time>
      </trkpt>
      <trkpt lat="47.40947" lon="6.70495">
        <ele>487</ele>
        <time>2014-01-25T14:04:30.245Z</time>
      </trkpt>
      <trkpt lat="47.40947" lon="6.7051">
        <ele>487</ele>
        <time>2014-01-25T14:04:35.172Z</time>
      </trkpt>
      <trkpt lat="47.40946" lon="6.70524">
        <ele>486</ele>
        <time>2014-01-25T14:04:40.248Z</time>
      </trkpt>
      <trkpt lat="47.40946" lon="6.70538">
        <ele>486</ele>
        <time>2014-01-25T14:04:45.174Z</time>
      </trkpt>
      <trkpt lat="47.40947" lon="6.7055">
        <ele>487</ele>
        <time>2014-01-25T14:04:50.230Z</time>
      </trkpt>
      <trkpt lat="47.40949" lon="6.70564">
        <ele>487</ele>
        <time>2014-01-25T14:04:55.159Z</time>
      </trkpt>
      <trkpt lat="47.40951" lon="6.70581">
        <ele>487</ele>
        <time>2014-01-25T14:05:00.215Z</time>
      </trkpt>
      <trkpt lat="47.40951" lon="6.70597">
        <ele>489</ele>
        <time>2014-01-25T14:05:05.156Z</time>
      </trkpt>
      <trkpt lat="47.4095" lon="6.70612">
        <ele>491</ele>
        <time>2014-01-25T14:05:10.247Z</time>
      </trkpt>
      <trkpt lat="47.40949" lon="6.70627">
        <ele>493</ele>
        <time>2014-01-25T14:05:15.173Z</time>
      </trkpt>
      <trkpt lat="47.40948" lon="6.70646">
        <ele>495</ele>
        <time>2014-01-25T14:05:20.226Z</time>
      </trkpt>
      <trkpt lat="47.40947" lon="6.70664">
        <ele>496</ele>
        <time>2014-01-25T14:05:25.169Z</time>
      </trkpt>
      <trkpt lat="47.40946" lon="6.70683">
        <ele>496</ele>
        <time>2014-01-25T14:05:30.209Z</time>
      </trkpt>
      <trkpt lat="47.40946" lon="6.70704">
        <ele>495</ele>
        <time>2014-01-25T14:05:35.179Z</time>
      </trkpt>
      <trkpt lat="47.40945" lon="6.70723">
        <ele>495</ele>
        <time>2014-01-25T14:05:40.249Z</time>
      </trkpt>
      <trkpt lat="47.40943" lon="6.70741">
        <ele>495</ele>
        <time>2014-01-25T14:05:45.174Z</time>
      </trkpt>
      <trkpt lat="47.40941" lon="6.70759">
        <ele>494</ele>
        <time>2014-01-25T14:05:50.244Z</time>
      </trkpt>
      <trkpt lat="47.40938" lon="6.70776">
        <ele>495</ele>
        <time>2014-01-25T14:05:55.171Z</time>
      </trkpt>
      <trkpt lat="47.40932" lon="6.70791">
        <ele>495</ele>
        <time>2014-01-25T14:06:00.254Z</time>
      </trkpt>
      <trkpt lat="47.40924" lon="6.70802">
        <ele>496</ele>
        <time>2014-01-25T14:06:05.173Z</time>
      </trkpt>
      <trkpt lat="47.40915" lon="6.70811">
        <ele>496</ele>
        <time>2014-01-25T14:06:10.169Z</time>
      </trkpt>
      <trkpt lat="47.40905" lon="6.70821">
        <ele>496</ele>
        <time>2014-01-25T14:06:15.244Z</time>
      </trkpt>
      <trkpt lat="47.40894" lon="6.70827">
        <ele>496</ele>
        <time>2014-01-25T14:06:20.182Z</time>
      </trkpt>
      <trkpt lat="47.40884" lon="6.70831">
        <ele>496</ele>
        <time>2014-01-25T14:06:25.249Z</time>
      </trkpt>
      <trkpt lat="47.40874" lon="6.70836">
        <ele>496</ele>
        <time>2014-01-25T14:06:30.171Z</time>
      </trkpt>
      <trkpt lat="47.40864" lon="6.70844">
        <ele>497</ele>
        <time>2014-01-25T14:06:35.245Z</time>
      </trkpt>
      <trkpt lat="47.40857" lon="6.70861">
        <ele>497</ele>
        <time>2014-01-25T14:06:40.173Z</time>
      </trkpt>
      <trkpt lat="47.40851" lon="6.70876">
        <ele>498</ele>
        <time>2014-01-25T14:06:45.244Z</time>
      </trkpt>
      <trkpt lat="47.40847" lon="6.70891">
        <ele>499</ele>
        <time>2014-01-25T14:06:50.166Z</time>
      </trkpt>
      <trkpt lat="47.40845" lon="6.70906">
        <ele>500</ele>
        <time>2014-01-25T14:06:55.246Z</time>
      </trkpt>
      <trkpt lat="47.40843" lon="6.70921">
        <ele>501</ele>
        <time>2014-01-25T14:07:00.185Z</time>
      </trkpt>
      <trkpt lat="47.40841" lon="6.70936">
        <ele>502</ele>
        <time>2014-01-25T14:07:05.243Z</time>
      </trkpt>
      <trkpt lat="47.40838" lon="6.7095">
        <ele>503</ele>
        <time>2014-01-25T14:07:10.165Z</time>
      </trkpt>
      <trkpt lat="47.40832" lon="6.70963">
        <ele>503</ele>
        <time>2014-01-25T14:07:15.244Z</time>
      </trkpt>
      <trkpt lat="47.40823" lon="6.70971">
        <ele>504</ele>
        <time>2014-01-25T14:07:20.175Z</time>
      </trkpt>
      <trkpt lat="47.40812" lon="6.70973">
        <ele>504</ele>
        <time>2014-01-25T14:07:25.243Z</time>
      </trkpt>
      <trkpt lat="47.40801" lon="6.70976">
        <ele>505</ele>
        <time>2014-01-25T14:07:30.173Z</time>
      </trkpt>
      <trkpt lat="47.40792" lon="6.70977">
        <ele>506</ele>
        <time>2014-01-25T14:07:35.171Z</time>
      </trkpt>
      <trkpt lat="47.40782" lon="6.70975">
        <ele>507</ele>
        <time>2014-01-25T14:07:40.242Z</time>
      </trkpt>
      <trkpt lat="47.40773" lon="6.70971">
        <ele>508</ele>
        <time>2014-01-25T14:07:45.171Z</time>
      </trkpt>
      <trkpt lat="47.40766" lon="6.70967">
        <ele>510</ele>
        <time>2014-01-25T14:07:50.245Z</time>
      </trkpt>
      <trkpt lat="47.40758" lon="6.70962">
        <ele>511</ele>
        <time>2014-01-25T14:07:55.170Z</time>
      </trkpt>
      <trkpt lat="47.40748" lon="6.70957">
        <ele>512</ele>
        <time>2014-01-25T14:08:00.156Z</time>
      </trkpt>
      <trkpt lat="47.40737" lon="6.70952">
        <ele>513</ele>
        <time>2014-01-25T14:08:05.207Z</time>
      </trkpt>
      <trkpt lat="47.40727" lon="6.70946">
        <ele>514</ele>
        <time>2014-01-25T14:08:10.185Z</time>
      </trkpt>
      <trkpt lat="47.40716" lon="6.70941">
        <ele>515</ele>
        <time>2014-01-25T14:08:15.245Z</time>
      </trkpt>
      <trkpt lat="47.40706" lon="6.70934">
        <ele>516</ele>
        <time>2014-01-25T14:08:20.168Z</time>
      </trkpt>
      <trkpt lat="47.40697" lon="6.70926">
        <ele>518</ele>
        <time>2014-01-25T14:08:25.242Z</time>
      </trkpt>
      <trkpt lat="47.40688" lon="6.70918">
        <ele>518</ele>
        <time>2014-01-25T14:08:30.168Z</time>
      </trkpt>
      <trkpt lat="47.40675" lon="6.70911">
        <ele>519</ele>
        <time>2014-01-25T14:08:35.231Z</time>
      </trkpt>
      <trkpt lat="47.40664" lon="6.70903">
        <ele>519</ele>
        <time>2014-01-25T14:08:40.242Z</time>
      </trkpt>
      <trkpt lat="47.40655" lon="6.70896">
        <ele>519</ele>
        <time>2014-01-25T14:08:45.173Z</time>
      </trkpt>
      <trkpt lat="47.40646" lon="6.70889">
        <ele>520</ele>
        <time>2014-01-25T14:08:50.244Z</time>
      </trkpt>
      <trkpt lat="47.40638" lon="6.70881">
        <ele>520</ele>
        <time>2014-01-25T14:08:55.176Z</time>
      </trkpt>
      <trkpt lat="47.40628" lon="6.70872">
        <ele>520</ele>
        <time>2014-01-25T14:09:00.218Z</time>
      </trkpt>
      <trkpt lat="47.40617" lon="6.70863">
        <ele>521</ele>
        <time>2014-01-25T14:09:05.244Z</time>
      </trkpt>
      <trkpt lat="47.40609" lon="6.70854">
        <ele>523</ele>
        <time>2014-01-25T14:09:10.171Z</time>
      </trkpt>
      <trkpt lat="47.406" lon="6.70845">
        <ele>522</ele>
        <time>2014-01-25T14:09:15.245Z</time>
      </trkpt>
      <trkpt lat="47.40586" lon="6.70837">
        <ele>522</ele>
        <time>2014-01-25T14:09:20.176Z</time>
      </trkpt>
      <trkpt lat="47.40573" lon="6.70831">
        <ele>522</ele>
        <time>2014-01-25T14:09:25.248Z</time>
      </trkpt>
      <trkpt lat="47.4056" lon="6.70827">
        <ele>522</ele>
        <time>2014-01-25T14:09:30.172Z</time>
      </trkpt>
      <trkpt lat="47.40547" lon="6.70827">
        <ele>522</ele>
        <time>2014-01-25T14:09:35.242Z</time>
      </trkpt>
      <trkpt lat="47.40536" lon="6.70828">
        <ele>522</ele>
        <time>2014-01-25T14:09:40.157Z</time>
      </trkpt>
      <trkpt lat="47.40525" lon="6.70831">
        <ele>521</ele>
        <time>2014-01-25T14:09:45.228Z</time>
      </trkpt>
      <trkpt lat="47.40513" lon="6.70839">
        <ele>522</ele>
        <time>2014-01-25T14:09:50.159Z</time>
      </trkpt>
      <trkpt lat="47.40502" lon="6.70849">
        <ele>523</ele>
        <time>2014-01-25T14:09:55.248Z</time>
      </trkpt>
      <trkpt lat="47.40469" lon="6.70919">
        <ele>527</ele>
        <time>2014-01-25T14:10:20.144Z</time>
      </trkpt>
      <trkpt lat="47.40466" lon="6.70934">
        <ele>528</ele>
        <time>2014-01-25T14:10:25.232Z</time>
      </trkpt>
      <trkpt lat="47.40463" lon="6.70951">
        <ele>529</ele>
        <time>2014-01-25T14:10:30.155Z</time>
      </trkpt>
      <trkpt lat="47.40461" lon="6.70969">
        <ele>530</ele>
        <time>2014-01-25T14:10:35.178Z</time>
      </trkpt>
      <trkpt lat="47.40458" lon="6.70984">
        <ele>530</ele>
        <time>2014-01-25T14:10:40.243Z</time>
      </trkpt>
      <trkpt lat="47.40452" lon="6.70999">
        <ele>531</ele>
        <time>2014-01-25T14:10:45.171Z</time>
      </trkpt>
      <trkpt lat="47.40445" lon="6.71012">
        <ele>532</ele>
        <time>2014-01-25T14:10:50.247Z</time>
      </trkpt>
      <trkpt lat="47.4044" lon="6.71027">
        <ele>533</ele>
        <time>2014-01-25T14:10:55.175Z</time>
      </trkpt>
      <trkpt lat="47.40442" lon="6.71078">
        <ele>535</ele>
        <time>2014-01-25T14:11:10.179Z</time>
      </trkpt>
      <trkpt lat="47.40443" lon="6.71093">
        <ele>538</ele>
        <time>2014-01-25T14:11:15.175Z</time>
      </trkpt>
      <trkpt lat="47.40444" lon="6.7111">
        <ele>540</ele>
        <time>2014-01-25T14:11:20.245Z</time>
      </trkpt>
      <trkpt lat="47.40444" lon="6.71127">
        <ele>540</ele>
        <time>2014-01-25T14:11:25.185Z</time>
      </trkpt>
      <trkpt lat="47.40445" lon="6.71145">
        <ele>541</ele>
        <time>2014-01-25T14:11:30.243Z</time>
      </trkpt>
      <trkpt lat="47.40447" lon="6.71161">
        <ele>541</ele>
        <time>2014-01-25T14:11:35.175Z</time>
      </trkpt>
      <trkpt lat="47.4045" lon="6.71178">
        <ele>542</ele>
        <time>2014-01-25T14:11:40.183Z</time>
      </trkpt>
      <trkpt lat="47.40454" lon="6.71196">
        <ele>542</ele>
        <time>2014-01-25T14:11:45.469Z</time>
      </trkpt>
      <trkpt lat="47.40457" lon="6.71213">
        <ele>542</ele>
        <time>2014-01-25T14:11:50.176Z</time>
      </trkpt>
      <trkpt lat="47.4046" lon="6.71229">
        <ele>543</ele>
        <time>2014-01-25T14:11:55.245Z</time>
      </trkpt>
      <trkpt lat="47.40461" lon="6.71264">
        <ele>544</ele>
        <time>2014-01-25T14:12:07.164Z</time>
      </trkpt>
      <trkpt lat="47.40459" lon="6.71282">
        <ele>545</ele>
        <time>2014-01-25T14:12:10.177Z</time>
      </trkpt>
      <trkpt lat="47.40456" lon="6.71298">
        <ele>546</ele>
        <time>2014-01-25T14:12:15.176Z</time>
      </trkpt>
      <trkpt lat="47.40452" lon="6.71312">
        <ele>547</ele>
        <time>2014-01-25T14:12:20.183Z</time>
      </trkpt>
      <trkpt lat="47.40447" lon="6.71327">
        <ele>547</ele>
        <time>2014-01-25T14:12:25.254Z</time>
      </trkpt>
      <trkpt lat="47.40439" lon="6.71338">
        <ele>548</ele>
        <time>2014-01-25T14:12:30.249Z</time>
      </trkpt>
      <trkpt lat="47.40431" lon="6.71349">
        <ele>548</ele>
        <time>2014-01-25T14:12:35.176Z</time>
      </trkpt>
      <trkpt lat="47.40423" lon="6.71359">
        <ele>548</ele>
        <time>2014-01-25T14:12:40.246Z</time>
      </trkpt>
      <trkpt lat="47.40413" lon="6.71367">
        <ele>548</ele>
        <time>2014-01-25T14:12:45.180Z</time>
      </trkpt>
      <trkpt lat="47.40404" lon="6.71376">
        <ele>549</ele>
        <time>2014-01-25T14:12:50.235Z</time>
      </trkpt>
      <trkpt lat="47.40394" lon="6.71382">
        <ele>550</ele>
        <time>2014-01-25T14:12:55.180Z</time>
      </trkpt>
      <trkpt lat="47.40334" lon="6.71366">
        <ele>552</ele>
        <time>2014-01-25T14:13:20.232Z</time>
      </trkpt>
      <trkpt lat="47.40323" lon="6.71356">
        <ele>552</ele>
        <time>2014-01-25T14:13:25.173Z</time>
      </trkpt>
      <trkpt lat="47.40312" lon="6.71345">
        <ele>553</ele>
        <time>2014-01-25T14:13:30.249Z</time>
      </trkpt>
      <trkpt lat="47.40301" lon="6.71332">
        <ele>553</ele>
        <time>2014-01-25T14:13:35.173Z</time>
      </trkpt>
      <trkpt lat="47.4029" lon="6.71321">
        <ele>554</ele>
        <time>2014-01-25T14:13:40.231Z</time>
      </trkpt>
      <trkpt lat="47.40278" lon="6.7131">
        <ele>554</ele>
        <time>2014-01-25T14:13:45.172Z</time>
      </trkpt>
      <trkpt lat="47.40265" lon="6.71301">
        <ele>554</ele>
        <time>2014-01-25T14:13:50.214Z</time>
      </trkpt>
      <trkpt lat="47.40254" lon="6.71292">
        <ele>554</ele>
        <time>2014-01-25T14:13:55.180Z</time>
      </trkpt>
      <trkpt lat="47.40242" lon="6.71283">
        <ele>555</ele>
        <time>2014-01-25T14:14:00.261Z</time>
      </trkpt>
      <trkpt lat="47.40231" lon="6.71275">
        <ele>556</ele>
        <time>2014-01-25T14:14:05.181Z</time>
      </trkpt>
      <trkpt lat="47.40218" lon="6.71267">
        <ele>557</ele>
        <time>2014-01-25T14:14:10.244Z</time>
      </trkpt>
      <trkpt lat="47.40205" lon="6.71262">
        <ele>557</ele>
        <time>2014-01-25T14:14:15.177Z</time>
      </trkpt>
      <trkpt lat="47.40191" lon="6.71262">
        <ele>557</ele>
        <time>2014-01-25T14:14:20.248Z</time>
      </trkpt>
      <trkpt lat="47.40179" lon="6.71267">
        <ele>558</ele>
        <time>2014-01-25T14:14:25.173Z</time>
      </trkpt>
      <trkpt lat="47.40166" lon="6.71269">
        <ele>558</ele>
        <time>2014-01-25T14:14:30.171Z</time>
      </trkpt>
      <trkpt lat="47.40153" lon="6.71268">
        <ele>560</ele>
        <time>2014-01-25T14:14:35.248Z</time>
      </trkpt>
      <trkpt lat="47.40142" lon="6.71262">
        <ele>561</ele>
        <time>2014-01-25T14:14:40.176Z</time>
      </trkpt>
      <trkpt lat="47.40131" lon="6.71257">
        <ele>561</ele>
        <time>2014-01-25T14:14:45.245Z</time>
      </trkpt>
      <trkpt lat="47.4012" lon="6.7125">
        <ele>562</ele>
        <time>2014-01-25T14:14:50.523Z</time>
      </trkpt>
      <trkpt lat="47.40109" lon="6.71245">
        <ele>562</ele>
        <time>2014-01-25T14:14:55.168Z</time>
      </trkpt>
      <trkpt lat="47.40096" lon="6.71241">
        <ele>563</ele>
        <time>2014-01-25T14:15:00.441Z</time>
      </trkpt>
      <trkpt lat="47.40082" lon="6.71237">
        <ele>563</ele>
        <time>2014-01-25T14:15:05.176Z</time>
      </trkpt>
      <trkpt lat="47.40069" lon="6.71233">
        <ele>564</ele>
        <time>2014-01-25T14:15:10.246Z</time>
      </trkpt>
      <trkpt lat="47.40056" lon="6.71228">
        <ele>565</ele>
        <time>2014-01-25T14:15:15.184Z</time>
      </trkpt>
      <trkpt lat="47.40046" lon="6.71224">
        <ele>567</ele>
        <time>2014-01-25T14:15:20.246Z</time>
      </trkpt>
      <trkpt lat="47.40035" lon="6.71217">
        <ele>568</ele>
        <time>2014-01-25T14:15:25.178Z</time>
      </trkpt>
      <trkpt lat="47.40024" lon="6.71208">
        <ele>570</ele>
        <time>2014-01-25T14:15:30.248Z</time>
      </trkpt>
      <trkpt lat="47.40014" lon="6.71202">
        <ele>572</ele>
        <time>2014-01-25T14:15:35.183Z</time>
      </trkpt>
      <trkpt lat="47.40001" lon="6.71202">
        <ele>572</ele>
        <time>2014-01-25T14:15:40.247Z</time>
      </trkpt>
      <trkpt lat="47.39986" lon="6.7121">
        <ele>573</ele>
        <time>2014-01-25T14:15:45.250Z</time>
      </trkpt>
      <trkpt lat="47.39976" lon="6.71224">
        <ele>574</ele>
        <time>2014-01-25T14:15:50.168Z</time>
      </trkpt>
      <trkpt lat="47.39969" lon="6.71241">
        <ele>575</ele>
        <time>2014-01-25T14:15:55.255Z</time>
      </trkpt>
      <trkpt lat="47.39962" lon="6.71259">
        <ele>576</ele>
        <time>2014-01-25T14:16:00.231Z</time>
      </trkpt>
      <trkpt lat="47.39953" lon="6.71274">
        <ele>575</ele>
        <time>2014-01-25T14:16:05.172Z</time>
      </trkpt>
      <trkpt lat="47.39942" lon="6.71289">
        <ele>574</ele>
        <time>2014-01-25T14:16:10.246Z</time>
      </trkpt>
      <trkpt lat="47.39932" lon="6.71303">
        <ele>573</ele>
        <time>2014-01-25T14:16:15.173Z</time>
      </trkpt>
      <trkpt lat="47.39921" lon="6.71314">
        <ele>573</ele>
        <time>2014-01-25T14:16:20.236Z</time>
      </trkpt>
      <trkpt lat="47.39909" lon="6.7132">
        <ele>572</ele>
        <time>2014-01-25T14:16:25.172Z</time>
      </trkpt>
      <trkpt lat="47.39896" lon="6.7132">
        <ele>572</ele>
        <time>2014-01-25T14:16:30.229Z</time>
      </trkpt>
      <trkpt lat="47.39883" lon="6.71317">
        <ele>572</ele>
        <time>2014-01-25T14:16:35.243Z</time>
      </trkpt>
      <trkpt lat="47.39869" lon="6.71313">
        <ele>572</ele>
        <time>2014-01-25T14:16:40.174Z</time>
      </trkpt>
      <trkpt lat="47.39857" lon="6.71315">
        <ele>573</ele>
        <time>2014-01-25T14:16:45.249Z</time>
      </trkpt>
      <trkpt lat="47.39845" lon="6.71319">
        <ele>573</ele>
        <time>2014-01-25T14:16:50.170Z</time>
      </trkpt>
      <trkpt lat="47.39834" lon="6.71324">
        <ele>573</ele>
        <time>2014-01-25T14:16:55.249Z</time>
      </trkpt>
      <trkpt lat="47.39825" lon="6.71331">
        <ele>574</ele>
        <time>2014-01-25T14:17:00.188Z</time>
      </trkpt>
      <trkpt lat="47.39818" lon="6.71337">
        <ele>575</ele>
        <time>2014-01-25T14:17:05.246Z</time>
      </trkpt>
      <trkpt lat="47.39812" lon="6.71344">
        <ele>575</ele>
        <time>2014-01-25T14:17:10.173Z</time>
      </trkpt>
      <trkpt lat="47.39806" lon="6.71349">
        <ele>576</ele>
        <time>2014-01-25T14:17:15.247Z</time>
      </trkpt>
      <trkpt lat="47.39799" lon="6.71354">
        <ele>577</ele>
        <time>2014-01-25T14:17:20.173Z</time>
      </trkpt>
      <trkpt lat="47.39792" lon="6.7136">
        <ele>577</ele>
        <time>2014-01-25T14:17:25.174Z</time>
      </trkpt>
      <trkpt lat="47.39785" lon="6.71368">
        <ele>579</ele>
        <time>2014-01-25T14:17:30.248Z</time>
      </trkpt>
      <trkpt lat="47.39778" lon="6.71375">
        <ele>579</ele>
        <time>2014-01-25T14:17:35.189Z</time>
      </trkpt>
      <trkpt lat="47.3977" lon="6.71381">
        <ele>580</ele>
        <time>2014-01-25T14:17:40.244Z</time>
      </trkpt>
      <trkpt lat="47.39762" lon="6.71386">
        <ele>581</ele>
        <time>2014-01-25T14:17:45.178Z</time>
      </trkpt>
      <trkpt lat="47.39755" lon="6.71393">
        <ele>583</ele>
        <time>2014-01-25T14:17:50.247Z</time>
      </trkpt>
      <trkpt lat="47.39747" lon="6.71398">
        <ele>584</ele>
        <time>2014-01-25T14:17:55.370Z</time>
      </trkpt>
      <trkpt lat="47.3974" lon="6.71403">
        <ele>586</ele>
        <time>2014-01-25T14:18:04.420Z</time>
      </trkpt>
      <trkpt lat="47.39734" lon="6.71408">
        <ele>586</ele>
        <time>2014-01-25T14:18:05.170Z</time>
      </trkpt>
      <trkpt lat="47.39725" lon="6.71414">
        <ele>586</ele>
        <time>2014-01-25T14:18:10.242Z</time>
      </trkpt>
      <trkpt lat="47.39716" lon="6.71419">
        <ele>587</ele>
        <time>2014-01-25T14:18:15.168Z</time>
      </trkpt>
      <trkpt lat="47.39708" lon="6.71424">
        <ele>587</ele>
        <time>2014-01-25T14:18:20.245Z</time>
      </trkpt>
      <trkpt lat="47.39701" lon="6.7143">
        <ele>588</ele>
        <time>2014-01-25T14:18:25.179Z</time>
      </trkpt>
      <trkpt lat="47.39692" lon="6.71434">
        <ele>588</ele>
        <time>2014-01-25T14:18:30.249Z</time>
      </trkpt>
      <trkpt lat="47.39684" lon="6.71439">
        <ele>589</ele>
        <time>2014-01-25T14:18:35.169Z</time>
      </trkpt>
      <trkpt lat="47.39677" lon="6.71443">
        <ele>589</ele>
        <time>2014-01-25T14:18:40.249Z</time>
      </trkpt>
      <trkpt lat="47.39668" lon="6.71447">
        <ele>589</ele>
        <time>2014-01-25T14:18:45.170Z</time>
      </trkpt>
      <trkpt lat="47.3966" lon="6.71452">
        <ele>589</ele>
        <time>2014-01-25T14:18:50.367Z</time>
      </trkpt>
      <trkpt lat="47.39651" lon="6.71457">
        <ele>591</ele>
        <time>2014-01-25T14:18:55.169Z</time>
      </trkpt>
      <trkpt lat="47.39642" lon="6.71461">
        <ele>592</ele>
        <time>2014-01-25T14:19:00.176Z</time>
      </trkpt>
      <trkpt lat="47.39637" lon="6.71466">
        <ele>593</ele>
        <time>2014-01-25T14:19:05.170Z</time>
      </trkpt>
      <trkpt lat="47.39631" lon="6.71473">
        <ele>594</ele>
        <time>2014-01-25T14:19:10.243Z</time>
      </trkpt>
      <trkpt lat="47.39629" lon="6.71498">
        <ele>598</ele>
        <time>2014-01-25T14:19:20.175Z</time>
      </trkpt>
      <trkpt lat="47.39628" lon="6.7151">
        <ele>600</ele>
        <time>2014-01-25T14:19:25.244Z</time>
      </trkpt>
      <trkpt lat="47.39629" lon="6.7152">
        <ele>600</ele>
        <time>2014-01-25T14:19:30.175Z</time>
      </trkpt>
      <trkpt lat="47.39629" lon="6.71529">
        <ele>600</ele>
        <time>2014-01-25T14:19:35.247Z</time>
      </trkpt>
      <trkpt lat="47.39627" lon="6.71537">
        <ele>599</ele>
        <time>2014-01-25T14:19:40.176Z</time>
      </trkpt>
      <trkpt lat="47.39626" lon="6.71544">
        <ele>601</ele>
        <time>2014-01-25T14:19:45.242Z</time>
      </trkpt>
      <trkpt lat="47.39626" lon="6.71552">
        <ele>602</ele>
        <time>2014-01-25T14:19:50.173Z</time>
      </trkpt>
      <trkpt lat="47.39627" lon="6.71558">
        <ele>602</ele>
        <time>2014-01-25T14:19:55.244Z</time>
      </trkpt>
      <trkpt lat="47.39628" lon="6.71562">
        <ele>602</ele>
        <time>2014-01-25T14:20:15.145Z</time>
      </trkpt>
      <trkpt lat="47.39628" lon="6.71563">
        <ele>602</ele>
        <time>2014-01-25T14:20:20.201Z</time>
      </trkpt>
      <trkpt lat="47.39628" lon="6.71566">
        <ele>601</ele>
        <time>2014-01-25T14:20:25.168Z</time>
      </trkpt>
      <trkpt lat="47.39628" lon="6.71568">
        <ele>600</ele>
        <time>2014-01-25T14:20:30.245Z</time>
      </trkpt>
      <trkpt lat="47.39629" lon="6.71569">
        <ele>600</ele>
        <time>2014-01-25T14:20:35.168Z</time>
      </trkpt>
      <trkpt lat="47.39629" lon="6.71569">
        <ele>600</ele>
        <time>2014-01-25T14:20:40.246Z</time>
      </trkpt>
      <trkpt lat="47.39629" lon="6.71569">
        <ele>600</ele>
        <time>2014-01-25T14:20:45.176Z</time>
      </trkpt>
      <trkpt lat="47.39628" lon="6.71571">
        <ele>598</ele>
        <time>2014-01-25T14:20:50.214Z</time>
      </trkpt>
      <trkpt lat="47.39628" lon="6.71571">
        <ele>598</ele>
        <time>2014-01-25T14:20:55.168Z</time>
      </trkpt>
      <trkpt lat="47.39628" lon="6.71571">
        <ele>598</ele>
        <time>2014-01-25T14:21:03.001Z</time>
      </trkpt>
      <trkpt lat="47.39628" lon="6.71571">
        <ele>598</ele>
        <time>2014-01-25T14:21:05.166Z</time>
      </trkpt>
      <trkpt lat="47.39628" lon="6.71572">
        <ele>598</ele>
        <time>2014-01-25T14:21:10.250Z</time>
      </trkpt>
      <trkpt lat="47.39628" lon="6.71573">
        <ele>597</ele>
        <time>2014-01-25T14:21:15.168Z</time>
      </trkpt>
      <trkpt lat="47.39628" lon="6.71573">
        <ele>597</ele>
        <time>2014-01-25T14:21:20.168Z</time>
      </trkpt>
      <trkpt lat="47.39628" lon="6.71574">
        <ele>597</ele>
        <time>2014-01-25T14:21:25.243Z</time>
      </trkpt>
      <trkpt lat="47.39628" lon="6.71575">
        <ele>597</ele>
        <time>2014-01-25T14:21:30.168Z</time>
      </trkpt>
      <trkpt lat="47.39629" lon="6.71576">
        <ele>597</ele>
        <time>2014-01-25T14:21:35.248Z</time>
      </trkpt>
      <trkpt lat="47.39629" lon="6.71576">
        <ele>597</ele>
        <time>2014-01-25T14:21:40.170Z</time>
      </trkpt>
      <trkpt lat="47.39629" lon="6.71576">
        <ele>597</ele>
        <time>2014-01-25T14:21:45.193Z</time>
      </trkpt>
      <trkpt lat="47.39629" lon="6.71575">
        <ele>598</ele>
        <time>2014-01-25T14:21:50.141Z</time>
      </trkpt>
      <trkpt lat="47.39629" lon="6.71574">
        <ele>598</ele>
        <time>2014-01-25T14:22:10.420Z</time>
      </trkpt>
      <trkpt lat="47.39631" lon="6.71574">
        <ele>597</ele>
        <time>2014-01-25T14:22:20.480Z</time>
      </trkpt>
      <trkpt lat="47.39631" lon="6.71574">
        <ele>597</ele>
        <time>2014-01-25T14:22:25.178Z</time>
      </trkpt>
      <trkpt lat="47.39631" lon="6.71574">
        <ele>597</ele>
        <time>2014-01-25T14:22:30.245Z</time>
      </trkpt>
      <trkpt lat="47.39631" lon="6.71573">
        <ele>597</ele>
        <time>2014-01-25T14:22:35.170Z</time>
      </trkpt>
      <trkpt lat="47.39631" lon="6.71573">
        <ele>597</ele>
        <time>2014-01-25T14:22:40.245Z</time>
      </trkpt>
      <trkpt lat="47.39631" lon="6.71573">
        <ele>597</ele>
        <time>2014-01-25T14:22:45.173Z</time>
      </trkpt>
      <trkpt lat="47.39631" lon="6.71573">
        <ele>597</ele>
        <time>2014-01-25T14:22:50.227Z</time>
      </trkpt>
      <trkpt lat="47.39631" lon="6.71573">
        <ele>597</ele>
        <time>2014-01-25T14:22:55.154Z</time>
      </trkpt>
      <trkpt lat="47.39631" lon="6.71573">
        <ele>597</ele>
        <time>2014-01-25T14:23:05.234Z</time>
      </trkpt>
      <trkpt lat="47.39632" lon="6.71573">
        <ele>596</ele>
        <time>2014-01-25T14:23:10.175Z</time>
      </trkpt>
      <trkpt lat="47.39633" lon="6.71573">
        <ele>596</ele>
        <time>2014-01-25T14:23:15.242Z</time>
      </trkpt>
      <trkpt lat="47.39633" lon="6.71573">
        <ele>596</ele>
        <time>2014-01-25T14:23:20.166Z</time>
      </trkpt>
      <trkpt lat="47.39633" lon="6.71573">
        <ele>596</ele>
        <time>2014-01-25T14:23:25.192Z</time>
      </trkpt>
      <trkpt lat="47.39634" lon="6.71573">
        <ele>596</ele>
        <time>2014-01-25T14:23:30.173Z</time>
      </trkpt>
      <trkpt lat="47.39634" lon="6.71573">
        <ele>596</ele>
        <time>2014-01-25T14:23:35.243Z</time>
      </trkpt>
      <trkpt lat="47.39632" lon="6.71574">
        <ele>596</ele>
        <time>2014-01-25T14:23:40.170Z</time>
      </trkpt>
      <trkpt lat="47.3963" lon="6.71585">
        <ele>598</ele>
        <time>2014-01-25T14:23:45.245Z</time>
      </trkpt>
      <trkpt lat="47.3963" lon="6.71586">
        <ele>597</ele>
        <time>2014-01-25T14:23:50.179Z</time>
      </trkpt>
      <trkpt lat="47.39634" lon="6.71578">
        <ele>597</ele>
        <time>2014-01-25T14:23:55.245Z</time>
      </trkpt>
      <trkpt lat="47.39635" lon="6.71577">
        <ele>597</ele>
        <time>2014-01-25T14:24:00.232Z</time>
      </trkpt>
      <trkpt lat="47.39635" lon="6.71576">
        <ele>597</ele>
        <time>2014-01-25T14:24:05.243Z</time>
      </trkpt>
      <trkpt lat="47.39635" lon="6.71576">
        <ele>597</ele>
        <time>2014-01-25T14:24:10.166Z</time>
      </trkpt>
      <trkpt lat="47.39635" lon="6.71576">
        <ele>597</ele>
        <time>2014-01-25T14:24:15.244Z</time>
      </trkpt>
      <trkpt lat="47.39635" lon="6.71576">
        <ele>597</ele>
        <time>2014-01-25T14:24:20.187Z</time>
      </trkpt>
      <trkpt lat="47.39635" lon="6.71576">
        <ele>597</ele>
        <time>2014-01-25T14:24:25.193Z</time>
      </trkpt>
      <trkpt lat="47.39635" lon="6.71576">
        <ele>597</ele>
        <time>2014-01-25T14:24:30.160Z</time>
      </trkpt>
      <trkpt lat="47.39635" lon="6.71576">
        <ele>597</ele>
        <time>2014-01-25T14:24:35.244Z</time>
      </trkpt>
      <trkpt lat="47.39635" lon="6.71576">
        <ele>597</ele>
        <time>2014-01-25T14:24:40.172Z</time>
      </trkpt>
      <trkpt lat="47.39635" lon="6.71575">
        <ele>597</ele>
        <time>2014-01-25T14:24:45.255Z</time>
      </trkpt>
      <trkpt lat="47.39635" lon="6.71576">
        <ele>597</ele>
        <time>2014-01-25T14:24:50.166Z</time>
      </trkpt>
      <trkpt lat="47.39637" lon="6.71575">
        <ele>597</ele>
        <time>2014-01-25T14:24:55.212Z</time>
      </trkpt>
      <trkpt lat="47.39637" lon="6.71575">
        <ele>596</ele>
        <time>2014-01-25T14:25:00.407Z</time>
      </trkpt>
      <trkpt lat="47.39637" lon="6.71575">
        <ele>597</ele>
        <time>2014-01-25T14:25:05.250Z</time>
      </trkpt>
      <trkpt lat="47.39637" lon="6.71575">
        <ele>597</ele>
        <time>2014-01-25T14:25:10.174Z</time>
      </trkpt>
      <trkpt lat="47.39637" lon="6.71575">
        <ele>597</ele>
        <time>2014-01-25T14:25:15.246Z</time>
      </trkpt>
      <trkpt lat="47.39637" lon="6.71575">
        <ele>597</ele>
        <time>2014-01-25T14:25:20.174Z</time>
      </trkpt>
      <trkpt lat="47.39637" lon="6.71575">
        <ele>597</ele>
        <time>2014-01-25T14:25:25.227Z</time>
      </trkpt>
      <trkpt lat="47.39637" lon="6.71575">
        <ele>597</ele>
        <time>2014-01-25T14:25:30.176Z</time>
      </trkpt>
      <trkpt lat="47.39637" lon="6.71575">
        <ele>597</ele>
        <time>2014-01-25T14:25:35.247Z</time>
      </trkpt>
      <trkpt lat="47.39637" lon="6.71575">
        <ele>597</ele>
        <time>2014-01-25T14:25:40.171Z</time>
      </trkpt>
      <trkpt lat="47.39637" lon="6.71575">
        <ele>597</ele>
        <time>2014-01-25T14:25:45.250Z</time>
      </trkpt>
      <trkpt lat="47.39637" lon="6.71575">
        <ele>597</ele>
        <time>2014-01-25T14:25:50.168Z</time>
      </trkpt>
      <trkpt lat="47.39637" lon="6.71575">
        <ele>597</ele>
        <time>2014-01-25T14:25:55.214Z</time>
      </trkpt>
      <trkpt lat="47.39637" lon="6.71575">
        <ele>597</ele>
        <time>2014-01-25T14:26:00.204Z</time>
      </trkpt>
      <trkpt lat="47.39637" lon="6.71575">
        <ele>597</ele>
        <time>2014-01-25T14:26:05.179Z</time>
      </trkpt>
      <trkpt lat="47.39637" lon="6.71575">
        <ele>597</ele>
        <time>2014-01-25T14:26:10.229Z</time>
      </trkpt>
      <trkpt lat="47.39638" lon="6.71575">
        <ele>597</ele>
        <time>2014-01-25T14:26:15.165Z</time>
      </trkpt>
      <trkpt lat="47.39638" lon="6.71575">
        <ele>597</ele>
        <time>2014-01-25T14:26:20.243Z</time>
      </trkpt>
      <trkpt lat="47.39638" lon="6.71575">
        <ele>597</ele>
        <time>2014-01-25T14:26:25.173Z</time>
      </trkpt>
      <trkpt lat="47.39638" lon="6.71574">
        <ele>597</ele>
        <time>2014-01-25T14:26:30.209Z</time>
      </trkpt>
      <trkpt lat="47.39637" lon="6.71573">
        <ele>597</ele>
        <time>2014-01-25T14:26:35.176Z</time>
      </trkpt>
      <trkpt lat="47.39637" lon="6.71573">
        <ele>597</ele>
        <time>2014-01-25T14:26:40.244Z</time>
      </trkpt>
      <trkpt lat="47.39638" lon="6.71573">
        <ele>597</ele>
        <time>2014-01-25T14:26:45.170Z</time>
      </trkpt>
      <trkpt lat="47.39638" lon="6.71573">
        <ele>597</ele>
        <time>2014-01-25T14:26:50.238Z</time>
      </trkpt>
      <trkpt lat="47.39638" lon="6.71573">
        <ele>597</ele>
        <time>2014-01-25T14:26:55.169Z</time>
      </trkpt>
      <trkpt lat="47.39637" lon="6.71572">
        <ele>597</ele>
        <time>2014-01-25T14:27:00.226Z</time>
      </trkpt>
      <trkpt lat="47.39637" lon="6.71572">
        <ele>597</ele>
        <time>2014-01-25T14:27:05.179Z</time>
      </trkpt>
      <trkpt lat="47.39637" lon="6.71572">
        <ele>597</ele>
        <time>2014-01-25T14:27:10.241Z</time>
      </trkpt>
      <trkpt lat="47.39637" lon="6.71572">
        <ele>597</ele>
        <time>2014-01-25T14:27:15.165Z</time>
      </trkpt>
      <trkpt lat="47.39637" lon="6.71572">
        <ele>597</ele>
        <time>2014-01-25T14:27:20.247Z</time>
      </trkpt>
      <trkpt lat="47.39637" lon="6.71573">
        <ele>596</ele>
        <time>2014-01-25T14:27:25.168Z</time>
      </trkpt>
      <trkpt lat="47.39637" lon="6.71573">
        <ele>596</ele>
        <time>2014-01-25T14:27:30.402Z</time>
      </trkpt>
      <trkpt lat="47.39637" lon="6.71573">
        <ele>596</ele>
        <time>2014-01-25T14:27:35.171Z</time>
      </trkpt>
      <trkpt lat="47.39637" lon="6.71573">
        <ele>596</ele>
        <time>2014-01-25T14:27:40.243Z</time>
      </trkpt>
      <trkpt lat="47.39637" lon="6.71573">
        <ele>596</ele>
        <time>2014-01-25T14:27:45.174Z</time>
      </trkpt>
      <trkpt lat="47.39637" lon="6.71573">
        <ele>596</ele>
        <time>2014-01-25T14:27:50.252Z</time>
      </trkpt>
      <trkpt lat="47.39637" lon="6.71573">
        <ele>596</ele>
        <time>2014-01-25T14:27:55.171Z</time>
      </trkpt>
      <trkpt lat="47.39637" lon="6.71573">
        <ele>596</ele>
        <time>2014-01-25T14:28:20.252Z</time>
      </trkpt>
      <trkpt lat="47.39637" lon="6.71573">
        <ele>596</ele>
        <time>2014-01-25T14:28:25.169Z</time>
      </trkpt>
      <trkpt lat="47.39637" lon="6.71573">
        <ele>596</ele>
        <time>2014-01-25T14:28:30.245Z</time>
      </trkpt>
      <trkpt lat="47.39637" lon="6.71573">
        <ele>596</ele>
        <time>2014-01-25T14:28:35.173Z</time>
      </trkpt>
      <trkpt lat="47.39637" lon="6.71573">
        <ele>596</ele>
        <time>2014-01-25T14:28:40.241Z</time>
      </trkpt>
      <trkpt lat="47.39637" lon="6.71573">
        <ele>596</ele>
        <time>2014-01-25T14:28:45.180Z</time>
      </trkpt>
      <trkpt lat="47.39637" lon="6.71573">
        <ele>596</ele>
        <time>2014-01-25T14:28:50.211Z</time>
      </trkpt>
      <trkpt lat="47.39637" lon="6.71573">
        <ele>596</ele>
        <time>2014-01-25T14:28:55.171Z</time>
      </trkpt>
      <trkpt lat="47.39637" lon="6.71573">
        <ele>597</ele>
        <time>2014-01-25T14:29:00.230Z</time>
      </trkpt>
      <trkpt lat="47.39638" lon="6.71573">
        <ele>597</ele>
        <time>2014-01-25T14:29:05.173Z</time>
      </trkpt>
      <trkpt lat="47.39638" lon="6.71573">
        <ele>597</ele>
        <time>2014-01-25T14:29:10.221Z</time>
      </trkpt>
      <trkpt lat="47.39638" lon="6.71573">
        <ele>597</ele>
        <time>2014-01-25T14:29:15.167Z</time>
      </trkpt>
      <trkpt lat="47.39638" lon="6.71573">
        <ele>597</ele>
        <time>2014-01-25T14:29:20.139Z</time>
      </trkpt>
      <trkpt lat="47.39636" lon="6.71572">
        <ele>597</ele>
        <time>2014-01-25T14:29:25.243Z</time>
      </trkpt>
      <trkpt lat="47.39632" lon="6.71576">
        <ele>597</ele>
        <time>2014-01-25T14:29:30.176Z</time>
      </trkpt>
      <trkpt lat="47.3963" lon="6.71585">
        <ele>598</ele>
        <time>2014-01-25T14:29:35.244Z</time>
      </trkpt>
      <trkpt lat="47.39625" lon="6.71601">
        <ele>601</ele>
        <time>2014-01-25T14:29:40.174Z</time>
      </trkpt>
      <trkpt lat="47.39621" lon="6.71627">
        <ele>602</ele>
        <time>2014-01-25T14:29:45.232Z</time>
      </trkpt>
      <trkpt lat="47.39617" lon="6.71664">
        <ele>603</ele>
        <time>2014-01-25T14:29:50.176Z</time>
      </trkpt>
      <trkpt lat="47.39613" lon="6.71718">
        <ele>603</ele>
        <time>2014-01-25T14:29:55.246Z</time>
      </trkpt>
      <trkpt lat="47.39611" lon="6.71851">
        <ele>601</ele>
        <time>2014-01-25T14:30:06.651Z</time>
      </trkpt>
      <trkpt lat="47.39629" lon="6.71864">
        <ele>598</ele>
        <time>2014-01-25T14:30:10.177Z</time>
      </trkpt>
      <trkpt lat="47.39651" lon="6.71854">
        <ele>597</ele>
        <time>2014-01-25T14:30:15.243Z</time>
      </trkpt>
      <trkpt lat="47.3967" lon="6.71844">
        <ele>598</ele>
        <time>2014-01-25T14:30:20.174Z</time>
      </trkpt>
      <trkpt lat="47.39694" lon="6.71827">
        <ele>596</ele>
        <time>2014-01-25T14:30:25.225Z</time>
      </trkpt>
      <trkpt lat="47.39716" lon="6.7182">
        <ele>594</ele>
        <time>2014-01-25T14:30:30.172Z</time>
      </trkpt>
      <trkpt lat="47.39741" lon="6.71825">
        <ele>590</ele>
        <time>2014-01-25T14:30:35.243Z</time>
      </trkpt>
      <trkpt lat="47.3977" lon="6.71839">
        <ele>588</ele>
        <time>2014-01-25T14:30:40.172Z</time>
      </trkpt>
      <trkpt lat="47.39799" lon="6.71853">
        <ele>586</ele>
        <time>2014-01-25T14:30:45.227Z</time>
      </trkpt>
      <trkpt lat="47.39828" lon="6.71879">
        <ele>585</ele>
        <time>2014-01-25T14:30:50.170Z</time>
      </trkpt>
      <trkpt lat="47.39867" lon="6.71908">
        <ele>581</ele>
        <time>2014-01-25T14:30:55.228Z</time>
      </trkpt>
      <trkpt lat="47.39921" lon="6.71923">
        <ele>573</ele>
        <time>2014-01-25T14:31:02.601Z</time>
      </trkpt>
      <trkpt lat="47.39973" lon="6.71942">
        <ele>569</ele>
        <time>2014-01-25T14:31:05.170Z</time>
      </trkpt>
      <trkpt lat="47.4002" lon="6.71962">
        <ele>564</ele>
        <time>2014-01-25T14:31:10.286Z</time>
      </trkpt>
      <trkpt lat="47.40064" lon="6.71973">
        <ele>561</ele>
        <time>2014-01-25T14:31:15.198Z</time>
      </trkpt>
      <trkpt lat="47.40104" lon="6.7194">
        <ele>558</ele>
        <time>2014-01-25T14:31:20.169Z</time>
      </trkpt>
      <trkpt lat="47.40123" lon="6.71932">
        <ele>557</ele>
        <time>2014-01-25T14:31:25.249Z</time>
      </trkpt>
      <trkpt lat="47.4012" lon="6.71956">
        <ele>556</ele>
        <time>2014-01-25T14:31:30.240Z</time>
      </trkpt>
      <trkpt lat="47.4012" lon="6.71998">
        <ele>556</ele>
        <time>2014-01-25T14:31:35.169Z</time>
      </trkpt>
      <trkpt lat="47.40117" lon="6.72049">
        <ele>556</ele>
        <time>2014-01-25T14:31:40.240Z</time>
      </trkpt>
      <trkpt lat="47.40116" lon="6.72103">
        <ele>555</ele>
        <time>2014-01-25T14:31:45.180Z</time>
      </trkpt>
      <trkpt lat="47.401" lon="6.72124">
        <ele>554</ele>
        <time>2014-01-25T14:31:50.245Z</time>
      </trkpt>
      <trkpt lat="47.40074" lon="6.72114">
        <ele>554</ele>
        <time>2014-01-25T14:31:55.165Z</time>
      </trkpt>
      <trkpt lat="47.40002" lon="6.72142">
        <ele>553</ele>
        <time>2014-01-25T14:32:20.173Z</time>
      </trkpt>
      <trkpt lat="47.40039" lon="6.72189">
        <ele>554</ele>
        <time>2014-01-25T14:32:25.239Z</time>
      </trkpt>
      <trkpt lat="47.40068" lon="6.72235">
        <ele>553</ele>
        <time>2014-01-25T14:32:30.155Z</time>
      </trkpt>
      <trkpt lat="47.40103" lon="6.72274">
        <ele>549</ele>
        <time>2014-01-25T14:32:35.243Z</time>
      </trkpt>
      <trkpt lat="47.4014" lon="6.72301">
        <ele>542</ele>
        <time>2014-01-25T14:32:40.171Z</time>
      </trkpt>
      <trkpt lat="47.40182" lon="6.72319">
        <ele>536</ele>
        <time>2014-01-25T14:32:45.239Z</time>
      </trkpt>
      <trkpt lat="47.40236" lon="6.72326">
        <ele>529</ele>
        <time>2014-01-25T14:32:50.164Z</time>
      </trkpt>
      <trkpt lat="47.4029" lon="6.72341">
        <ele>522</ele>
        <time>2014-01-25T14:32:55.322Z</time>
      </trkpt>
      <trkpt lat="47.40339" lon="6.72371">
        <ele>516</ele>
        <time>2014-01-25T14:33:00.219Z</time>
      </trkpt>
      <trkpt lat="47.40379" lon="6.72389">
        <ele>511</ele>
        <time>2014-01-25T14:33:05.238Z</time>
      </trkpt>
      <trkpt lat="47.4042" lon="6.72394">
        <ele>506</ele>
        <time>2014-01-25T14:33:10.162Z</time>
      </trkpt>
      <trkpt lat="47.40456" lon="6.7241">
        <ele>501</ele>
        <time>2014-01-25T14:33:15.244Z</time>
      </trkpt>
      <trkpt lat="47.40492" lon="6.72426">
        <ele>498</ele>
        <time>2014-01-25T14:33:20.164Z</time>
      </trkpt>
      <trkpt lat="47.40516" lon="6.72446">
        <ele>493</ele>
        <time>2014-01-25T14:33:25.243Z</time>
      </trkpt>
      <trkpt lat="47.40526" lon="6.72475">
        <ele>494</ele>
        <time>2014-01-25T14:33:30.170Z</time>
      </trkpt>
      <trkpt lat="47.40528" lon="6.72509">
        <ele>495</ele>
        <time>2014-01-25T14:33:35.177Z</time>
      </trkpt>
      <trkpt lat="47.40528" lon="6.72538">
        <ele>496</ele>
        <time>2014-01-25T14:33:40.245Z</time>
      </trkpt>
      <trkpt lat="47.40524" lon="6.72562">
        <ele>499</ele>
        <time>2014-01-25T14:33:45.371Z</time>
      </trkpt>
      <trkpt lat="47.40528" lon="6.72586">
        <ele>501</ele>
        <time>2014-01-25T14:33:50.243Z</time>
      </trkpt>
      <trkpt lat="47.40528" lon="6.72615">
        <ele>503</ele>
        <time>2014-01-25T14:33:55.164Z</time>
      </trkpt>
      <trkpt lat="47.40531" lon="6.72648">
        <ele>504</ele>
        <time>2014-01-25T14:34:00.262Z</time>
      </trkpt>
      <trkpt lat="47.40534" lon="6.72679">
        <ele>504</ele>
        <time>2014-01-25T14:34:05.175Z</time>
      </trkpt>
      <trkpt lat="47.40546" lon="6.72707">
        <ele>502</ele>
        <time>2014-01-25T14:34:10.244Z</time>
      </trkpt>
      <trkpt lat="47.4056" lon="6.72727">
        <ele>500</ele>
        <time>2014-01-25T14:34:15.174Z</time>
      </trkpt>
      <trkpt lat="47.40565" lon="6.72731">
        <ele>501</ele>
        <time>2014-01-25T14:34:20.249Z</time>
      </trkpt>
      <trkpt lat="47.40568" lon="6.72739">
        <ele>503</ele>
        <time>2014-01-25T14:34:25.169Z</time>
      </trkpt>
      <trkpt lat="47.40569" lon="6.72749">
        <ele>505</ele>
        <time>2014-01-25T14:34:30.244Z</time>
      </trkpt>
      <trkpt lat="47.40571" lon="6.72761">
        <ele>505</ele>
        <time>2014-01-25T14:34:35.293Z</time>
      </trkpt>
      <trkpt lat="47.40573" lon="6.72773">
        <ele>503</ele>
        <time>2014-01-25T14:34:40.217Z</time>
      </trkpt>
      <trkpt lat="47.40575" lon="6.72783">
        <ele>502</ele>
        <time>2014-01-25T14:34:45.173Z</time>
      </trkpt>
      <trkpt lat="47.40577" lon="6.72795">
        <ele>501</ele>
        <time>2014-01-25T14:34:50.214Z</time>
      </trkpt>
      <trkpt lat="47.40581" lon="6.72809">
        <ele>499</ele>
        <time>2014-01-25T14:34:55.158Z</time>
      </trkpt>
      <trkpt lat="47.40585" lon="6.7282">
        <ele>499</ele>
        <time>2014-01-25T14:35:00.255Z</time>
      </trkpt>
      <trkpt lat="47.40589" lon="6.72833">
        <ele>498</ele>
        <time>2014-01-25T14:35:05.176Z</time>
      </trkpt>
      <trkpt lat="47.40594" lon="6.72843">
        <ele>498</ele>
        <time>2014-01-25T14:35:10.240Z</time>
      </trkpt>
      <trkpt lat="47.406" lon="6.72852">
        <ele>498</ele>
        <time>2014-01-25T14:35:15.166Z</time>
      </trkpt>
      <trkpt lat="47.40603" lon="6.72863">
        <ele>499</ele>
        <time>2014-01-25T14:35:20.244Z</time>
      </trkpt>
      <trkpt lat="47.40608" lon="6.72874">
        <ele>499</ele>
        <time>2014-01-25T14:35:25.165Z</time>
      </trkpt>
      <trkpt lat="47.40612" lon="6.72884">
        <ele>501</ele>
        <time>2014-01-25T14:35:30.243Z</time>
      </trkpt>
      <trkpt lat="47.40615" lon="6.72894">
        <ele>502</ele>
        <time>2014-01-25T14:35:35.173Z</time>
      </trkpt>
      <trkpt lat="47.4062" lon="6.72903">
        <ele>503</ele>
        <time>2014-01-25T14:35:40.243Z</time>
      </trkpt>
      <trkpt lat="47.40625" lon="6.72912">
        <ele>503</ele>
        <time>2014-01-25T14:35:45.167Z</time>
      </trkpt>
      <trkpt lat="47.40629" lon="6.72922">
        <ele>503</ele>
        <time>2014-01-25T14:35:50.246Z</time>
      </trkpt>
      <trkpt lat="47.40634" lon="6.7293">
        <ele>505</ele>
        <time>2014-01-25T14:35:55.166Z</time>
      </trkpt>
      <trkpt lat="47.40637" lon="6.7294">
        <ele>507</ele>
        <time>2014-01-25T14:36:00.205Z</time>
      </trkpt>
      <trkpt lat="47.40642" lon="6.72945">
        <ele>509</ele>
        <time>2014-01-25T14:36:05.167Z</time>
      </trkpt>
      <trkpt lat="47.40646" lon="6.72951">
        <ele>511</ele>
        <time>2014-01-25T14:36:10.241Z</time>
      </trkpt>
      <trkpt lat="47.40651" lon="6.72958">
        <ele>512</ele>
        <time>2014-01-25T14:36:15.133Z</time>
      </trkpt>
      <trkpt lat="47.40655" lon="6.72967">
        <ele>514</ele>
        <time>2014-01-25T14:36:20.241Z</time>
      </trkpt>
      <trkpt lat="47.40657" lon="6.7298">
        <ele>515</ele>
        <time>2014-01-25T14:36:25.166Z</time>
      </trkpt>
      <trkpt lat="47.40663" lon="6.72988">
        <ele>515</ele>
        <time>2014-01-25T14:36:30.239Z</time>
      </trkpt>
      <trkpt lat="47.40668" lon="6.72996">
        <ele>515</ele>
        <time>2014-01-25T14:36:35.161Z</time>
      </trkpt>
      <trkpt lat="47.40672" lon="6.73004">
        <ele>516</ele>
        <time>2014-01-25T14:36:40.236Z</time>
      </trkpt>
      <trkpt lat="47.40676" lon="6.73014">
        <ele>516</ele>
        <time>2014-01-25T14:36:45.164Z</time>
      </trkpt>
      <trkpt lat="47.40679" lon="6.73025">
        <ele>517</ele>
        <time>2014-01-25T14:36:50.247Z</time>
      </trkpt>
      <trkpt lat="47.40682" lon="6.73035">
        <ele>518</ele>
        <time>2014-01-25T14:36:55.173Z</time>
      </trkpt>
      <trkpt lat="47.40687" lon="6.73042">
        <ele>519</ele>
        <time>2014-01-25T14:37:00.177Z</time>
      </trkpt>
      <trkpt lat="47.40691" lon="6.73051">
        <ele>521</ele>
        <time>2014-01-25T14:37:05.227Z</time>
      </trkpt>
      <trkpt lat="47.40696" lon="6.73057">
        <ele>522</ele>
        <time>2014-01-25T14:37:10.166Z</time>
      </trkpt>
      <trkpt lat="47.407" lon="6.73062">
        <ele>524</ele>
        <time>2014-01-25T14:37:15.243Z</time>
      </trkpt>
      <trkpt lat="47.40703" lon="6.73072">
        <ele>526</ele>
        <time>2014-01-25T14:37:20.182Z</time>
      </trkpt>
      <trkpt lat="47.40706" lon="6.73082">
        <ele>527</ele>
        <time>2014-01-25T14:37:25.256Z</time>
      </trkpt>
      <trkpt lat="47.40708" lon="6.73092">
        <ele>528</ele>
        <time>2014-01-25T14:37:30.140Z</time>
      </trkpt>
      <trkpt lat="47.40712" lon="6.73099">
        <ele>530</ele>
        <time>2014-01-25T14:37:35.209Z</time>
      </trkpt>
      <trkpt lat="47.40716" lon="6.73108">
        <ele>531</ele>
        <time>2014-01-25T14:37:40.143Z</time>
      </trkpt>
      <trkpt lat="47.40721" lon="6.73121">
        <ele>532</ele>
        <time>2014-01-25T14:37:50.177Z</time>
      </trkpt>
      <trkpt lat="47.40726" lon="6.73129">
        <ele>531</ele>
        <time>2014-01-25T14:37:55.241Z</time>
      </trkpt>
      <trkpt lat="47.40726" lon="6.73129">
        <ele>531</ele>
        <time>2014-01-25T14:37:55.241Z</time>
      </trkpt>
      <trkpt lat="47.40731" lon="6.7315">
        <ele>534</ele>
        <time>2014-01-25T14:38:05.230Z</time>
      </trkpt>
      <trkpt lat="47.40733" lon="6.73163">
        <ele>535</ele>
        <time>2014-01-25T14:38:10.165Z</time>
      </trkpt>
      <trkpt lat="47.40735" lon="6.7317">
        <ele>536</ele>
        <time>2014-01-25T14:38:15.242Z</time>
      </trkpt>
      <trkpt lat="47.40737" lon="6.7318">
        <ele>537</ele>
        <time>2014-01-25T14:38:20.174Z</time>
      </trkpt>
      <trkpt lat="47.40739" lon="6.73188">
        <ele>538</ele>
        <time>2014-01-25T14:38:25.240Z</time>
      </trkpt>
      <trkpt lat="47.40742" lon="6.73198">
        <ele>538</ele>
        <time>2014-01-25T14:38:30.181Z</time>
      </trkpt>
      <trkpt lat="47.40744" lon="6.73207">
        <ele>539</ele>
        <time>2014-01-25T14:38:35.238Z</time>
      </trkpt>
      <trkpt lat="47.40746" lon="6.73214">
        <ele>541</ele>
        <time>2014-01-25T14:38:40.165Z</time>
      </trkpt>
      <trkpt lat="47.40748" lon="6.73222">
        <ele>543</ele>
        <time>2014-01-25T14:38:45.240Z</time>
      </trkpt>
      <trkpt lat="47.40751" lon="6.73233">
        <ele>543</ele>
        <time>2014-01-25T14:38:50.165Z</time>
      </trkpt>
      <trkpt lat="47.40752" lon="6.73243">
        <ele>543</ele>
        <time>2014-01-25T14:38:55.241Z</time>
      </trkpt>
      <trkpt lat="47.4076" lon="6.73282">
        <ele>544</ele>
        <time>2014-01-25T14:39:15.247Z</time>
      </trkpt>
      <trkpt lat="47.40762" lon="6.7329">
        <ele>546</ele>
        <time>2014-01-25T14:39:20.169Z</time>
      </trkpt>
      <trkpt lat="47.40764" lon="6.73298">
        <ele>546</ele>
        <time>2014-01-25T14:39:25.240Z</time>
      </trkpt>
      <trkpt lat="47.40766" lon="6.73307">
        <ele>546</ele>
        <time>2014-01-25T14:39:30.174Z</time>
      </trkpt>
      <trkpt lat="47.40769" lon="6.73319">
        <ele>546</ele>
        <time>2014-01-25T14:39:35.234Z</time>
      </trkpt>
      <trkpt lat="47.40771" lon="6.73327">
        <ele>548</ele>
        <time>2014-01-25T14:39:40.164Z</time>
      </trkpt>
      <trkpt lat="47.40772" lon="6.73339">
        <ele>548</ele>
        <time>2014-01-25T14:39:45.224Z</time>
      </trkpt>
      <trkpt lat="47.40773" lon="6.73348">
        <ele>548</ele>
        <time>2014-01-25T14:39:50.164Z</time>
      </trkpt>
      <trkpt lat="47.40775" lon="6.73358">
        <ele>549</ele>
        <time>2014-01-25T14:39:55.167Z</time>
      </trkpt>
      <trkpt lat="47.40779" lon="6.73383">
        <ele>553</ele>
        <time>2014-01-25T14:40:10.533Z</time>
      </trkpt>
      <trkpt lat="47.40781" lon="6.7339">
        <ele>552</ele>
        <time>2014-01-25T14:40:15.178Z</time>
      </trkpt>
      <trkpt lat="47.40783" lon="6.73401">
        <ele>551</ele>
        <time>2014-01-25T14:40:20.578Z</time>
      </trkpt>
      <trkpt lat="47.40785" lon="6.73412">
        <ele>550</ele>
        <time>2014-01-25T14:40:25.172Z</time>
      </trkpt>
      <trkpt lat="47.40786" lon="6.73422">
        <ele>550</ele>
        <time>2014-01-25T14:40:30.208Z</time>
      </trkpt>
      <trkpt lat="47.40788" lon="6.73429">
        <ele>551</ele>
        <time>2014-01-25T14:40:35.181Z</time>
      </trkpt>
      <trkpt lat="47.40791" lon="6.7344">
        <ele>553</ele>
        <time>2014-01-25T14:40:40.239Z</time>
      </trkpt>
      <trkpt lat="47.40795" lon="6.73451">
        <ele>553</ele>
        <time>2014-01-25T14:40:45.175Z</time>
      </trkpt>
      <trkpt lat="47.40796" lon="6.73461">
        <ele>554</ele>
        <time>2014-01-25T14:40:50.243Z</time>
      </trkpt>
      <trkpt lat="47.40796" lon="6.7347">
        <ele>556</ele>
        <time>2014-01-25T14:40:55.165Z</time>
      </trkpt>
      <trkpt lat="47.40797" lon="6.73501">
        <ele>559</ele>
        <time>2014-01-25T14:41:10.244Z</time>
      </trkpt>
      <trkpt lat="47.408" lon="6.73511">
        <ele>559</ele>
        <time>2014-01-25T14:41:15.183Z</time>
      </trkpt>
      <trkpt lat="47.40801" lon="6.73518">
        <ele>560</ele>
        <time>2014-01-25T14:41:20.204Z</time>
      </trkpt>
      <trkpt lat="47.40804" lon="6.73526">
        <ele>559</ele>
        <time>2014-01-25T14:41:25.153Z</time>
      </trkpt>
      <trkpt lat="47.40807" lon="6.73536">
        <ele>560</ele>
        <time>2014-01-25T14:41:30.229Z</time>
      </trkpt>
      <trkpt lat="47.4081" lon="6.73548">
        <ele>561</ele>
        <time>2014-01-25T14:41:35.153Z</time>
      </trkpt>
      <trkpt lat="47.40812" lon="6.73558">
        <ele>562</ele>
        <time>2014-01-25T14:41:40.242Z</time>
      </trkpt>
      <trkpt lat="47.40813" lon="6.73568">
        <ele>563</ele>
        <time>2014-01-25T14:41:45.154Z</time>
      </trkpt>
      <trkpt lat="47.40814" lon="6.73577">
        <ele>564</ele>
        <time>2014-01-25T14:41:50.198Z</time>
      </trkpt>
      <trkpt lat="47.40815" lon="6.73586">
        <ele>565</ele>
        <time>2014-01-25T14:41:55.152Z</time>
      </trkpt>
      <trkpt lat="47.40817" lon="6.73605">
        <ele>567</ele>
        <time>2014-01-25T14:42:05.169Z</time>
      </trkpt>
      <trkpt lat="47.40818" lon="6.73613">
        <ele>569</ele>
        <time>2014-01-25T14:42:10.248Z</time>
      </trkpt>
      <trkpt lat="47.40819" lon="6.73622">
        <ele>570</ele>
        <time>2014-01-25T14:42:15.174Z</time>
      </trkpt>
      <trkpt lat="47.40819" lon="6.73633">
        <ele>570</ele>
        <time>2014-01-25T14:42:20.209Z</time>
      </trkpt>
      <trkpt lat="47.4082" lon="6.73639">
        <ele>573</ele>
        <time>2014-01-25T14:42:25.164Z</time>
      </trkpt>
      <trkpt lat="47.40823" lon="6.73649">
        <ele>573</ele>
        <time>2014-01-25T14:42:30.247Z</time>
      </trkpt>
      <trkpt lat="47.40826" lon="6.73658">
        <ele>574</ele>
        <time>2014-01-25T14:42:35.169Z</time>
      </trkpt>
      <trkpt lat="47.40829" lon="6.73667">
        <ele>573</ele>
        <time>2014-01-25T14:42:40.220Z</time>
      </trkpt>
      <trkpt lat="47.4083" lon="6.73679">
        <ele>574</ele>
        <time>2014-01-25T14:42:45.183Z</time>
      </trkpt>
      <trkpt lat="47.40834" lon="6.73689">
        <ele>575</ele>
        <time>2014-01-25T14:42:50.246Z</time>
      </trkpt>
      <trkpt lat="47.40837" lon="6.73699">
        <ele>575</ele>
        <time>2014-01-25T14:42:55.172Z</time>
      </trkpt>
      <trkpt lat="47.40851" lon="6.73735">
        <ele>580</ele>
        <time>2014-01-25T14:43:15.251Z</time>
      </trkpt>
      <trkpt lat="47.40853" lon="6.73744">
        <ele>582</ele>
        <time>2014-01-25T14:43:20.171Z</time>
      </trkpt>
      <trkpt lat="47.40857" lon="6.73754">
        <ele>583</ele>
        <time>2014-01-25T14:43:25.201Z</time>
      </trkpt>
      <trkpt lat="47.40859" lon="6.7376">
        <ele>584</ele>
        <time>2014-01-25T14:43:30.170Z</time>
      </trkpt>
      <trkpt lat="47.40863" lon="6.73768">
        <ele>584</ele>
        <time>2014-01-25T14:43:35.243Z</time>
      </trkpt>
      <trkpt lat="47.40866" lon="6.73777">
        <ele>584</ele>
        <time>2014-01-25T14:43:40.169Z</time>
      </trkpt>
      <trkpt lat="47.40869" lon="6.73783">
        <ele>585</ele>
        <time>2014-01-25T14:43:45.246Z</time>
      </trkpt>
      <trkpt lat="47.40872" lon="6.7379">
        <ele>586</ele>
        <time>2014-01-25T14:43:50.175Z</time>
      </trkpt>
      <trkpt lat="47.40875" lon="6.73801">
        <ele>586</ele>
        <time>2014-01-25T14:43:55.216Z</time>
      </trkpt>
      <trkpt lat="47.40882" lon="6.73818">
        <ele>588</ele>
        <time>2014-01-25T14:44:05.248Z</time>
      </trkpt>
      <trkpt lat="47.40886" lon="6.73827">
        <ele>588</ele>
        <time>2014-01-25T14:44:10.173Z</time>
      </trkpt>
      <trkpt lat="47.40889" lon="6.73833">
        <ele>589</ele>
        <time>2014-01-25T14:44:15.243Z</time>
      </trkpt>
      <trkpt lat="47.40891" lon="6.73844">
        <ele>589</ele>
        <time>2014-01-25T14:44:20.166Z</time>
      </trkpt>
      <trkpt lat="47.40893" lon="6.73854">
        <ele>590</ele>
        <time>2014-01-25T14:44:25.248Z</time>
      </trkpt>
      <trkpt lat="47.40895" lon="6.73864">
        <ele>591</ele>
        <time>2014-01-25T14:44:30.178Z</time>
      </trkpt>
      <trkpt lat="47.40898" lon="6.73873">
        <ele>591</ele>
        <time>2014-01-25T14:44:35.245Z</time>
      </trkpt>
      <trkpt lat="47.409" lon="6.73882">
        <ele>592</ele>
        <time>2014-01-25T14:44:40.247Z</time>
      </trkpt>
      <trkpt lat="47.40901" lon="6.73891">
        <ele>593</ele>
        <time>2014-01-25T14:44:45.177Z</time>
      </trkpt>
      <trkpt lat="47.40905" lon="6.739">
        <ele>593</ele>
        <time>2014-01-25T14:44:50.198Z</time>
      </trkpt>
      <trkpt lat="47.40907" lon="6.73909">
        <ele>594</ele>
        <time>2014-01-25T14:44:55.162Z</time>
      </trkpt>
      <trkpt lat="47.40908" lon="6.73918">
        <ele>593</ele>
        <time>2014-01-25T14:45:01.092Z</time>
      </trkpt>
      <trkpt lat="47.40911" lon="6.73928">
        <ele>593</ele>
        <time>2014-01-25T14:45:05.392Z</time>
      </trkpt>
      <trkpt lat="47.40913" lon="6.73938">
        <ele>593</ele>
        <time>2014-01-25T14:45:10.209Z</time>
      </trkpt>
      <trkpt lat="47.40914" lon="6.73948">
        <ele>593</ele>
        <time>2014-01-25T14:45:15.163Z</time>
      </trkpt>
      <trkpt lat="47.40917" lon="6.73957">
        <ele>593</ele>
        <time>2014-01-25T14:45:20.244Z</time>
      </trkpt>
      <trkpt lat="47.40918" lon="6.73967">
        <ele>594</ele>
        <time>2014-01-25T14:45:25.161Z</time>
      </trkpt>
      <trkpt lat="47.40919" lon="6.73976">
        <ele>595</ele>
        <time>2014-01-25T14:45:30.209Z</time>
      </trkpt>
      <trkpt lat="47.40918" lon="6.73984">
        <ele>596</ele>
        <time>2014-01-25T14:45:35.164Z</time>
      </trkpt>
      <trkpt lat="47.40916" lon="6.73991">
        <ele>598</ele>
        <time>2014-01-25T14:45:40.244Z</time>
      </trkpt>
      <trkpt lat="47.40915" lon="6.73998">
        <ele>600</ele>
        <time>2014-01-25T14:45:45.172Z</time>
      </trkpt>
      <trkpt lat="47.40912" lon="6.74001">
        <ele>601</ele>
        <time>2014-01-25T14:45:50.244Z</time>
      </trkpt>
      <trkpt lat="47.40908" lon="6.74004">
        <ele>602</ele>
        <time>2014-01-25T14:45:55.162Z</time>
      </trkpt>
      <trkpt lat="47.40903" lon="6.74005">
        <ele>603</ele>
        <time>2014-01-25T14:46:00.205Z</time>
      </trkpt>
      <trkpt lat="47.40898" lon="6.74006">
        <ele>605</ele>
        <time>2014-01-25T14:46:05.173Z</time>
      </trkpt>
      <trkpt lat="47.40893" lon="6.74008">
        <ele>606</ele>
        <time>2014-01-25T14:46:10.240Z</time>
      </trkpt>
      <trkpt lat="47.4089" lon="6.74008">
        <ele>606</ele>
        <time>2014-01-25T14:46:15.151Z</time>
      </trkpt>
      <trkpt lat="47.40885" lon="6.74007">
        <ele>606</ele>
        <time>2014-01-25T14:46:20.238Z</time>
      </trkpt>
      <trkpt lat="47.40879" lon="6.74009">
        <ele>606</ele>
        <time>2014-01-25T14:46:25.170Z</time>
      </trkpt>
      <trkpt lat="47.40876" lon="6.74009">
        <ele>606</ele>
        <time>2014-01-25T14:46:30.238Z</time>
      </trkpt>
      <trkpt lat="47.40868" lon="6.7401">
        <ele>607</ele>
        <time>2014-01-25T14:46:35.224Z</time>
      </trkpt>
      <trkpt lat="47.40861" lon="6.74013">
        <ele>609</ele>
        <time>2014-01-25T14:46:40.178Z</time>
      </trkpt>
      <trkpt lat="47.40854" lon="6.74019">
        <ele>608</ele>
        <time>2014-01-25T14:46:45.243Z</time>
      </trkpt>
      <trkpt lat="47.40851" lon="6.74026">
        <ele>610</ele>
        <time>2014-01-25T14:46:50.178Z</time>
      </trkpt>
      <trkpt lat="47.40852" lon="6.74037">
        <ele>612</ele>
        <time>2014-01-25T14:46:55.186Z</time>
      </trkpt>
      <trkpt lat="47.40855" lon="6.74048">
        <ele>614</ele>
        <time>2014-01-25T14:47:00.224Z</time>
      </trkpt>
      <trkpt lat="47.40857" lon="6.74066">
        <ele>615</ele>
        <time>2014-01-25T14:47:10.167Z</time>
      </trkpt>
      <trkpt lat="47.40859" lon="6.74078">
        <ele>612</ele>
        <time>2014-01-25T14:47:15.251Z</time>
      </trkpt>
      <trkpt lat="47.40861" lon="6.74085">
        <ele>611</ele>
        <time>2014-01-25T14:47:20.187Z</time>
      </trkpt>
      <trkpt lat="47.4086" lon="6.74086">
        <ele>611</ele>
        <time>2014-01-25T14:47:25.248Z</time>
      </trkpt>
      <trkpt lat="47.40859" lon="6.74089">
        <ele>611</ele>
        <time>2014-01-25T14:47:30.181Z</time>
      </trkpt>
      <trkpt lat="47.40859" lon="6.74089">
        <ele>611</ele>
        <time>2014-01-25T14:47:30.181Z</time>
      </trkpt>
      <trkpt lat="47.4086" lon="6.7409">
        <ele>610</ele>
        <time>2014-01-25T14:47:40.172Z</time>
      </trkpt>
      <trkpt lat="47.40861" lon="6.74089">
        <ele>609</ele>
        <time>2014-01-25T14:47:45.251Z</time>
      </trkpt>
      <trkpt lat="47.40861" lon="6.7409">
        <ele>609</ele>
        <time>2014-01-25T14:47:50.182Z</time>
      </trkpt>
      <trkpt lat="47.40862" lon="6.74089">
        <ele>608</ele>
        <time>2014-01-25T14:47:55.246Z</time>
      </trkpt>
      <trkpt lat="47.40861" lon="6.74088">
        <ele>609</ele>
        <time>2014-01-25T14:48:15.163Z</time>
      </trkpt>
      <trkpt lat="47.40861" lon="6.74089">
        <ele>609</ele>
        <time>2014-01-25T14:48:20.247Z</time>
      </trkpt>
      <trkpt lat="47.40861" lon="6.74086">
        <ele>609</ele>
        <time>2014-01-25T14:48:25.182Z</time>
      </trkpt>
      <trkpt lat="47.40862" lon="6.74085">
        <ele>609</ele>
        <time>2014-01-25T14:48:30.247Z</time>
      </trkpt>
      <trkpt lat="47.40863" lon="6.74083">
        <ele>609</ele>
        <time>2014-01-25T14:48:35.168Z</time>
      </trkpt>
      <trkpt lat="47.40863" lon="6.74083">
        <ele>609</ele>
        <time>2014-01-25T14:48:40.222Z</time>
      </trkpt>
      <trkpt lat="47.40863" lon="6.74082">
        <ele>609</ele>
        <time>2014-01-25T14:48:45.178Z</time>
      </trkpt>
      <trkpt lat="47.40864" lon="6.74079">
        <ele>609</ele>
        <time>2014-01-25T14:48:50.244Z</time>
      </trkpt>
      <trkpt lat="47.40864" lon="6.74077">
        <ele>609</ele>
        <time>2014-01-25T14:48:55.177Z</time>
      </trkpt>
      <trkpt lat="47.40864" lon="6.74075">
        <ele>608</ele>
        <time>2014-01-25T14:49:05.529Z</time>
      </trkpt>
      <trkpt lat="47.40864" lon="6.74075">
        <ele>608</ele>
        <time>2014-01-25T14:49:10.234Z</time>
      </trkpt>
      <trkpt lat="47.40865" lon="6.74073">
        <ele>609</ele>
        <time>2014-01-25T14:49:15.177Z</time>
      </trkpt>
      <trkpt lat="47.40865" lon="6.74073">
        <ele>609</ele>
        <time>2014-01-25T14:49:20.247Z</time>
      </trkpt>
      <trkpt lat="47.40865" lon="6.74073">
        <ele>609</ele>
        <time>2014-01-25T14:49:25.180Z</time>
      </trkpt>
      <trkpt lat="47.40867" lon="6.74073">
        <ele>608</ele>
        <time>2014-01-25T14:49:30.250Z</time>
      </trkpt>
      <trkpt lat="47.40867" lon="6.74077">
        <ele>607</ele>
        <time>2014-01-25T14:49:35.178Z</time>
      </trkpt>
      <trkpt lat="47.40867" lon="6.74079">
        <ele>606</ele>
        <time>2014-01-25T14:49:40.247Z</time>
      </trkpt>
      <trkpt lat="47.40867" lon="6.74081">
        <ele>606</ele>
        <time>2014-01-25T14:49:45.180Z</time>
      </trkpt>
      <trkpt lat="47.40867" lon="6.74082">
        <ele>606</ele>
        <time>2014-01-25T14:49:50.246Z</time>
      </trkpt>
      <trkpt lat="47.40868" lon="6.74083">
        <ele>606</ele>
        <time>2014-01-25T14:49:55.170Z</time>
      </trkpt>
      <trkpt lat="47.40867" lon="6.74086">
        <ele>606</ele>
        <time>2014-01-25T14:50:10.380Z</time>
      </trkpt>
      <trkpt lat="47.40867" lon="6.74086">
        <ele>606</ele>
        <time>2014-01-25T14:50:15.178Z</time>
      </trkpt>
      <trkpt lat="47.40867" lon="6.74087">
        <ele>606</ele>
        <time>2014-01-25T14:50:20.176Z</time>
      </trkpt>
      <trkpt lat="47.40867" lon="6.74088">
        <ele>606</ele>
        <time>2014-01-25T14:50:25.246Z</time>
      </trkpt>
      <trkpt lat="47.40868" lon="6.74088">
        <ele>606</ele>
        <time>2014-01-25T14:50:30.175Z</time>
      </trkpt>
      <trkpt lat="47.40868" lon="6.74088">
        <ele>606</ele>
        <time>2014-01-25T14:50:35.252Z</time>
      </trkpt>
      <trkpt lat="47.40867" lon="6.7409">
        <ele>607</ele>
        <time>2014-01-25T14:50:40.145Z</time>
      </trkpt>
      <trkpt lat="47.40867" lon="6.74091">
        <ele>607</ele>
        <time>2014-01-25T14:50:45.214Z</time>
      </trkpt>
      <trkpt lat="47.40865" lon="6.74093">
        <ele>607</ele>
        <time>2014-01-25T14:50:50.143Z</time>
      </trkpt>
      <trkpt lat="47.40865" lon="6.74093">
        <ele>608</ele>
        <time>2014-01-25T14:51:05.247Z</time>
      </trkpt>
      <trkpt lat="47.40865" lon="6.74093">
        <ele>608</ele>
        <time>2014-01-25T14:51:10.170Z</time>
      </trkpt>
      <trkpt lat="47.40866" lon="6.74093">
        <ele>608</ele>
        <time>2014-01-25T14:51:15.246Z</time>
      </trkpt>
      <trkpt lat="47.40866" lon="6.74093">
        <ele>608</ele>
        <time>2014-01-25T14:51:20.171Z</time>
      </trkpt>
      <trkpt lat="47.40866" lon="6.74093">
        <ele>608</ele>
        <time>2014-01-25T14:51:25.200Z</time>
      </trkpt>
      <trkpt lat="47.40865" lon="6.74094">
        <ele>608</ele>
        <time>2014-01-25T14:51:30.179Z</time>
      </trkpt>
      <trkpt lat="47.40865" lon="6.74094">
        <ele>608</ele>
        <time>2014-01-25T14:51:35.233Z</time>
      </trkpt>
      <trkpt lat="47.40865" lon="6.74094">
        <ele>608</ele>
        <time>2014-01-25T14:51:40.175Z</time>
      </trkpt>
      <trkpt lat="47.40865" lon="6.74094">
        <ele>608</ele>
        <time>2014-01-25T14:51:45.173Z</time>
      </trkpt>
      <trkpt lat="47.40865" lon="6.74094">
        <ele>608</ele>
        <time>2014-01-25T14:51:50.213Z</time>
      </trkpt>
      <trkpt lat="47.40865" lon="6.74094">
        <ele>608</ele>
        <time>2014-01-25T14:51:55.166Z</time>
      </trkpt>
      <trkpt lat="47.40866" lon="6.74094">
        <ele>608</ele>
        <time>2014-01-25T14:52:10.161Z</time>
      </trkpt>
      <trkpt lat="47.40866" lon="6.74094">
        <ele>609</ele>
        <time>2014-01-25T14:52:15.143Z</time>
      </trkpt>
      <trkpt lat="47.40866" lon="6.74094">
        <ele>608</ele>
        <time>2014-01-25T14:52:20.263Z</time>
      </trkpt>
      <trkpt lat="47.40866" lon="6.74095">
        <ele>608</ele>
        <time>2014-01-25T14:52:25.141Z</time>
      </trkpt>
      <trkpt lat="47.40867" lon="6.74096">
        <ele>609</ele>
        <time>2014-01-25T14:52:30.241Z</time>
      </trkpt>
      <trkpt lat="47.4087" lon="6.74096">
        <ele>609</ele>
        <time>2014-01-25T14:52:35.175Z</time>
      </trkpt>
      <trkpt lat="47.40873" lon="6.74097">
        <ele>608</ele>
        <time>2014-01-25T14:52:40.172Z</time>
      </trkpt>
      <trkpt lat="47.40874" lon="6.74095">
        <ele>609</ele>
        <time>2014-01-25T14:52:45.247Z</time>
      </trkpt>
      <trkpt lat="47.40875" lon="6.74096">
        <ele>610</ele>
        <time>2014-01-25T14:52:50.170Z</time>
      </trkpt>
      <trkpt lat="47.40877" lon="6.74096">
        <ele>610</ele>
        <time>2014-01-25T14:52:55.228Z</time>
      </trkpt>
      <trkpt lat="47.40878" lon="6.74093">
        <ele>610</ele>
        <time>2014-01-25T14:53:00.223Z</time>
      </trkpt>
      <trkpt lat="47.4088" lon="6.74095">
        <ele>610</ele>
        <time>2014-01-25T14:53:05.174Z</time>
      </trkpt>
      <trkpt lat="47.40881" lon="6.74095">
        <ele>611</ele>
        <time>2014-01-25T14:53:10.245Z</time>
      </trkpt>
      <trkpt lat="47.40875" lon="6.74094">
        <ele>610</ele>
        <time>2014-01-25T14:53:15.181Z</time>
      </trkpt>
      <trkpt lat="47.40873" lon="6.74089">
        <ele>610</ele>
        <time>2014-01-25T14:53:20.227Z</time>
      </trkpt>
      <trkpt lat="47.40872" lon="6.74089">
        <ele>610</ele>
        <time>2014-01-25T14:53:25.174Z</time>
      </trkpt>
      <trkpt lat="47.40871" lon="6.74088">
        <ele>609</ele>
        <time>2014-01-25T14:53:30.244Z</time>
      </trkpt>
      <trkpt lat="47.40871" lon="6.74088">
        <ele>609</ele>
        <time>2014-01-25T14:53:35.186Z</time>
      </trkpt>
      <trkpt lat="47.40872" lon="6.74084">
        <ele>608</ele>
        <time>2014-01-25T14:53:45.180Z</time>
      </trkpt>
      <trkpt lat="47.40872" lon="6.74084">
        <ele>608</ele>
        <time>2014-01-25T14:53:50.168Z</time>
      </trkpt>
      <trkpt lat="47.40872" lon="6.74083">
        <ele>608</ele>
        <time>2014-01-25T14:53:55.244Z</time>
      </trkpt>
      <trkpt lat="47.40872" lon="6.74082">
        <ele>608</ele>
        <time>2014-01-25T14:54:06.931Z</time>
      </trkpt>
      <trkpt lat="47.40872" lon="6.74082">
        <ele>608</ele>
        <time>2014-01-25T14:54:10.168Z</time>
      </trkpt>
      <trkpt lat="47.40872" lon="6.74079">
        <ele>608</ele>
        <time>2014-01-25T14:54:15.249Z</time>
      </trkpt>
      <trkpt lat="47.40871" lon="6.74078">
        <ele>608</ele>
        <time>2014-01-25T14:54:20.170Z</time>
      </trkpt>
      <trkpt lat="47.40871" lon="6.74075">
        <ele>608</ele>
        <time>2014-01-25T14:54:25.244Z</time>
      </trkpt>
      <trkpt lat="47.40872" lon="6.74079">
        <ele>608</ele>
        <time>2014-01-25T14:54:30.170Z</time>
      </trkpt>
      <trkpt lat="47.40872" lon="6.7408">
        <ele>607</ele>
        <time>2014-01-25T14:54:35.250Z</time>
      </trkpt>
      <trkpt lat="47.40873" lon="6.74081">
        <ele>607</ele>
        <time>2014-01-25T14:54:40.181Z</time>
      </trkpt>
      <trkpt lat="47.40871" lon="6.74083">
        <ele>605</ele>
        <time>2014-01-25T14:54:50.146Z</time>
      </trkpt>
      <trkpt lat="47.40871" lon="6.74083">
        <ele>605</ele>
        <time>2014-01-25T14:54:55.240Z</time>
      </trkpt>
      <trkpt lat="47.40871" lon="6.74083">
        <ele>605</ele>
        <time>2014-01-25T14:55:00.228Z</time>
      </trkpt>
      <trkpt lat="47.40871" lon="6.74083">
        <ele>605</ele>
        <time>2014-01-25T14:55:05.245Z</time>
      </trkpt>
      <trkpt lat="47.40871" lon="6.74083">
        <ele>605</ele>
        <time>2014-01-25T14:55:10.170Z</time>
      </trkpt>
      <trkpt lat="47.40871" lon="6.74083">
        <ele>605</ele>
        <time>2014-01-25T14:55:15.244Z</time>
      </trkpt>
      <trkpt lat="47.40871" lon="6.74083">
        <ele>605</ele>
        <time>2014-01-25T14:55:20.173Z</time>
      </trkpt>
      <trkpt lat="47.40871" lon="6.74081">
        <ele>605</ele>
        <time>2014-01-25T14:55:25.243Z</time>
      </trkpt>
      <trkpt lat="47.40872" lon="6.74079">
        <ele>605</ele>
        <time>2014-01-25T14:55:30.134Z</time>
      </trkpt>
      <trkpt lat="47.40872" lon="6.74079">
        <ele>605</ele>
        <time>2014-01-25T14:55:35.229Z</time>
      </trkpt>
      <trkpt lat="47.40871" lon="6.74079">
        <ele>605</ele>
        <time>2014-01-25T14:55:40.155Z</time>
      </trkpt>
      <trkpt lat="47.40871" lon="6.74077">
        <ele>605</ele>
        <time>2014-01-25T14:55:45.240Z</time>
      </trkpt>
      <trkpt lat="47.40871" lon="6.74076">
        <ele>605</ele>
        <time>2014-01-25T14:55:50.173Z</time>
      </trkpt>
      <trkpt lat="47.40869" lon="6.74079">
        <ele>605</ele>
        <time>2014-01-25T14:55:55.224Z</time>
      </trkpt>
      <trkpt lat="47.40869" lon="6.7408">
        <ele>605</ele>
        <time>2014-01-25T14:56:00.165Z</time>
      </trkpt>
      <trkpt lat="47.4087" lon="6.74077">
        <ele>605</ele>
        <time>2014-01-25T14:56:05.222Z</time>
      </trkpt>
      <trkpt lat="47.40873" lon="6.74081">
        <ele>604</ele>
        <time>2014-01-25T14:56:10.166Z</time>
      </trkpt>
      <trkpt lat="47.40876" lon="6.74086">
        <ele>603</ele>
        <time>2014-01-25T14:56:15.243Z</time>
      </trkpt>
      <trkpt lat="47.40876" lon="6.74086">
        <ele>603</ele>
        <time>2014-01-25T14:56:20.175Z</time>
      </trkpt>
      <trkpt lat="47.40878" lon="6.74087">
        <ele>602</ele>
        <time>2014-01-25T14:56:25.248Z</time>
      </trkpt>
      <trkpt lat="47.4088" lon="6.74087">
        <ele>602</ele>
        <time>2014-01-25T14:56:30.165Z</time>
      </trkpt>
      <trkpt lat="47.4088" lon="6.74087">
        <ele>602</ele>
        <time>2014-01-25T14:56:35.213Z</time>
      </trkpt>
      <trkpt lat="47.4088" lon="6.74087">
        <ele>602</ele>
        <time>2014-01-25T14:56:40.167Z</time>
      </trkpt>
      <trkpt lat="47.40881" lon="6.74087">
        <ele>602</ele>
        <time>2014-01-25T14:56:45.247Z</time>
      </trkpt>
      <trkpt lat="47.40881" lon="6.74088">
        <ele>602</ele>
        <time>2014-01-25T14:56:50.169Z</time>
      </trkpt>
      <trkpt lat="47.40882" lon="6.74088">
        <ele>602</ele>
        <time>2014-01-25T14:56:55.250Z</time>
      </trkpt>
      <trkpt lat="47.40883" lon="6.74091">
        <ele>603</ele>
        <time>2014-01-25T14:57:10.183Z</time>
      </trkpt>
      <trkpt lat="47.40883" lon="6.74091">
        <ele>604</ele>
        <time>2014-01-25T14:57:15.172Z</time>
      </trkpt>
      <trkpt lat="47.40883" lon="6.74091">
        <ele>605</ele>
        <time>2014-01-25T14:57:20.243Z</time>
      </trkpt>
      <trkpt lat="47.40883" lon="6.74091">
        <ele>605</ele>
        <time>2014-01-25T14:57:25.172Z</time>
      </trkpt>
      <trkpt lat="47.40883" lon="6.74091">
        <ele>605</ele>
        <time>2014-01-25T14:57:30.244Z</time>
      </trkpt>
      <trkpt lat="47.40883" lon="6.74091">
        <ele>605</ele>
        <time>2014-01-25T14:57:35.173Z</time>
      </trkpt>
      <trkpt lat="47.40882" lon="6.74091">
        <ele>605</ele>
        <time>2014-01-25T14:57:40.225Z</time>
      </trkpt>
      <trkpt lat="47.40881" lon="6.74092">
        <ele>606</ele>
        <time>2014-01-25T14:57:45.167Z</time>
      </trkpt>
      <trkpt lat="47.40881" lon="6.74092">
        <ele>606</ele>
        <time>2014-01-25T14:57:50.244Z</time>
      </trkpt>
      <trkpt lat="47.40881" lon="6.74092">
        <ele>606</ele>
        <time>2014-01-25T14:57:55.171Z</time>
      </trkpt>
      <trkpt lat="47.40881" lon="6.74092">
        <ele>606</ele>
        <time>2014-01-25T14:58:20.177Z</time>
      </trkpt>
      <trkpt lat="47.40881" lon="6.74092">
        <ele>606</ele>
        <time>2014-01-25T14:58:25.245Z</time>
      </trkpt>
      <trkpt lat="47.40879" lon="6.74092">
        <ele>606</ele>
        <time>2014-01-25T14:58:30.176Z</time>
      </trkpt>
      <trkpt lat="47.40877" lon="6.74096">
        <ele>606</ele>
        <time>2014-01-25T14:58:35.245Z</time>
      </trkpt>
      <trkpt lat="47.40878" lon="6.74094">
        <ele>605</ele>
        <time>2014-01-25T14:58:40.177Z</time>
      </trkpt>
      <trkpt lat="47.4088" lon="6.74092">
        <ele>605</ele>
        <time>2014-01-25T14:58:45.242Z</time>
      </trkpt>
      <trkpt lat="47.40884" lon="6.74092">
        <ele>604</ele>
        <time>2014-01-25T14:58:50.169Z</time>
      </trkpt>
      <trkpt lat="47.40884" lon="6.74092">
        <ele>604</ele>
        <time>2014-01-25T14:58:55.206Z</time>
      </trkpt>
      <trkpt lat="47.4088" lon="6.74098">
        <ele>606</ele>
        <time>2014-01-25T14:59:10.169Z</time>
      </trkpt>
      <trkpt lat="47.40882" lon="6.74099">
        <ele>605</ele>
        <time>2014-01-25T14:59:15.229Z</time>
      </trkpt>
      <trkpt lat="47.40881" lon="6.741">
        <ele>606</ele>
        <time>2014-01-25T14:59:20.166Z</time>
      </trkpt>
      <trkpt lat="47.40877" lon="6.74102">
        <ele>607</ele>
        <time>2014-01-25T14:59:25.249Z</time>
      </trkpt>
      <trkpt lat="47.40879" lon="6.74103">
        <ele>609</ele>
        <time>2014-01-25T14:59:30.167Z</time>
      </trkpt>
      <trkpt lat="47.40883" lon="6.741">
        <ele>610</ele>
        <time>2014-01-25T14:59:35.244Z</time>
      </trkpt>
      <trkpt lat="47.40884" lon="6.74097">
        <ele>612</ele>
        <time>2014-01-25T14:59:40.162Z</time>
      </trkpt>
      <trkpt lat="47.40884" lon="6.74097">
        <ele>612</ele>
        <time>2014-01-25T14:59:45.229Z</time>
      </trkpt>
      <trkpt lat="47.40884" lon="6.74097">
        <ele>612</ele>
        <time>2014-01-25T14:59:50.166Z</time>
      </trkpt>
      <trkpt lat="47.40883" lon="6.74097">
        <ele>612</ele>
        <time>2014-01-25T14:59:55.243Z</time>
      </trkpt>
      <trkpt lat="47.40883" lon="6.74088">
        <ele>607</ele>
        <time>2014-01-25T15:00:20.169Z</time>
      </trkpt>
      <trkpt lat="47.40883" lon="6.74088">
        <ele>607</ele>
        <time>2014-01-25T15:00:25.244Z</time>
      </trkpt>
      <trkpt lat="47.40883" lon="6.74088">
        <ele>607</ele>
        <time>2014-01-25T15:00:30.176Z</time>
      </trkpt>
      <trkpt lat="47.40882" lon="6.74087">
        <ele>607</ele>
        <time>2014-01-25T15:00:35.245Z</time>
      </trkpt>
      <trkpt lat="47.4088" lon="6.74085">
        <ele>606</ele>
        <time>2014-01-25T15:00:40.161Z</time>
      </trkpt>
      <trkpt lat="47.4088" lon="6.74088">
        <ele>606</ele>
        <time>2014-01-25T15:00:45.244Z</time>
      </trkpt>
      <trkpt lat="47.4088" lon="6.74088">
        <ele>605</ele>
        <time>2014-01-25T15:00:50.174Z</time>
      </trkpt>
      <trkpt lat="47.40881" lon="6.74091">
        <ele>605</ele>
        <time>2014-01-25T15:00:55.247Z</time>
      </trkpt>
      <trkpt lat="47.40889" lon="6.74092">
        <ele>608</ele>
        <time>2014-01-25T15:01:05.250Z</time>
      </trkpt>
      <trkpt lat="47.40896" lon="6.74097">
        <ele>608</ele>
        <time>2014-01-25T15:01:10.181Z</time>
      </trkpt>
      <trkpt lat="47.40904" lon="6.74105">
        <ele>609</ele>
        <time>2014-01-25T15:01:15.244Z</time>
      </trkpt>
      <trkpt lat="47.40909" lon="6.74118">
        <ele>609</ele>
        <time>2014-01-25T15:01:20.134Z</time>
      </trkpt>
      <trkpt lat="47.40919" lon="6.74121">
        <ele>607</ele>
        <time>2014-01-25T15:01:25.245Z</time>
      </trkpt>
      <trkpt lat="47.40927" lon="6.74119">
        <ele>606</ele>
        <time>2014-01-25T15:01:30.181Z</time>
      </trkpt>
      <trkpt lat="47.40935" lon="6.74115">
        <ele>606</ele>
        <time>2014-01-25T15:01:35.213Z</time>
      </trkpt>
      <trkpt lat="47.4094" lon="6.74104">
        <ele>609</ele>
        <time>2014-01-25T15:01:40.168Z</time>
      </trkpt>
      <trkpt lat="47.40944" lon="6.74094">
        <ele>612</ele>
        <time>2014-01-25T15:01:45.247Z</time>
      </trkpt>
      <trkpt lat="47.40954" lon="6.74077">
        <ele>616</ele>
        <time>2014-01-25T15:01:50.168Z</time>
      </trkpt>
      <trkpt lat="47.40958" lon="6.74066">
        <ele>618</ele>
        <time>2014-01-25T15:01:55.203Z</time>
      </trkpt>
      <trkpt lat="47.4097" lon="6.74054">
        <ele>622</ele>
        <time>2014-01-25T15:02:00.403Z</time>
      </trkpt>
      <trkpt lat="47.40981" lon="6.74041">
        <ele>625</ele>
        <time>2014-01-25T15:02:05.241Z</time>
      </trkpt>
      <trkpt lat="47.40993" lon="6.74027">
        <ele>625</ele>
        <time>2014-01-25T15:02:10.163Z</time>
      </trkpt>
      <trkpt lat="47.41012" lon="6.74006">
        <ele>628</ele>
        <time>2014-01-25T15:02:15.246Z</time>
      </trkpt>
      <trkpt lat="47.41041" lon="6.73973">
        <ele>629</ele>
        <time>2014-01-25T15:02:20.505Z</time>
      </trkpt>
      <trkpt lat="47.41076" lon="6.73931">
        <ele>629</ele>
        <time>2014-01-25T15:02:25.200Z</time>
      </trkpt>
      <trkpt lat="47.41116" lon="6.73889">
        <ele>628</ele>
        <time>2014-01-25T15:02:30.154Z</time>
      </trkpt>
      <trkpt lat="47.4115" lon="6.73852">
        <ele>626</ele>
        <time>2014-01-25T15:02:35.243Z</time>
      </trkpt>
      <trkpt lat="47.41184" lon="6.73821">
        <ele>624</ele>
        <time>2014-01-25T15:02:40.165Z</time>
      </trkpt>
      <trkpt lat="47.4122" lon="6.7379">
        <ele>621</ele>
        <time>2014-01-25T15:02:45.225Z</time>
      </trkpt>
      <trkpt lat="47.41249" lon="6.73757">
        <ele>618</ele>
        <time>2014-01-25T15:02:50.139Z</time>
      </trkpt>
      <trkpt lat="47.41265" lon="6.73738">
        <ele>616</ele>
        <time>2014-01-25T15:02:55.211Z</time>
      </trkpt>
      <trkpt lat="47.41277" lon="6.73719">
        <ele>613</ele>
        <time>2014-01-25T15:03:00.242Z</time>
      </trkpt>
      <trkpt lat="47.41312" lon="6.73684">
        <ele>604</ele>
        <time>2014-01-25T15:03:05.207Z</time>
      </trkpt>
      <trkpt lat="47.41324" lon="6.73672">
        <ele>596</ele>
        <time>2014-01-25T15:03:10.172Z</time>
      </trkpt>
      <trkpt lat="47.41329" lon="6.73661">
        <ele>591</ele>
        <time>2014-01-25T15:03:15.250Z</time>
      </trkpt>
      <trkpt lat="47.4133" lon="6.73659">
        <ele>589</ele>
        <time>2014-01-25T15:03:20.175Z</time>
      </trkpt>
      <trkpt lat="47.4133" lon="6.73665">
        <ele>585</ele>
        <time>2014-01-25T15:03:25.220Z</time>
      </trkpt>
      <trkpt lat="47.41336" lon="6.73664">
        <ele>581</ele>
        <time>2014-01-25T15:03:30.176Z</time>
      </trkpt>
      <trkpt lat="47.41339" lon="6.73665">
        <ele>580</ele>
        <time>2014-01-25T15:03:35.246Z</time>
      </trkpt>
      <trkpt lat="47.41339" lon="6.73669">
        <ele>578</ele>
        <time>2014-01-25T15:03:40.167Z</time>
      </trkpt>
      <trkpt lat="47.41339" lon="6.73668">
        <ele>578</ele>
        <time>2014-01-25T15:03:45.263Z</time>
      </trkpt>
      <trkpt lat="47.41337" lon="6.73668">
        <ele>575</ele>
        <time>2014-01-25T15:03:50.176Z</time>
      </trkpt>
      <trkpt lat="47.41336" lon="6.73679">
        <ele>576</ele>
        <time>2014-01-25T15:03:55.243Z</time>
      </trkpt>
      <trkpt lat="47.4134" lon="6.737">
        <ele>575</ele>
        <time>2014-01-25T15:04:00.194Z</time>
      </trkpt>
      <trkpt lat="47.41344" lon="6.73724">
        <ele>575</ele>
        <time>2014-01-25T15:04:05.226Z</time>
      </trkpt>
      <trkpt lat="47.41351" lon="6.73749">
        <ele>573</ele>
        <time>2014-01-25T15:04:10.179Z</time>
      </trkpt>
      <trkpt lat="47.41364" lon="6.73767">
        <ele>572</ele>
        <time>2014-01-25T15:04:15.245Z</time>
      </trkpt>
      <trkpt lat="47.41378" lon="6.73783">
        <ele>572</ele>
        <time>2014-01-25T15:04:20.174Z</time>
      </trkpt>
      <trkpt lat="47.41397" lon="6.73806">
        <ele>572</ele>
        <time>2014-01-25T15:04:25.242Z</time>
      </trkpt>
      <trkpt lat="47.41456" lon="6.73847">
        <ele>568</ele>
        <time>2014-01-25T15:04:35.237Z</time>
      </trkpt>
      <trkpt lat="47.4149" lon="6.7388">
        <ele>567</ele>
        <time>2014-01-25T15:04:40.144Z</time>
      </trkpt>
      <trkpt lat="47.41518" lon="6.73919">
        <ele>564</ele>
        <time>2014-01-25T15:04:45.229Z</time>
      </trkpt>
      <trkpt lat="47.4154" lon="6.73953">
        <ele>561</ele>
        <time>2014-01-25T15:04:50.180Z</time>
      </trkpt>
      <trkpt lat="47.4156" lon="6.73979">
        <ele>558</ele>
        <time>2014-01-25T15:04:55.196Z</time>
      </trkpt>
      <trkpt lat="47.41586" lon="6.74002">
        <ele>554</ele>
        <time>2014-01-25T15:05:00.185Z</time>
      </trkpt>
      <trkpt lat="47.4158" lon="6.74042">
        <ele>549</ele>
        <time>2014-01-25T15:05:05.242Z</time>
      </trkpt>
      <trkpt lat="47.41565" lon="6.74088">
        <ele>547</ele>
        <time>2014-01-25T15:05:10.172Z</time>
      </trkpt>
      <trkpt lat="47.41557" lon="6.74108">
        <ele>546</ele>
        <time>2014-01-25T15:05:15.228Z</time>
      </trkpt>
      <trkpt lat="47.41565" lon="6.74121">
        <ele>542</ele>
        <time>2014-01-25T15:05:20.160Z</time>
      </trkpt>
      <trkpt lat="47.41573" lon="6.74136">
        <ele>538</ele>
        <time>2014-01-25T15:05:25.240Z</time>
      </trkpt>
      <trkpt lat="47.41576" lon="6.7414">
        <ele>537</ele>
        <time>2014-01-25T15:05:30.159Z</time>
      </trkpt>
      <trkpt lat="47.41577" lon="6.7414">
        <ele>537</ele>
        <time>2014-01-25T15:05:35.161Z</time>
      </trkpt>
      <trkpt lat="47.41579" lon="6.7414">
        <ele>536</ele>
        <time>2014-01-25T15:05:40.242Z</time>
      </trkpt>
      <trkpt lat="47.4158" lon="6.7414">
        <ele>537</ele>
        <time>2014-01-25T15:05:45.168Z</time>
      </trkpt>
      <trkpt lat="47.41582" lon="6.74139">
        <ele>535</ele>
        <time>2014-01-25T15:05:50.245Z</time>
      </trkpt>
      <trkpt lat="47.41585" lon="6.74138">
        <ele>534</ele>
        <time>2014-01-25T15:05:55.159Z</time>
      </trkpt>
      <trkpt lat="47.41591" lon="6.74135">
        <ele>533</ele>
        <time>2014-01-25T15:06:00.156Z</time>
      </trkpt>
      <trkpt lat="47.41591" lon="6.74134">
        <ele>533</ele>
        <time>2014-01-25T15:06:05.204Z</time>
      </trkpt>
      <trkpt lat="47.41597" lon="6.74125">
        <ele>534</ele>
        <time>2014-01-25T15:06:10.163Z</time>
      </trkpt>
      <trkpt lat="47.41605" lon="6.74115">
        <ele>535</ele>
        <time>2014-01-25T15:06:15.245Z</time>
      </trkpt>
      <trkpt lat="47.41613" lon="6.74102">
        <ele>537</ele>
        <time>2014-01-25T15:06:20.164Z</time>
      </trkpt>
      <trkpt lat="47.41616" lon="6.74084">
        <ele>539</ele>
        <time>2014-01-25T15:06:25.240Z</time>
      </trkpt>
      <trkpt lat="47.41625" lon="6.74047">
        <ele>540</ele>
        <time>2014-01-25T15:06:30.172Z</time>
      </trkpt>
      <trkpt lat="47.41628" lon="6.7401">
        <ele>542</ele>
        <time>2014-01-25T15:06:35.162Z</time>
      </trkpt>
      <trkpt lat="47.41625" lon="6.73975">
        <ele>544</ele>
        <time>2014-01-25T15:06:40.162Z</time>
      </trkpt>
      <trkpt lat="47.41627" lon="6.73953">
        <ele>547</ele>
        <time>2014-01-25T15:06:45.221Z</time>
      </trkpt>
      <trkpt lat="47.4163" lon="6.73928">
        <ele>553</ele>
        <time>2014-01-25T15:06:50.163Z</time>
      </trkpt>
      <trkpt lat="47.41635" lon="6.73904">
        <ele>557</ele>
        <time>2014-01-25T15:06:55.244Z</time>
      </trkpt>
      <trkpt lat="47.41679" lon="6.73819">
        <ele>559</ele>
        <time>2014-01-25T15:07:15.162Z</time>
      </trkpt>
      <trkpt lat="47.41691" lon="6.73799">
        <ele>559</ele>
        <time>2014-01-25T15:07:20.163Z</time>
      </trkpt>
      <trkpt lat="47.41707" lon="6.73777">
        <ele>558</ele>
        <time>2014-01-25T15:07:25.244Z</time>
      </trkpt>
      <trkpt lat="47.41719" lon="6.73759">
        <ele>558</ele>
        <time>2014-01-25T15:07:30.157Z</time>
      </trkpt>
      <trkpt lat="47.41736" lon="6.73745">
        <ele>557</ele>
        <time>2014-01-25T15:07:35.228Z</time>
      </trkpt>
      <trkpt lat="47.41755" lon="6.73739">
        <ele>556</ele>
        <time>2014-01-25T15:07:40.157Z</time>
      </trkpt>
      <trkpt lat="47.41773" lon="6.73729">
        <ele>554</ele>
        <time>2014-01-25T15:07:45.242Z</time>
      </trkpt>
      <trkpt lat="47.41788" lon="6.73725">
        <ele>555</ele>
        <time>2014-01-25T15:07:50.160Z</time>
      </trkpt>
      <trkpt lat="47.41811" lon="6.73711">
        <ele>555</ele>
        <time>2014-01-25T15:07:55.242Z</time>
      </trkpt>
      <trkpt lat="47.41878" lon="6.7367">
        <ele>553</ele>
        <time>2014-01-25T15:08:10.178Z</time>
      </trkpt>
      <trkpt lat="47.419" lon="6.73659">
        <ele>551</ele>
        <time>2014-01-25T15:08:15.242Z</time>
      </trkpt>
      <trkpt lat="47.41928" lon="6.73663">
        <ele>547</ele>
        <time>2014-01-25T15:08:20.174Z</time>
      </trkpt>
      <trkpt lat="47.41947" lon="6.73676">
        <ele>546</ele>
        <time>2014-01-25T15:08:25.242Z</time>
      </trkpt>
      <trkpt lat="47.41973" lon="6.73684">
        <ele>545</ele>
        <time>2014-01-25T15:08:30.174Z</time>
      </trkpt>
      <trkpt lat="47.41992" lon="6.73696">
        <ele>544</ele>
        <time>2014-01-25T15:08:35.242Z</time>
      </trkpt>
      <trkpt lat="47.42009" lon="6.73707">
        <ele>543</ele>
        <time>2014-01-25T15:08:40.173Z</time>
      </trkpt>
      <trkpt lat="47.42018" lon="6.73712">
        <ele>543</ele>
        <time>2014-01-25T15:08:45.228Z</time>
      </trkpt>
      <trkpt lat="47.42033" lon="6.73721">
        <ele>544</ele>
        <time>2014-01-25T15:08:50.176Z</time>
      </trkpt>
      <trkpt lat="47.42048" lon="6.73723">
        <ele>543</ele>
        <time>2014-01-25T15:08:55.249Z</time>
      </trkpt>
      <trkpt lat="47.42116" lon="6.73714">
        <ele>535</ele>
        <time>2014-01-25T15:09:16.518Z</time>
      </trkpt>
      <trkpt lat="47.42141" lon="6.73698">
        <ele>534</ele>
        <time>2014-01-25T15:09:20.166Z</time>
      </trkpt>
      <trkpt lat="47.42165" lon="6.73686">
        <ele>532</ele>
        <time>2014-01-25T15:09:25.240Z</time>
      </trkpt>
      <trkpt lat="47.42183" lon="6.73674">
        <ele>523</ele>
        <time>2014-01-25T15:09:30.170Z</time>
      </trkpt>
      <trkpt lat="47.42188" lon="6.73674">
        <ele>517</ele>
        <time>2014-01-25T15:09:35.240Z</time>
      </trkpt>
      <trkpt lat="47.42185" lon="6.73677">
        <ele>515</ele>
        <time>2014-01-25T15:09:40.161Z</time>
      </trkpt>
      <trkpt lat="47.42182" lon="6.73694">
        <ele>514</ele>
        <time>2014-01-25T15:09:45.240Z</time>
      </trkpt>
      <trkpt lat="47.42183" lon="6.7371">
        <ele>511</ele>
        <time>2014-01-25T15:09:50.182Z</time>
      </trkpt>
      <trkpt lat="47.42186" lon="6.73724">
        <ele>507</ele>
        <time>2014-01-25T15:09:55.246Z</time>
      </trkpt>
      <trkpt lat="47.42189" lon="6.73734">
        <ele>504</ele>
        <time>2014-01-25T15:10:02.027Z</time>
      </trkpt>
      <trkpt lat="47.42192" lon="6.73744">
        <ele>502</ele>
        <time>2014-01-25T15:10:05.252Z</time>
      </trkpt>
      <trkpt lat="47.42195" lon="6.73752">
        <ele>502</ele>
        <time>2014-01-25T15:10:10.170Z</time>
      </trkpt>
      <trkpt lat="47.42198" lon="6.7376">
        <ele>501</ele>
        <time>2014-01-25T15:10:15.237Z</time>
      </trkpt>
      <trkpt lat="47.42202" lon="6.73767">
        <ele>501</ele>
        <time>2014-01-25T15:10:20.168Z</time>
      </trkpt>
      <trkpt lat="47.42206" lon="6.73775">
        <ele>501</ele>
        <time>2014-01-25T15:10:25.240Z</time>
      </trkpt>
      <trkpt lat="47.4221" lon="6.73783">
        <ele>500</ele>
        <time>2014-01-25T15:10:30.167Z</time>
      </trkpt>
      <trkpt lat="47.42211" lon="6.7379">
        <ele>501</ele>
        <time>2014-01-25T15:10:35.241Z</time>
      </trkpt>
      <trkpt lat="47.42217" lon="6.73796">
        <ele>502</ele>
        <time>2014-01-25T15:10:40.775Z</time>
      </trkpt>
      <trkpt lat="47.42223" lon="6.73802">
        <ele>503</ele>
        <time>2014-01-25T15:10:45.242Z</time>
      </trkpt>
      <trkpt lat="47.4223" lon="6.73808">
        <ele>502</ele>
        <time>2014-01-25T15:10:50.164Z</time>
      </trkpt>
      <trkpt lat="47.42233" lon="6.73814">
        <ele>501</ele>
        <time>2014-01-25T15:10:55.240Z</time>
      </trkpt>
      <trkpt lat="47.42235" lon="6.7382">
        <ele>501</ele>
        <time>2014-01-25T15:11:00.626Z</time>
      </trkpt>
      <trkpt lat="47.42235" lon="6.73823">
        <ele>502</ele>
        <time>2014-01-25T15:11:05.242Z</time>
      </trkpt>
      <trkpt lat="47.42236" lon="6.7382">
        <ele>501</ele>
        <time>2014-01-25T15:11:10.215Z</time>
      </trkpt>
      <trkpt lat="47.4224" lon="6.73819">
        <ele>501</ele>
        <time>2014-01-25T15:11:15.171Z</time>
      </trkpt>
      <trkpt lat="47.42248" lon="6.73822">
        <ele>499</ele>
        <time>2014-01-25T15:11:20.214Z</time>
      </trkpt>
      <trkpt lat="47.4225" lon="6.73819">
        <ele>499</ele>
        <time>2014-01-25T15:11:25.149Z</time>
      </trkpt>
      <trkpt lat="47.42253" lon="6.73819">
        <ele>498</ele>
        <time>2014-01-25T15:11:35.171Z</time>
      </trkpt>
      <trkpt lat="47.42253" lon="6.73819">
        <ele>498</ele>
        <time>2014-01-25T15:11:40.244Z</time>
      </trkpt>
      <trkpt lat="47.42252" lon="6.73818">
        <ele>497</ele>
        <time>2014-01-25T15:11:45.176Z</time>
      </trkpt>
      <trkpt lat="47.42251" lon="6.73817">
        <ele>497</ele>
        <time>2014-01-25T15:11:50.242Z</time>
      </trkpt>
      <trkpt lat="47.42251" lon="6.73817">
        <ele>497</ele>
        <time>2014-01-25T15:11:55.177Z</time>
      </trkpt>
      <trkpt lat="47.42251" lon="6.73817">
        <ele>497</ele>
        <time>2014-01-25T15:12:00.288Z</time>
      </trkpt>
      <trkpt lat="47.42251" lon="6.73818">
        <ele>497</ele>
        <time>2014-01-25T15:12:05.177Z</time>
      </trkpt>
      <trkpt lat="47.42249" lon="6.73817">
        <ele>497</ele>
        <time>2014-01-25T15:12:10.436Z</time>
      </trkpt>
      <trkpt lat="47.4225" lon="6.7382">
        <ele>498</ele>
        <time>2014-01-25T15:12:15.137Z</time>
      </trkpt>
      <trkpt lat="47.42251" lon="6.7382">
        <ele>498</ele>
        <time>2014-01-25T15:12:20.171Z</time>
      </trkpt>
      <trkpt lat="47.42249" lon="6.73822">
        <ele>499</ele>
        <time>2014-01-25T15:12:25.207Z</time>
      </trkpt>
      <trkpt lat="47.42247" lon="6.73821">
        <ele>499</ele>
        <time>2014-01-25T15:12:30.166Z</time>
      </trkpt>
      <trkpt lat="47.42245" lon="6.73823">
        <ele>501</ele>
        <time>2014-01-25T15:12:35.265Z</time>
      </trkpt>
      <trkpt lat="47.42243" lon="6.73825">
        <ele>500</ele>
        <time>2014-01-25T15:12:40.168Z</time>
      </trkpt>
      <trkpt lat="47.42243" lon="6.73827">
        <ele>501</ele>
        <time>2014-01-25T15:12:45.247Z</time>
      </trkpt>
      <trkpt lat="47.42241" lon="6.73828">
        <ele>502</ele>
        <time>2014-01-25T15:12:50.172Z</time>
      </trkpt>
      <trkpt lat="47.4224" lon="6.73832">
        <ele>504</ele>
        <time>2014-01-25T15:12:55.201Z</time>
      </trkpt>
      <trkpt lat="47.42242" lon="6.73836">
        <ele>504</ele>
        <time>2014-01-25T15:13:05.179Z</time>
      </trkpt>
      <trkpt lat="47.42242" lon="6.73839">
        <ele>506</ele>
        <time>2014-01-25T15:13:10.146Z</time>
      </trkpt>
      <trkpt lat="47.42238" lon="6.73839">
        <ele>509</ele>
        <time>2014-01-25T15:13:15.231Z</time>
      </trkpt>
      <trkpt lat="47.42237" lon="6.73842">
        <ele>511</ele>
        <time>2014-01-25T15:13:20.178Z</time>
      </trkpt>
      <trkpt lat="47.42237" lon="6.73843">
        <ele>512</ele>
        <time>2014-01-25T15:13:25.234Z</time>
      </trkpt>
      <trkpt lat="47.42238" lon="6.7384">
        <ele>512</ele>
        <time>2014-01-25T15:13:30.172Z</time>
      </trkpt>
      <trkpt lat="47.4224" lon="6.7384">
        <ele>512</ele>
        <time>2014-01-25T15:13:35.251Z</time>
      </trkpt>
      <trkpt lat="47.42242" lon="6.7384">
        <ele>511</ele>
        <time>2014-01-25T15:13:40.175Z</time>
      </trkpt>
      <trkpt lat="47.4224" lon="6.7384">
        <ele>512</ele>
        <time>2014-01-25T15:13:45.249Z</time>
      </trkpt>
      <trkpt lat="47.4224" lon="6.7384">
        <ele>512</ele>
        <time>2014-01-25T15:13:50.180Z</time>
      </trkpt>
      <trkpt lat="47.42241" lon="6.7384">
        <ele>513</ele>
        <time>2014-01-25T15:13:55.247Z</time>
      </trkpt>
      <trkpt lat="47.42247" lon="6.73838">
        <ele>510</ele>
        <time>2014-01-25T15:14:00.199Z</time>
      </trkpt>
      <trkpt lat="47.4225" lon="6.73832">
        <ele>507</ele>
        <time>2014-01-25T15:14:05.177Z</time>
      </trkpt>
      <trkpt lat="47.4225" lon="6.73825">
        <ele>506</ele>
        <time>2014-01-25T15:14:10.214Z</time>
      </trkpt>
      <trkpt lat="47.42252" lon="6.73823">
        <ele>505</ele>
        <time>2014-01-25T15:14:15.248Z</time>
      </trkpt>
      <trkpt lat="47.42255" lon="6.73822">
        <ele>504</ele>
        <time>2014-01-25T15:14:20.180Z</time>
      </trkpt>
      <trkpt lat="47.42256" lon="6.73822">
        <ele>504</ele>
        <time>2014-01-25T15:14:25.358Z</time>
      </trkpt>
      <trkpt lat="47.42256" lon="6.73822">
        <ele>504</ele>
        <time>2014-01-25T15:14:30.180Z</time>
      </trkpt>
      <trkpt lat="47.42256" lon="6.73822">
        <ele>504</ele>
        <time>2014-01-25T15:14:35.240Z</time>
      </trkpt>
      <trkpt lat="47.42256" lon="6.73822">
        <ele>504</ele>
        <time>2014-01-25T15:14:40.213Z</time>
      </trkpt>
      <trkpt lat="47.42257" lon="6.7382">
        <ele>503</ele>
        <time>2014-01-25T15:14:45.198Z</time>
      </trkpt>
      <trkpt lat="47.42257" lon="6.7382">
        <ele>503</ele>
        <time>2014-01-25T15:14:50.246Z</time>
      </trkpt>
      <trkpt lat="47.42257" lon="6.7382">
        <ele>502</ele>
        <time>2014-01-25T15:14:55.178Z</time>
      </trkpt>
      <trkpt lat="47.42257" lon="6.7382">
        <ele>502</ele>
        <time>2014-01-25T15:15:00.189Z</time>
      </trkpt>
      <trkpt lat="47.42258" lon="6.73819">
        <ele>502</ele>
        <time>2014-01-25T15:15:05.224Z</time>
      </trkpt>
      <trkpt lat="47.42259" lon="6.73817">
        <ele>501</ele>
        <time>2014-01-25T15:15:10.168Z</time>
      </trkpt>
      <trkpt lat="47.42259" lon="6.73817">
        <ele>501</ele>
        <time>2014-01-25T15:15:15.251Z</time>
      </trkpt>
      <trkpt lat="47.42259" lon="6.73816">
        <ele>501</ele>
        <time>2014-01-25T15:15:20.171Z</time>
      </trkpt>
      <trkpt lat="47.42258" lon="6.73815">
        <ele>501</ele>
        <time>2014-01-25T15:15:25.248Z</time>
      </trkpt>
      <trkpt lat="47.42259" lon="6.73813">
        <ele>501</ele>
        <time>2014-01-25T15:15:30.226Z</time>
      </trkpt>
      <trkpt lat="47.4226" lon="6.73812">
        <ele>501</ele>
        <time>2014-01-25T15:15:35.212Z</time>
      </trkpt>
      <trkpt lat="47.42261" lon="6.73811">
        <ele>500</ele>
        <time>2014-01-25T15:15:40.197Z</time>
      </trkpt>
      <trkpt lat="47.42263" lon="6.73811">
        <ele>500</ele>
        <time>2014-01-25T15:15:45.245Z</time>
      </trkpt>
      <trkpt lat="47.42261" lon="6.73814">
        <ele>499</ele>
        <time>2014-01-25T15:15:50.179Z</time>
      </trkpt>
      <trkpt lat="47.42262" lon="6.73814">
        <ele>499</ele>
        <time>2014-01-25T15:15:55.246Z</time>
      </trkpt>
      <trkpt lat="47.42262" lon="6.73817">
        <ele>499</ele>
        <time>2014-01-25T15:16:15.143Z</time>
      </trkpt>
      <trkpt lat="47.42262" lon="6.73818">
        <ele>499</ele>
        <time>2014-01-25T15:16:20.246Z</time>
      </trkpt>
      <trkpt lat="47.42263" lon="6.73821">
        <ele>499</ele>
        <time>2014-01-25T15:16:25.175Z</time>
      </trkpt>
      <trkpt lat="47.42263" lon="6.73823">
        <ele>509</ele>
        <time>2014-01-25T15:16:30.250Z</time>
      </trkpt>
      <trkpt lat="47.42262" lon="6.73824">
        <ele>509</ele>
        <time>2014-01-25T15:16:35.181Z</time>
      </trkpt>
      <trkpt lat="47.42262" lon="6.73825">
        <ele>509</ele>
        <time>2014-01-25T15:16:40.227Z</time>
      </trkpt>
      <trkpt lat="47.42261" lon="6.7382">
        <ele>507</ele>
        <time>2014-01-25T15:16:45.171Z</time>
      </trkpt>
      <trkpt lat="47.42258" lon="6.73817">
        <ele>506</ele>
        <time>2014-01-25T15:16:50.248Z</time>
      </trkpt>
      <trkpt lat="47.42257" lon="6.73816">
        <ele>505</ele>
        <time>2014-01-25T15:16:55.180Z</time>
      </trkpt>
      <trkpt lat="47.42247" lon="6.73813">
        <ele>507</ele>
        <time>2014-01-25T15:17:15.563Z</time>
      </trkpt>
      <trkpt lat="47.42247" lon="6.73812">
        <ele>507</ele>
        <time>2014-01-25T15:17:20.243Z</time>
      </trkpt>
      <trkpt lat="47.42246" lon="6.73824">
        <ele>506</ele>
        <time>2014-01-25T15:17:25.180Z</time>
      </trkpt>
      <trkpt lat="47.42249" lon="6.73854">
        <ele>506</ele>
        <time>2014-01-25T15:17:30.241Z</time>
      </trkpt>
      <trkpt lat="47.42254" lon="6.73896">
        <ele>506</ele>
        <time>2014-01-25T15:17:35.180Z</time>
      </trkpt>
      <trkpt lat="47.42267" lon="6.73939">
        <ele>502</ele>
        <time>2014-01-25T15:17:40.246Z</time>
      </trkpt>
      <trkpt lat="47.42282" lon="6.73969">
        <ele>499</ele>
        <time>2014-01-25T15:17:45.167Z</time>
      </trkpt>
      <trkpt lat="47.42295" lon="6.73986">
        <ele>496</ele>
        <time>2014-01-25T15:17:50.203Z</time>
      </trkpt>
      <trkpt lat="47.42299" lon="6.7399">
        <ele>495</ele>
        <time>2014-01-25T15:17:55.171Z</time>
      </trkpt>
      <trkpt lat="47.42306" lon="6.73999">
        <ele>492</ele>
        <time>2014-01-25T15:18:15.183Z</time>
      </trkpt>
      <trkpt lat="47.42306" lon="6.73999">
        <ele>492</ele>
        <time>2014-01-25T15:18:20.242Z</time>
      </trkpt>
      <trkpt lat="47.42306" lon="6.73999">
        <ele>492</ele>
        <time>2014-01-25T15:18:25.167Z</time>
      </trkpt>
      <trkpt lat="47.42308" lon="6.74002">
        <ele>492</ele>
        <time>2014-01-25T15:18:30.245Z</time>
      </trkpt>
      <trkpt lat="47.42308" lon="6.74012">
        <ele>492</ele>
        <time>2014-01-25T15:18:35.172Z</time>
      </trkpt>
      <trkpt lat="47.42307" lon="6.74029">
        <ele>492</ele>
        <time>2014-01-25T15:18:40.173Z</time>
      </trkpt>
      <trkpt lat="47.42306" lon="6.74047">
        <ele>491</ele>
        <time>2014-01-25T15:18:45.158Z</time>
      </trkpt>
      <trkpt lat="47.42305" lon="6.74075">
        <ele>492</ele>
        <time>2014-01-25T15:18:50.171Z</time>
      </trkpt>
      <trkpt lat="47.42313" lon="6.74102">
        <ele>491</ele>
        <time>2014-01-25T15:18:55.170Z</time>
      </trkpt>
      <trkpt lat="47.42328" lon="6.74147">
        <ele>488</ele>
        <time>2014-01-25T15:19:05.174Z</time>
      </trkpt>
      <trkpt lat="47.42329" lon="6.74168">
        <ele>488</ele>
        <time>2014-01-25T15:19:10.243Z</time>
      </trkpt>
      <trkpt lat="47.42336" lon="6.7419">
        <ele>488</ele>
        <time>2014-01-25T15:19:15.168Z</time>
      </trkpt>
      <trkpt lat="47.42349" lon="6.74209">
        <ele>488</ele>
        <time>2014-01-25T15:19:20.210Z</time>
      </trkpt>
      <trkpt lat="47.42359" lon="6.74226">
        <ele>486</ele>
        <time>2014-01-25T15:19:25.162Z</time>
      </trkpt>
      <trkpt lat="47.42362" lon="6.74242">
        <ele>486</ele>
        <time>2014-01-25T15:19:30.240Z</time>
      </trkpt>
      <trkpt lat="47.42364" lon="6.74254">
        <ele>485</ele>
        <time>2014-01-25T15:19:35.161Z</time>
      </trkpt>
      <trkpt lat="47.42377" lon="6.74263">
        <ele>483</ele>
        <time>2014-01-25T15:19:40.241Z</time>
      </trkpt>
      <trkpt lat="47.42392" lon="6.74269">
        <ele>483</ele>
        <time>2014-01-25T15:19:45.162Z</time>
      </trkpt>
      <trkpt lat="47.4241" lon="6.74275">
        <ele>482</ele>
        <time>2014-01-25T15:19:50.221Z</time>
      </trkpt>
      <trkpt lat="47.42428" lon="6.74274">
        <ele>482</ele>
        <time>2014-01-25T15:19:55.162Z</time>
      </trkpt>
      <trkpt lat="47.42476" lon="6.7427">
        <ele>482</ele>
        <time>2014-01-25T15:20:12.264Z</time>
      </trkpt>
      <trkpt lat="47.42495" lon="6.74274">
        <ele>483</ele>
        <time>2014-01-25T15:20:15.167Z</time>
      </trkpt>
      <trkpt lat="47.42517" lon="6.74276">
        <ele>486</ele>
        <time>2014-01-25T15:20:20.206Z</time>
      </trkpt>
      <trkpt lat="47.42541" lon="6.74282">
        <ele>487</ele>
        <time>2014-01-25T15:20:25.171Z</time>
      </trkpt>
      <trkpt lat="47.42564" lon="6.74284">
        <ele>487</ele>
        <time>2014-01-25T15:20:30.199Z</time>
      </trkpt>
      <trkpt lat="47.42589" lon="6.74287">
        <ele>487</ele>
        <time>2014-01-25T15:20:35.167Z</time>
      </trkpt>
      <trkpt lat="47.42621" lon="6.74291">
        <ele>486</ele>
        <time>2014-01-25T15:20:40.241Z</time>
      </trkpt>
      <trkpt lat="47.42658" lon="6.74277">
        <ele>484</ele>
        <time>2014-01-25T15:20:45.694Z</time>
      </trkpt>
      <trkpt lat="47.42687" lon="6.74264">
        <ele>482</ele>
        <time>2014-01-25T15:20:50.247Z</time>
      </trkpt>
      <trkpt lat="47.42706" lon="6.74264">
        <ele>481</ele>
        <time>2014-01-25T15:20:55.230Z</time>
      </trkpt>
      <trkpt lat="47.42731" lon="6.74272">
        <ele>482</ele>
        <time>2014-01-25T15:21:00.334Z</time>
      </trkpt>
      <trkpt lat="47.42749" lon="6.74272">
        <ele>482</ele>
        <time>2014-01-25T15:21:05.247Z</time>
      </trkpt>
      <trkpt lat="47.42765" lon="6.74275">
        <ele>483</ele>
        <time>2014-01-25T15:21:10.163Z</time>
      </trkpt>
      <trkpt lat="47.42782" lon="6.74285">
        <ele>483</ele>
        <time>2014-01-25T15:21:15.217Z</time>
      </trkpt>
      <trkpt lat="47.42793" lon="6.74291">
        <ele>482</ele>
        <time>2014-01-25T15:21:20.164Z</time>
      </trkpt>
      <trkpt lat="47.4282" lon="6.74309">
        <ele>481</ele>
        <time>2014-01-25T15:21:30.141Z</time>
      </trkpt>
      <trkpt lat="47.4282" lon="6.74309">
        <ele>481</ele>
        <time>2014-01-25T15:21:30.141Z</time>
      </trkpt>
      <trkpt lat="47.4285" lon="6.74335">
        <ele>480</ele>
        <time>2014-01-25T15:21:40.162Z</time>
      </trkpt>
      <trkpt lat="47.42865" lon="6.74349">
        <ele>479</ele>
        <time>2014-01-25T15:21:45.243Z</time>
      </trkpt>
      <trkpt lat="47.42878" lon="6.74368">
        <ele>477</ele>
        <time>2014-01-25T15:21:50.160Z</time>
      </trkpt>
      <trkpt lat="47.42896" lon="6.7438">
        <ele>476</ele>
        <time>2014-01-25T15:21:55.208Z</time>
      </trkpt>
      <trkpt lat="47.42915" lon="6.74395">
        <ele>475</ele>
        <time>2014-01-25T15:22:00.243Z</time>
      </trkpt>
      <trkpt lat="47.42935" lon="6.74404">
        <ele>474</ele>
        <time>2014-01-25T15:22:05.242Z</time>
      </trkpt>
      <trkpt lat="47.42961" lon="6.74408">
        <ele>471</ele>
        <time>2014-01-25T15:22:10.144Z</time>
      </trkpt>
      <trkpt lat="47.42986" lon="6.74406">
        <ele>471</ele>
        <time>2014-01-25T15:22:15.241Z</time>
      </trkpt>
      <trkpt lat="47.43004" lon="6.74404">
        <ele>472</ele>
        <time>2014-01-25T15:22:20.162Z</time>
      </trkpt>
      <trkpt lat="47.43026" lon="6.74395">
        <ele>473</ele>
        <time>2014-01-25T15:22:25.166Z</time>
      </trkpt>
      <trkpt lat="47.43043" lon="6.74389">
        <ele>471</ele>
        <time>2014-01-25T15:22:30.235Z</time>
      </trkpt>
      <trkpt lat="47.4307" lon="6.74378">
        <ele>470</ele>
        <time>2014-01-25T15:22:35.165Z</time>
      </trkpt>
      <trkpt lat="47.43119" lon="6.74355">
        <ele>470</ele>
        <time>2014-01-25T15:22:40.240Z</time>
      </trkpt>
      <trkpt lat="47.43158" lon="6.74344">
        <ele>469</ele>
        <time>2014-01-25T15:22:45.169Z</time>
      </trkpt>
      <trkpt lat="47.43194" lon="6.74359">
        <ele>465</ele>
        <time>2014-01-25T15:22:50.243Z</time>
      </trkpt>
      <trkpt lat="47.43228" lon="6.74366">
        <ele>462</ele>
        <time>2014-01-25T15:22:55.164Z</time>
      </trkpt>
      <trkpt lat="47.43253" lon="6.74368">
        <ele>460</ele>
        <time>2014-01-25T15:23:00.166Z</time>
      </trkpt>
      <trkpt lat="47.43278" lon="6.74371">
        <ele>459</ele>
        <time>2014-01-25T15:23:05.245Z</time>
      </trkpt>
      <trkpt lat="47.43301" lon="6.74374">
        <ele>455</ele>
        <time>2014-01-25T15:23:10.167Z</time>
      </trkpt>
      <trkpt lat="47.43316" lon="6.74382">
        <ele>450</ele>
        <time>2014-01-25T15:23:15.244Z</time>
      </trkpt>
      <trkpt lat="47.43337" lon="6.74392">
        <ele>449</ele>
        <time>2014-01-25T15:23:20.172Z</time>
      </trkpt>
      <trkpt lat="47.43358" lon="6.74403">
        <ele>448</ele>
        <time>2014-01-25T15:23:25.245Z</time>
      </trkpt>
      <trkpt lat="47.43378" lon="6.74411">
        <ele>448</ele>
        <time>2014-01-25T15:23:30.247Z</time>
      </trkpt>
      <trkpt lat="47.43396" lon="6.74421">
        <ele>447</ele>
        <time>2014-01-25T15:23:35.177Z</time>
      </trkpt>
      <trkpt lat="47.43416" lon="6.74429">
        <ele>446</ele>
        <time>2014-01-25T15:23:40.247Z</time>
      </trkpt>
      <trkpt lat="47.43435" lon="6.74439">
        <ele>446</ele>
        <time>2014-01-25T15:23:45.167Z</time>
      </trkpt>
      <trkpt lat="47.43453" lon="6.74447">
        <ele>446</ele>
        <time>2014-01-25T15:23:50.247Z</time>
      </trkpt>
      <trkpt lat="47.43471" lon="6.7445">
        <ele>446</ele>
        <time>2014-01-25T15:23:55.172Z</time>
      </trkpt>
      <trkpt lat="47.43507" lon="6.74454">
        <ele>447</ele>
        <time>2014-01-25T15:24:05.164Z</time>
      </trkpt>
      <trkpt lat="47.43526" lon="6.74461">
        <ele>448</ele>
        <time>2014-01-25T15:24:10.250Z</time>
      </trkpt>
      <trkpt lat="47.43541" lon="6.74466">
        <ele>449</ele>
        <time>2014-01-25T15:24:15.174Z</time>
      </trkpt>
      <trkpt lat="47.43554" lon="6.74472">
        <ele>449</ele>
        <time>2014-01-25T15:24:20.249Z</time>
      </trkpt>
      <trkpt lat="47.43567" lon="6.74479">
        <ele>449</ele>
        <time>2014-01-25T15:24:25.179Z</time>
      </trkpt>
      <trkpt lat="47.43582" lon="6.74487">
        <ele>450</ele>
        <time>2014-01-25T15:24:30.243Z</time>
      </trkpt>
      <trkpt lat="47.43597" lon="6.74498">
        <ele>450</ele>
        <time>2014-01-25T15:24:35.184Z</time>
      </trkpt>
      <trkpt lat="47.43613" lon="6.74517">
        <ele>449</ele>
        <time>2014-01-25T15:24:40.247Z</time>
      </trkpt>
      <trkpt lat="47.43634" lon="6.74543">
        <ele>448</ele>
        <time>2014-01-25T15:24:45.192Z</time>
      </trkpt>
      <trkpt lat="47.43661" lon="6.74574">
        <ele>447</ele>
        <time>2014-01-25T15:24:50.244Z</time>
      </trkpt>
      <trkpt lat="47.43697" lon="6.74612">
        <ele>446</ele>
        <time>2014-01-25T15:24:55.172Z</time>
      </trkpt>
      <trkpt lat="47.43747" lon="6.74657">
        <ele>440</ele>
        <time>2014-01-25T15:25:00.178Z</time>
      </trkpt>
      <trkpt lat="47.43797" lon="6.74704">
        <ele>436</ele>
        <time>2014-01-25T15:25:05.212Z</time>
      </trkpt>
      <trkpt lat="47.4384" lon="6.74754">
        <ele>432</ele>
        <time>2014-01-25T15:25:10.181Z</time>
      </trkpt>
      <trkpt lat="47.43882" lon="6.74795">
        <ele>429</ele>
        <time>2014-01-25T15:25:15.247Z</time>
      </trkpt>
      <trkpt lat="47.43923" lon="6.74812">
        <ele>430</ele>
        <time>2014-01-25T15:25:20.182Z</time>
      </trkpt>
      <trkpt lat="47.43963" lon="6.74837">
        <ele>429</ele>
        <time>2014-01-25T15:25:25.247Z</time>
      </trkpt>
      <trkpt lat="47.43998" lon="6.74874">
        <ele>428</ele>
        <time>2014-01-25T15:25:30.177Z</time>
      </trkpt>
      <trkpt lat="47.44027" lon="6.74924">
        <ele>428</ele>
        <time>2014-01-25T15:25:35.247Z</time>
      </trkpt>
      <trkpt lat="47.44055" lon="6.74971">
        <ele>427</ele>
        <time>2014-01-25T15:25:40.173Z</time>
      </trkpt>
      <trkpt lat="47.44082" lon="6.75022">
        <ele>427</ele>
        <time>2014-01-25T15:25:45.247Z</time>
      </trkpt>
      <trkpt lat="47.44107" lon="6.75079">
        <ele>426</ele>
        <time>2014-01-25T15:25:50.170Z</time>
      </trkpt>
      <trkpt lat="47.44132" lon="6.75131">
        <ele>426</ele>
        <time>2014-01-25T15:25:55.247Z</time>
      </trkpt>
      <trkpt lat="47.44224" lon="6.75247">
        <ele>424</ele>
        <time>2014-01-25T15:26:10.205Z</time>
      </trkpt>
      <trkpt lat="47.44261" lon="6.75277">
        <ele>423</ele>
        <time>2014-01-25T15:26:15.181Z</time>
      </trkpt>
      <trkpt lat="47.44301" lon="6.75305">
        <ele>422</ele>
        <time>2014-01-25T15:26:20.248Z</time>
      </trkpt>
      <trkpt lat="47.44334" lon="6.7531">
        <ele>424</ele>
        <time>2014-01-25T15:26:25.171Z</time>
      </trkpt>
      <trkpt lat="47.44381" lon="6.75347">
        <ele>424</ele>
        <time>2014-01-25T15:26:30.246Z</time>
      </trkpt>
      <trkpt lat="47.44421" lon="6.75391">
        <ele>424</ele>
        <time>2014-01-25T15:26:35.172Z</time>
      </trkpt>
      <trkpt lat="47.44458" lon="6.75425">
        <ele>425</ele>
        <time>2014-01-25T15:26:40.210Z</time>
      </trkpt>
      <trkpt lat="47.44494" lon="6.75447">
        <ele>424</ele>
        <time>2014-01-25T15:26:45.171Z</time>
      </trkpt>
      <trkpt lat="47.44525" lon="6.75453">
        <ele>425</ele>
        <time>2014-01-25T15:26:50.247Z</time>
      </trkpt>
      <trkpt lat="47.44575" lon="6.75461">
        <ele>425</ele>
        <time>2014-01-25T15:26:55.173Z</time>
      </trkpt>
      <trkpt lat="47.44618" lon="6.75465">
        <ele>426</ele>
        <time>2014-01-25T15:27:00.566Z</time>
      </trkpt>
      <trkpt lat="47.44652" lon="6.7547">
        <ele>427</ele>
        <time>2014-01-25T15:27:05.217Z</time>
      </trkpt>
      <trkpt lat="47.44694" lon="6.75472">
        <ele>427</ele>
        <time>2014-01-25T15:27:10.345Z</time>
      </trkpt>
      <trkpt lat="47.44736" lon="6.75471">
        <ele>427</ele>
        <time>2014-01-25T15:27:15.276Z</time>
      </trkpt>
      <trkpt lat="47.44777" lon="6.75469">
        <ele>428</ele>
        <time>2014-01-25T15:27:20.344Z</time>
      </trkpt>
      <trkpt lat="47.44818" lon="6.75465">
        <ele>429</ele>
        <time>2014-01-25T15:27:25.260Z</time>
      </trkpt>
      <trkpt lat="47.4486" lon="6.75457">
        <ele>427</ele>
        <time>2014-01-25T15:27:30.342Z</time>
      </trkpt>
      <trkpt lat="47.44901" lon="6.75456">
        <ele>425</ele>
        <time>2014-01-25T15:27:35.265Z</time>
      </trkpt>
      <trkpt lat="47.44942" lon="6.7545">
        <ele>418</ele>
        <time>2014-01-25T15:27:40.350Z</time>
      </trkpt>
      <trkpt lat="47.44982" lon="6.75454">
        <ele>416</ele>
        <time>2014-01-25T15:27:45.277Z</time>
      </trkpt>
      <trkpt lat="47.45019" lon="6.75454">
        <ele>415</ele>
        <time>2014-01-25T15:27:50.349Z</time>
      </trkpt>
      <trkpt lat="47.45057" lon="6.75451">
        <ele>413</ele>
        <time>2014-01-25T15:27:55.267Z</time>
      </trkpt>
      <trkpt lat="47.45096" lon="6.75442">
        <ele>411</ele>
        <time>2014-01-25T15:28:00.335Z</time>
      </trkpt>
      <trkpt lat="47.45132" lon="6.75434">
        <ele>408</ele>
        <time>2014-01-25T15:28:05.268Z</time>
      </trkpt>
      <trkpt lat="47.45171" lon="6.75423">
        <ele>408</ele>
        <time>2014-01-25T15:28:10.351Z</time>
      </trkpt>
      <trkpt lat="47.45209" lon="6.75407">
        <ele>409</ele>
        <time>2014-01-25T15:28:15.274Z</time>
      </trkpt>
      <trkpt lat="47.45245" lon="6.7539">
        <ele>411</ele>
        <time>2014-01-25T15:28:20.345Z</time>
      </trkpt>
      <trkpt lat="47.45279" lon="6.7537">
        <ele>411</ele>
        <time>2014-01-25T15:28:25.268Z</time>
      </trkpt>
      <trkpt lat="47.45311" lon="6.75349">
        <ele>410</ele>
        <time>2014-01-25T15:28:30.343Z</time>
      </trkpt>
      <trkpt lat="47.45339" lon="6.75338">
        <ele>412</ele>
        <time>2014-01-25T15:28:35.281Z</time>
      </trkpt>
      <trkpt lat="47.4537" lon="6.75328">
        <ele>411</ele>
        <time>2014-01-25T15:28:40.342Z</time>
      </trkpt>
      <trkpt lat="47.45411" lon="6.75317">
        <ele>410</ele>
        <time>2014-01-25T15:28:45.236Z</time>
      </trkpt>
      <trkpt lat="47.45445" lon="6.75322">
        <ele>410</ele>
        <time>2014-01-25T15:28:50.351Z</time>
      </trkpt>
      <trkpt lat="47.4549" lon="6.75339">
        <ele>408</ele>
        <time>2014-01-25T15:28:55.265Z</time>
      </trkpt>
      <trkpt lat="47.45567" lon="6.75375">
        <ele>408</ele>
        <time>2014-01-25T15:29:05.268Z</time>
      </trkpt>
      <trkpt lat="47.45605" lon="6.75396">
        <ele>408</ele>
        <time>2014-01-25T15:29:10.346Z</time>
      </trkpt>
      <trkpt lat="47.45643" lon="6.75424">
        <ele>406</ele>
        <time>2014-01-25T15:29:15.265Z</time>
      </trkpt>
      <trkpt lat="47.45674" lon="6.75456">
        <ele>406</ele>
        <time>2014-01-25T15:29:20.352Z</time>
      </trkpt>
      <trkpt lat="47.45702" lon="6.75487">
        <ele>404</ele>
        <time>2014-01-25T15:29:25.266Z</time>
      </trkpt>
      <trkpt lat="47.45729" lon="6.75525">
        <ele>400</ele>
        <time>2014-01-25T15:29:30.320Z</time>
      </trkpt>
      <trkpt lat="47.45757" lon="6.75573">
        <ele>399</ele>
        <time>2014-01-25T15:29:35.270Z</time>
      </trkpt>
      <trkpt lat="47.45787" lon="6.75619">
        <ele>398</ele>
        <time>2014-01-25T15:29:40.341Z</time>
      </trkpt>
      <trkpt lat="47.45824" lon="6.75654">
        <ele>396</ele>
        <time>2014-01-25T15:29:45.284Z</time>
      </trkpt>
      <trkpt lat="47.45854" lon="6.75683">
        <ele>397</ele>
        <time>2014-01-25T15:29:50.319Z</time>
      </trkpt>
      <trkpt lat="47.45882" lon="6.75708">
        <ele>398</ele>
        <time>2014-01-25T15:29:55.278Z</time>
      </trkpt>
      <trkpt lat="47.45913" lon="6.75735">
        <ele>399</ele>
        <time>2014-01-25T15:30:00.312Z</time>
      </trkpt>
      <trkpt lat="47.45941" lon="6.75761">
        <ele>400</ele>
        <time>2014-01-25T15:30:05.275Z</time>
      </trkpt>
      <trkpt lat="47.45961" lon="6.75775">
        <ele>400</ele>
        <time>2014-01-25T15:30:10.345Z</time>
      </trkpt>
      <trkpt lat="47.45986" lon="6.758">
        <ele>399</ele>
        <time>2014-01-25T15:30:15.273Z</time>
      </trkpt>
      <trkpt lat="47.46005" lon="6.75824">
        <ele>399</ele>
        <time>2014-01-25T15:30:20.312Z</time>
      </trkpt>
      <trkpt lat="47.46025" lon="6.75849">
        <ele>399</ele>
        <time>2014-01-25T15:30:25.281Z</time>
      </trkpt>
      <trkpt lat="47.46049" lon="6.7589">
        <ele>397</ele>
        <time>2014-01-25T15:30:30.352Z</time>
      </trkpt>
      <trkpt lat="47.46071" lon="6.75937">
        <ele>396</ele>
        <time>2014-01-25T15:30:35.272Z</time>
      </trkpt>
      <trkpt lat="47.46089" lon="6.75981">
        <ele>395</ele>
        <time>2014-01-25T15:30:40.352Z</time>
      </trkpt>
      <trkpt lat="47.46108" lon="6.76024">
        <ele>395</ele>
        <time>2014-01-25T15:30:45.279Z</time>
      </trkpt>
      <trkpt lat="47.4613" lon="6.76068">
        <ele>392</ele>
        <time>2014-01-25T15:30:50.346Z</time>
      </trkpt>
      <trkpt lat="47.46156" lon="6.76111">
        <ele>390</ele>
        <time>2014-01-25T15:30:55.255Z</time>
      </trkpt>
      <trkpt lat="47.46184" lon="6.76152">
        <ele>388</ele>
        <time>2014-01-25T15:31:00.323Z</time>
      </trkpt>
      <trkpt lat="47.46213" lon="6.76189">
        <ele>388</ele>
        <time>2014-01-25T15:31:05.272Z</time>
      </trkpt>
      <trkpt lat="47.46241" lon="6.76221">
        <ele>387</ele>
        <time>2014-01-25T15:31:10.335Z</time>
      </trkpt>
      <trkpt lat="47.46262" lon="6.7625">
        <ele>386</ele>
        <time>2014-01-25T15:31:15.273Z</time>
      </trkpt>
      <trkpt lat="47.4628" lon="6.76258">
        <ele>385</ele>
        <time>2014-01-25T15:31:20.349Z</time>
      </trkpt>
      <trkpt lat="47.46289" lon="6.7626">
        <ele>386</ele>
        <time>2014-01-25T15:31:25.271Z</time>
      </trkpt>
      <trkpt lat="47.46295" lon="6.7626">
        <ele>385</ele>
        <time>2014-01-25T15:31:30.352Z</time>
      </trkpt>
      <trkpt lat="47.46306" lon="6.76265">
        <ele>386</ele>
        <time>2014-01-25T15:31:35.265Z</time>
      </trkpt>
      <trkpt lat="47.46316" lon="6.76266">
        <ele>387</ele>
        <time>2014-01-25T15:31:40.273Z</time>
      </trkpt>
      <trkpt lat="47.46321" lon="6.76265">
        <ele>387</ele>
        <time>2014-01-25T15:31:45.263Z</time>
      </trkpt>
      <trkpt lat="47.46331" lon="6.76271">
        <ele>388</ele>
        <time>2014-01-25T15:31:50.344Z</time>
      </trkpt>
      <trkpt lat="47.46339" lon="6.76269">
        <ele>387</ele>
        <time>2014-01-25T15:31:55.239Z</time>
      </trkpt>
      <trkpt lat="47.46359" lon="6.76277">
        <ele>386</ele>
        <time>2014-01-25T15:32:00.331Z</time>
      </trkpt>
      <trkpt lat="47.46371" lon="6.76278">
        <ele>387</ele>
        <time>2014-01-25T15:32:05.266Z</time>
      </trkpt>
      <trkpt lat="47.46383" lon="6.76285">
        <ele>386</ele>
        <time>2014-01-25T15:32:10.335Z</time>
      </trkpt>
      <trkpt lat="47.46396" lon="6.76287">
        <ele>388</ele>
        <time>2014-01-25T15:32:15.266Z</time>
      </trkpt>
      <trkpt lat="47.46412" lon="6.76283">
        <ele>389</ele>
        <time>2014-01-25T15:32:20.346Z</time>
      </trkpt>
      <trkpt lat="47.46424" lon="6.76283">
        <ele>388</ele>
        <time>2014-01-25T15:32:25.275Z</time>
      </trkpt>
      <trkpt lat="47.46435" lon="6.76285">
        <ele>388</ele>
        <time>2014-01-25T15:32:30.349Z</time>
      </trkpt>
      <trkpt lat="47.46449" lon="6.7629">
        <ele>388</ele>
        <time>2014-01-25T15:32:35.273Z</time>
      </trkpt>
      <trkpt lat="47.46464" lon="6.76289">
        <ele>387</ele>
        <time>2014-01-25T15:32:40.319Z</time>
      </trkpt>
      <trkpt lat="47.46478" lon="6.7629">
        <ele>388</ele>
        <time>2014-01-25T15:32:45.238Z</time>
      </trkpt>
      <trkpt lat="47.4649" lon="6.7629">
        <ele>389</ele>
        <time>2014-01-25T15:32:50.349Z</time>
      </trkpt>
      <trkpt lat="47.46501" lon="6.7629">
        <ele>390</ele>
        <time>2014-01-25T15:32:55.270Z</time>
      </trkpt>
      <trkpt lat="47.46514" lon="6.76295">
        <ele>389</ele>
        <time>2014-01-25T15:33:00.256Z</time>
      </trkpt>
      <trkpt lat="47.46526" lon="6.76298">
        <ele>388</ele>
        <time>2014-01-25T15:33:05.353Z</time>
      </trkpt>
      <trkpt lat="47.46537" lon="6.76298">
        <ele>388</ele>
        <time>2014-01-25T15:33:10.263Z</time>
      </trkpt>
      <trkpt lat="47.46547" lon="6.76296">
        <ele>389</ele>
        <time>2014-01-25T15:33:15.348Z</time>
      </trkpt>
      <trkpt lat="47.46547" lon="6.76296">
        <ele>389</ele>
        <time>2014-01-25T15:33:20.262Z</time>
      </trkpt>
      <trkpt lat="47.46552" lon="6.76298">
        <ele>386</ele>
        <time>2014-01-25T15:33:25.348Z</time>
      </trkpt>
      <trkpt lat="47.46553" lon="6.76298">
        <ele>385</ele>
        <time>2014-01-25T15:33:30.270Z</time>
      </trkpt>
      <trkpt lat="47.46554" lon="6.76297">
        <ele>384</ele>
        <time>2014-01-25T15:33:35.345Z</time>
      </trkpt>
      <trkpt lat="47.46555" lon="6.76297">
        <ele>384</ele>
        <time>2014-01-25T15:33:40.261Z</time>
      </trkpt>
      <trkpt lat="47.46556" lon="6.76296">
        <ele>383</ele>
        <time>2014-01-25T15:33:45.331Z</time>
      </trkpt>
      <trkpt lat="47.46557" lon="6.76297">
        <ele>383</ele>
        <time>2014-01-25T15:33:50.345Z</time>
      </trkpt>
      <trkpt lat="47.46557" lon="6.76293">
        <ele>383</ele>
        <time>2014-01-25T15:33:55.260Z</time>
      </trkpt>
      <trkpt lat="47.46557" lon="6.76284">
        <ele>382</ele>
        <time>2014-01-25T15:34:01.582Z</time>
      </trkpt>
      <trkpt lat="47.46557" lon="6.76287">
        <ele>383</ele>
        <time>2014-01-25T15:34:05.542Z</time>
      </trkpt>
      <trkpt lat="47.46566" lon="6.76296">
        <ele>384</ele>
        <time>2014-01-25T15:34:10.329Z</time>
      </trkpt>
      <trkpt lat="47.46577" lon="6.76304">
        <ele>384</ele>
        <time>2014-01-25T15:34:15.265Z</time>
      </trkpt>
      <trkpt lat="47.46591" lon="6.76306">
        <ele>387</ele>
        <time>2014-01-25T15:34:20.339Z</time>
      </trkpt>
      <trkpt lat="47.46605" lon="6.76309">
        <ele>389</ele>
        <time>2014-01-25T15:34:25.264Z</time>
      </trkpt>
      <trkpt lat="47.46623" lon="6.76311">
        <ele>389</ele>
        <time>2014-01-25T15:34:30.317Z</time>
      </trkpt>
      <trkpt lat="47.46637" lon="6.7631">
        <ele>391</ele>
        <time>2014-01-25T15:34:35.240Z</time>
      </trkpt>
      <trkpt lat="47.46651" lon="6.76313">
        <ele>393</ele>
        <time>2014-01-25T15:34:40.316Z</time>
      </trkpt>
      <trkpt lat="47.46668" lon="6.76312">
        <ele>390</ele>
        <time>2014-01-25T15:34:45.271Z</time>
      </trkpt>
      <trkpt lat="47.46683" lon="6.7631">
        <ele>388</ele>
        <time>2014-01-25T15:34:50.347Z</time>
      </trkpt>
      <trkpt lat="47.46733" lon="6.76312">
        <ele>385</ele>
        <time>2014-01-25T15:35:05.455Z</time>
      </trkpt>
      <trkpt lat="47.46725" lon="6.76265">
        <ele>385</ele>
        <time>2014-01-25T15:35:15.263Z</time>
      </trkpt>
      <trkpt lat="47.46709" lon="6.76224">
        <ele>386</ele>
        <time>2014-01-25T15:35:20.317Z</time>
      </trkpt>
      <trkpt lat="47.46785" lon="6.76284">
        <ele>386</ele>
        <time>2014-01-25T15:35:25.271Z</time>
      </trkpt>
      <trkpt lat="47.46818" lon="6.76311">
        <ele>385</ele>
        <time>2014-01-25T15:35:30.344Z</time>
      </trkpt>
      <trkpt lat="47.46846" lon="6.76322">
        <ele>384</ele>
        <time>2014-01-25T15:35:35.266Z</time>
      </trkpt>
      <trkpt lat="47.46874" lon="6.7633">
        <ele>383</ele>
        <time>2014-01-25T15:35:40.301Z</time>
      </trkpt>
      <trkpt lat="47.46901" lon="6.7633">
        <ele>382</ele>
        <time>2014-01-25T15:35:45.267Z</time>
      </trkpt>
      <trkpt lat="47.4693" lon="6.76333">
        <ele>382</ele>
        <time>2014-01-25T15:35:50.343Z</time>
      </trkpt>
      <trkpt lat="47.46957" lon="6.76339">
        <ele>380</ele>
        <time>2014-01-25T15:35:55.262Z</time>
      </trkpt>
      <trkpt lat="47.47016" lon="6.76352">
        <ele>379</ele>
        <time>2014-01-25T15:36:07.683Z</time>
      </trkpt>
      <trkpt lat="47.47044" lon="6.76359">
        <ele>379</ele>
        <time>2014-01-25T15:36:10.344Z</time>
      </trkpt>
      <trkpt lat="47.47075" lon="6.76367">
        <ele>378</ele>
        <time>2014-01-25T15:36:15.261Z</time>
      </trkpt>
      <trkpt lat="47.47105" lon="6.76371">
        <ele>376</ele>
        <time>2014-01-25T15:36:20.341Z</time>
      </trkpt>
      <trkpt lat="47.47134" lon="6.76376">
        <ele>375</ele>
        <time>2014-01-25T15:36:25.265Z</time>
      </trkpt>
      <trkpt lat="47.47164" lon="6.76385">
        <ele>375</ele>
        <time>2014-01-25T15:36:30.321Z</time>
      </trkpt>
      <trkpt lat="47.47194" lon="6.76392">
        <ele>375</ele>
        <time>2014-01-25T15:36:35.279Z</time>
      </trkpt>
      <trkpt lat="47.47227" lon="6.76399">
        <ele>374</ele>
        <time>2014-01-25T15:36:40.347Z</time>
      </trkpt>
      <trkpt lat="47.47257" lon="6.76397">
        <ele>374</ele>
        <time>2014-01-25T15:36:45.274Z</time>
      </trkpt>
      <trkpt lat="47.47288" lon="6.76393">
        <ele>373</ele>
        <time>2014-01-25T15:36:50.318Z</time>
      </trkpt>
      <trkpt lat="47.47428" lon="6.76463">
        <ele>373</ele>
        <time>2014-01-25T15:37:20.267Z</time>
      </trkpt>
      <trkpt lat="47.47426" lon="6.76493">
        <ele>373</ele>
        <time>2014-01-25T15:37:25.344Z</time>
      </trkpt>
      <trkpt lat="47.47435" lon="6.76517">
        <ele>372</ele>
        <time>2014-01-25T15:37:30.266Z</time>
      </trkpt>
      <trkpt lat="47.47455" lon="6.76522">
        <ele>373</ele>
        <time>2014-01-25T15:37:35.307Z</time>
      </trkpt>
      <trkpt lat="47.47478" lon="6.76555">
        <ele>373</ele>
        <time>2014-01-25T15:37:40.266Z</time>
      </trkpt>
      <trkpt lat="47.47497" lon="6.76586">
        <ele>373</ele>
        <time>2014-01-25T15:37:45.346Z</time>
      </trkpt>
      <trkpt lat="47.47516" lon="6.76616">
        <ele>373</ele>
        <time>2014-01-25T15:37:50.263Z</time>
      </trkpt>
      <trkpt lat="47.47538" lon="6.76652">
        <ele>373</ele>
        <time>2014-01-25T15:37:55.304Z</time>
      </trkpt>
      <trkpt lat="47.47599" lon="6.76703">
        <ele>372</ele>
        <time>2014-01-25T15:38:05.342Z</time>
      </trkpt>
      <trkpt lat="47.4763" lon="6.76721">
        <ele>372</ele>
        <time>2014-01-25T15:38:10.277Z</time>
      </trkpt>
      <trkpt lat="47.4766" lon="6.76738">
        <ele>372</ele>
        <time>2014-01-25T15:38:15.344Z</time>
      </trkpt>
      <trkpt lat="47.47685" lon="6.76754">
        <ele>372</ele>
        <time>2014-01-25T15:38:20.494Z</time>
      </trkpt>
      <trkpt lat="47.4771" lon="6.76775">
        <ele>374</ele>
        <time>2014-01-25T15:38:25.341Z</time>
      </trkpt>
      <trkpt lat="47.47735" lon="6.76792">
        <ele>373</ele>
        <time>2014-01-25T15:38:30.271Z</time>
      </trkpt>
      <trkpt lat="47.47763" lon="6.76799">
        <ele>371</ele>
        <time>2014-01-25T15:38:35.344Z</time>
      </trkpt>
      <trkpt lat="47.47784" lon="6.76808">
        <ele>370</ele>
        <time>2014-01-25T15:38:40.263Z</time>
      </trkpt>
      <trkpt lat="47.47807" lon="6.76815">
        <ele>370</ele>
        <time>2014-01-25T15:38:45.344Z</time>
      </trkpt>
      <trkpt lat="47.47832" lon="6.7681">
        <ele>371</ele>
        <time>2014-01-25T15:38:50.276Z</time>
      </trkpt>
      <trkpt lat="47.47851" lon="6.76778">
        <ele>372</ele>
        <time>2014-01-25T15:38:55.346Z</time>
      </trkpt>
      <trkpt lat="47.47869" lon="6.76748">
        <ele>373</ele>
        <time>2014-01-25T15:39:00.307Z</time>
      </trkpt>
      <trkpt lat="47.47888" lon="6.76707">
        <ele>373</ele>
        <time>2014-01-25T15:39:05.346Z</time>
      </trkpt>
      <trkpt lat="47.47909" lon="6.76673">
        <ele>375</ele>
        <time>2014-01-25T15:39:10.273Z</time>
      </trkpt>
      <trkpt lat="47.47935" lon="6.76648">
        <ele>373</ele>
        <time>2014-01-25T15:39:15.300Z</time>
      </trkpt>
      <trkpt lat="47.47957" lon="6.76631">
        <ele>373</ele>
        <time>2014-01-25T15:39:20.263Z</time>
      </trkpt>
      <trkpt lat="47.47978" lon="6.76619">
        <ele>372</ele>
        <time>2014-01-25T15:39:25.429Z</time>
      </trkpt>
      <trkpt lat="47.48" lon="6.76607">
        <ele>373</ele>
        <time>2014-01-25T15:39:30.264Z</time>
      </trkpt>
      <trkpt lat="47.48023" lon="6.76596">
        <ele>375</ele>
        <time>2014-01-25T15:39:35.344Z</time>
      </trkpt>
      <trkpt lat="47.48046" lon="6.76578">
        <ele>375</ele>
        <time>2014-01-25T15:39:40.263Z</time>
      </trkpt>
      <trkpt lat="47.48067" lon="6.76559">
        <ele>376</ele>
        <time>2014-01-25T15:39:45.351Z</time>
      </trkpt>
      <trkpt lat="47.48086" lon="6.76541">
        <ele>376</ele>
        <time>2014-01-25T15:39:50.263Z</time>
      </trkpt>
      <trkpt lat="47.48105" lon="6.76529">
        <ele>377</ele>
        <time>2014-01-25T15:39:55.335Z</time>
      </trkpt>
      <trkpt lat="47.48116" lon="6.7654">
        <ele>373</ele>
        <time>2014-01-25T15:40:00.285Z</time>
      </trkpt>
      <trkpt lat="47.48114" lon="6.76561">
        <ele>374</ele>
        <time>2014-01-25T15:40:05.319Z</time>
      </trkpt>
      <trkpt lat="47.48101" lon="6.76586">
        <ele>375</ele>
        <time>2014-01-25T15:40:10.264Z</time>
      </trkpt>
      <trkpt lat="47.48101" lon="6.76619">
        <ele>376</ele>
        <time>2014-01-25T15:40:15.322Z</time>
      </trkpt>
      <trkpt lat="47.48111" lon="6.7665">
        <ele>375</ele>
        <time>2014-01-25T15:40:20.271Z</time>
      </trkpt>
      <trkpt lat="47.4813" lon="6.76683">
        <ele>372</ele>
        <time>2014-01-25T15:40:25.363Z</time>
      </trkpt>
      <trkpt lat="47.48147" lon="6.7672">
        <ele>369</ele>
        <time>2014-01-25T15:40:30.399Z</time>
      </trkpt>
      <trkpt lat="47.48164" lon="6.7675">
        <ele>368</ele>
        <time>2014-01-25T15:40:35.320Z</time>
      </trkpt>
      <trkpt lat="47.48183" lon="6.76773">
        <ele>369</ele>
        <time>2014-01-25T15:40:40.263Z</time>
      </trkpt>
      <trkpt lat="47.48206" lon="6.76785">
        <ele>369</ele>
        <time>2014-01-25T15:40:45.329Z</time>
      </trkpt>
      <trkpt lat="47.48232" lon="6.76796">
        <ele>368</ele>
        <time>2014-01-25T15:40:50.263Z</time>
      </trkpt>
      <trkpt lat="47.48251" lon="6.7682">
        <ele>367</ele>
        <time>2014-01-25T15:40:55.349Z</time>
      </trkpt>
      <trkpt lat="47.48271" lon="6.76848">
        <ele>367</ele>
        <time>2014-01-25T15:41:00.251Z</time>
      </trkpt>
      <trkpt lat="47.48291" lon="6.76873">
        <ele>367</ele>
        <time>2014-01-25T15:41:05.345Z</time>
      </trkpt>
      <trkpt lat="47.48313" lon="6.76893">
        <ele>367</ele>
        <time>2014-01-25T15:41:10.267Z</time>
      </trkpt>
      <trkpt lat="47.48337" lon="6.76911">
        <ele>368</ele>
        <time>2014-01-25T15:41:15.341Z</time>
      </trkpt>
      <trkpt lat="47.48361" lon="6.76928">
        <ele>368</ele>
        <time>2014-01-25T15:41:20.279Z</time>
      </trkpt>
      <trkpt lat="47.48386" lon="6.76942">
        <ele>369</ele>
        <time>2014-01-25T15:41:25.327Z</time>
      </trkpt>
      <trkpt lat="47.4841" lon="6.76955">
        <ele>369</ele>
        <time>2014-01-25T15:41:30.369Z</time>
      </trkpt>
      <trkpt lat="47.48435" lon="6.76968">
        <ele>369</ele>
        <time>2014-01-25T15:41:35.345Z</time>
      </trkpt>
      <trkpt lat="47.48459" lon="6.76984">
        <ele>369</ele>
        <time>2014-01-25T15:41:40.271Z</time>
      </trkpt>
      <trkpt lat="47.48484" lon="6.77">
        <ele>369</ele>
        <time>2014-01-25T15:41:45.345Z</time>
      </trkpt>
      <trkpt lat="47.48508" lon="6.77017">
        <ele>369</ele>
        <time>2014-01-25T15:41:50.268Z</time>
      </trkpt>
      <trkpt lat="47.48531" lon="6.77036">
        <ele>369</ele>
        <time>2014-01-25T15:41:55.345Z</time>
      </trkpt>
      <trkpt lat="47.48556" lon="6.77048">
        <ele>370</ele>
        <time>2014-01-25T15:42:00.284Z</time>
      </trkpt>
      <trkpt lat="47.48573" lon="6.77057">
        <ele>371</ele>
        <time>2014-01-25T15:42:05.280Z</time>
      </trkpt>
      <trkpt lat="47.48592" lon="6.77069">
        <ele>372</ele>
        <time>2014-01-25T15:42:10.296Z</time>
      </trkpt>
      <trkpt lat="47.48615" lon="6.77084">
        <ele>372</ele>
        <time>2014-01-25T15:42:15.343Z</time>
      </trkpt>
      <trkpt lat="47.48639" lon="6.77107">
        <ele>371</ele>
        <time>2014-01-25T15:42:20.268Z</time>
      </trkpt>
      <trkpt lat="47.48665" lon="6.77133">
        <ele>370</ele>
        <time>2014-01-25T15:42:25.345Z</time>
      </trkpt>
      <trkpt lat="47.48688" lon="6.77156">
        <ele>370</ele>
        <time>2014-01-25T15:42:30.274Z</time>
      </trkpt>
      <trkpt lat="47.48734" lon="6.77192">
        <ele>370</ele>
        <time>2014-01-25T15:42:40.269Z</time>
      </trkpt>
      <trkpt lat="47.48756" lon="6.7721">
        <ele>370</ele>
        <time>2014-01-25T15:42:45.345Z</time>
      </trkpt>
      <trkpt lat="47.48779" lon="6.77227">
        <ele>371</ele>
        <time>2014-01-25T15:42:50.267Z</time>
      </trkpt>
      <trkpt lat="47.48802" lon="6.77244">
        <ele>371</ele>
        <time>2014-01-25T15:42:55.352Z</time>
      </trkpt>
      <trkpt lat="47.48824" lon="6.77261">
        <ele>370</ele>
        <time>2014-01-25T15:43:00.256Z</time>
      </trkpt>
      <trkpt lat="47.48847" lon="6.77276">
        <ele>370</ele>
        <time>2014-01-25T15:43:05.351Z</time>
      </trkpt>
      <trkpt lat="47.48869" lon="6.77285">
        <ele>370</ele>
        <time>2014-01-25T15:43:10.344Z</time>
      </trkpt>
      <trkpt lat="47.48895" lon="6.77293">
        <ele>370</ele>
        <time>2014-01-25T15:43:15.268Z</time>
      </trkpt>
      <trkpt lat="47.48919" lon="6.77303">
        <ele>370</ele>
        <time>2014-01-25T15:43:20.351Z</time>
      </trkpt>
      <trkpt lat="47.48944" lon="6.77313">
        <ele>370</ele>
        <time>2014-01-25T15:43:25.266Z</time>
      </trkpt>
      <trkpt lat="47.48971" lon="6.77318">
        <ele>370</ele>
        <time>2014-01-25T15:43:30.349Z</time>
      </trkpt>
      <trkpt lat="47.48998" lon="6.77321">
        <ele>369</ele>
        <time>2014-01-25T15:43:35.266Z</time>
      </trkpt>
      <trkpt lat="47.49025" lon="6.77324">
        <ele>369</ele>
        <time>2014-01-25T15:43:40.278Z</time>
      </trkpt>
      <trkpt lat="47.49048" lon="6.77323">
        <ele>369</ele>
        <time>2014-01-25T15:43:45.276Z</time>
      </trkpt>
      <trkpt lat="47.49073" lon="6.77322">
        <ele>368</ele>
        <time>2014-01-25T15:43:50.348Z</time>
      </trkpt>
      <trkpt lat="47.49098" lon="6.77325">
        <ele>369</ele>
        <time>2014-01-25T15:43:55.268Z</time>
      </trkpt>
      <trkpt lat="47.49195" lon="6.77333">
        <ele>371</ele>
        <time>2014-01-25T15:44:15.297Z</time>
      </trkpt>
      <trkpt lat="47.4922" lon="6.77334">
        <ele>371</ele>
        <time>2014-01-25T15:44:20.277Z</time>
      </trkpt>
      <trkpt lat="47.49245" lon="6.77334">
        <ele>370</ele>
        <time>2014-01-25T15:44:25.344Z</time>
      </trkpt>
      <trkpt lat="47.49269" lon="6.77325">
        <ele>369</ele>
        <time>2014-01-25T15:44:30.278Z</time>
      </trkpt>
      <trkpt lat="47.49297" lon="6.77328">
        <ele>368</ele>
        <time>2014-01-25T15:44:35.345Z</time>
      </trkpt>
      <trkpt lat="47.49317" lon="6.77331">
        <ele>368</ele>
        <time>2014-01-25T15:44:40.269Z</time>
      </trkpt>
      <trkpt lat="47.49332" lon="6.77339">
        <ele>367</ele>
        <time>2014-01-25T15:44:45.345Z</time>
      </trkpt>
      <trkpt lat="47.49335" lon="6.77342">
        <ele>367</ele>
        <time>2014-01-25T15:44:50.263Z</time>
      </trkpt>
      <trkpt lat="47.49335" lon="6.77341">
        <ele>366</ele>
        <time>2014-01-25T15:44:55.330Z</time>
      </trkpt>
      <trkpt lat="47.49336" lon="6.7734">
        <ele>366</ele>
        <time>2014-01-25T15:45:05.314Z</time>
      </trkpt>
      <trkpt lat="47.49336" lon="6.77339">
        <ele>367</ele>
        <time>2014-01-25T15:45:10.274Z</time>
      </trkpt>
      <trkpt lat="47.49336" lon="6.77342">
        <ele>366</ele>
        <time>2014-01-25T15:45:15.344Z</time>
      </trkpt>
      <trkpt lat="47.49337" lon="6.77343">
        <ele>366</ele>
        <time>2014-01-25T15:45:20.270Z</time>
      </trkpt>
      <trkpt lat="47.49336" lon="6.77344">
        <ele>366</ele>
        <time>2014-01-25T15:45:25.300Z</time>
      </trkpt>
      <trkpt lat="47.49336" lon="6.77343">
        <ele>366</ele>
        <time>2014-01-25T15:45:30.253Z</time>
      </trkpt>
      <trkpt lat="47.49335" lon="6.77342">
        <ele>367</ele>
        <time>2014-01-25T15:45:40.280Z</time>
      </trkpt>
      <trkpt lat="47.49335" lon="6.77342">
        <ele>367</ele>
        <time>2014-01-25T15:45:45.326Z</time>
      </trkpt>
      <trkpt lat="47.49335" lon="6.77342">
        <ele>367</ele>
        <time>2014-01-25T15:45:50.279Z</time>
      </trkpt>
      <trkpt lat="47.49335" lon="6.77342">
        <ele>367</ele>
        <time>2014-01-25T15:45:55.346Z</time>
      </trkpt>
      <trkpt lat="47.49336" lon="6.77343">
        <ele>367</ele>
        <time>2014-01-25T15:46:00.301Z</time>
      </trkpt>
      <trkpt lat="47.49336" lon="6.77343">
        <ele>367</ele>
        <time>2014-01-25T15:46:05.329Z</time>
      </trkpt>
      <trkpt lat="47.49335" lon="6.77343">
        <ele>367</ele>
        <time>2014-01-25T15:46:10.267Z</time>
      </trkpt>
      <trkpt lat="47.49335" lon="6.77343">
        <ele>367</ele>
        <time>2014-01-25T15:46:15.341Z</time>
      </trkpt>
      <trkpt lat="47.49335" lon="6.77344">
        <ele>367</ele>
        <time>2014-01-25T15:46:20.253Z</time>
      </trkpt>
      <trkpt lat="47.49335" lon="6.77343">
        <ele>367</ele>
        <time>2014-01-25T15:46:25.335Z</time>
      </trkpt>
      <trkpt lat="47.49335" lon="6.77342">
        <ele>367</ele>
        <time>2014-01-25T15:46:30.267Z</time>
      </trkpt>
      <trkpt lat="47.49334" lon="6.77343">
        <ele>366</ele>
        <time>2014-01-25T15:46:35.343Z</time>
      </trkpt>
      <trkpt lat="47.49341" lon="6.77345">
        <ele>366</ele>
        <time>2014-01-25T15:46:40.271Z</time>
      </trkpt>
      <trkpt lat="47.49356" lon="6.77348">
        <ele>367</ele>
        <time>2014-01-25T15:46:45.349Z</time>
      </trkpt>
      <trkpt lat="47.49374" lon="6.77352">
        <ele>368</ele>
        <time>2014-01-25T15:46:50.281Z</time>
      </trkpt>
      <trkpt lat="47.49395" lon="6.77351">
        <ele>367</ele>
        <time>2014-01-25T15:46:55.321Z</time>
      </trkpt>
      <trkpt lat="47.49416" lon="6.77353">
        <ele>368</ele>
        <time>2014-01-25T15:47:00.368Z</time>
      </trkpt>
      <trkpt lat="47.49438" lon="6.77355">
        <ele>368</ele>
        <time>2014-01-25T15:47:05.346Z</time>
      </trkpt>
      <trkpt lat="47.49461" lon="6.77357">
        <ele>369</ele>
        <time>2014-01-25T15:47:10.269Z</time>
      </trkpt>
      <trkpt lat="47.49484" lon="6.77359">
        <ele>369</ele>
        <time>2014-01-25T15:47:15.347Z</time>
      </trkpt>
      <trkpt lat="47.49508" lon="6.7736">
        <ele>369</ele>
        <time>2014-01-25T15:47:20.264Z</time>
      </trkpt>
      <trkpt lat="47.4953" lon="6.77362">
        <ele>368</ele>
        <time>2014-01-25T15:47:25.333Z</time>
      </trkpt>
      <trkpt lat="47.49553" lon="6.77363">
        <ele>369</ele>
        <time>2014-01-25T15:47:30.269Z</time>
      </trkpt>
      <trkpt lat="47.49575" lon="6.77364">
        <ele>369</ele>
        <time>2014-01-25T15:47:35.347Z</time>
      </trkpt>
      <trkpt lat="47.49598" lon="6.77363">
        <ele>369</ele>
        <time>2014-01-25T15:47:40.264Z</time>
      </trkpt>
      <trkpt lat="47.4962" lon="6.77359">
        <ele>369</ele>
        <time>2014-01-25T15:47:45.341Z</time>
      </trkpt>
      <trkpt lat="47.49642" lon="6.77354">
        <ele>369</ele>
        <time>2014-01-25T15:47:50.268Z</time>
      </trkpt>
      <trkpt lat="47.49665" lon="6.77348">
        <ele>370</ele>
        <time>2014-01-25T15:47:55.342Z</time>
      </trkpt>
      <trkpt lat="47.49745" lon="6.77325">
        <ele>371</ele>
        <time>2014-01-25T15:48:15.348Z</time>
      </trkpt>
      <trkpt lat="47.49764" lon="6.77316">
        <ele>371</ele>
        <time>2014-01-25T15:48:20.266Z</time>
      </trkpt>
      <trkpt lat="47.49786" lon="6.77318">
        <ele>372</ele>
        <time>2014-01-25T15:48:25.341Z</time>
      </trkpt>
      <trkpt lat="47.49809" lon="6.77319">
        <ele>373</ele>
        <time>2014-01-25T15:48:30.269Z</time>
      </trkpt>
      <trkpt lat="47.49831" lon="6.7732">
        <ele>376</ele>
        <time>2014-01-25T15:48:35.345Z</time>
      </trkpt>
      <trkpt lat="47.49854" lon="6.77318">
        <ele>377</ele>
        <time>2014-01-25T15:48:40.267Z</time>
      </trkpt>
      <trkpt lat="47.49878" lon="6.77313">
        <ele>377</ele>
        <time>2014-01-25T15:48:45.347Z</time>
      </trkpt>
      <trkpt lat="47.499" lon="6.77305">
        <ele>378</ele>
        <time>2014-01-25T15:48:50.278Z</time>
      </trkpt>
      <trkpt lat="47.49923" lon="6.7729">
        <ele>378</ele>
        <time>2014-01-25T15:48:55.352Z</time>
      </trkpt>
      <trkpt lat="47.49944" lon="6.77275">
        <ele>377</ele>
        <time>2014-01-25T15:49:00.310Z</time>
      </trkpt>
      <trkpt lat="47.49966" lon="6.77262">
        <ele>378</ele>
        <time>2014-01-25T15:49:05.269Z</time>
      </trkpt>
      <trkpt lat="47.49987" lon="6.77251">
        <ele>378</ele>
        <time>2014-01-25T15:49:10.345Z</time>
      </trkpt>
      <trkpt lat="47.50005" lon="6.77244">
        <ele>379</ele>
        <time>2014-01-25T15:49:15.268Z</time>
      </trkpt>
      <trkpt lat="47.50016" lon="6.77238">
        <ele>378</ele>
        <time>2014-01-25T15:49:20.345Z</time>
      </trkpt>
      <trkpt lat="47.50028" lon="6.77232">
        <ele>378</ele>
        <time>2014-01-25T15:49:25.271Z</time>
      </trkpt>
      <trkpt lat="47.50047" lon="6.77224">
        <ele>378</ele>
        <time>2014-01-25T15:49:30.343Z</time>
      </trkpt>
      <trkpt lat="47.50067" lon="6.77219">
        <ele>379</ele>
        <time>2014-01-25T15:49:35.273Z</time>
      </trkpt>
      <trkpt lat="47.50089" lon="6.77212">
        <ele>379</ele>
        <time>2014-01-25T15:49:40.344Z</time>
      </trkpt>
      <trkpt lat="47.50111" lon="6.77206">
        <ele>377</ele>
        <time>2014-01-25T15:49:45.275Z</time>
      </trkpt>
      <trkpt lat="47.50139" lon="6.77209">
        <ele>374</ele>
        <time>2014-01-25T15:49:50.350Z</time>
      </trkpt>
      <trkpt lat="47.50164" lon="6.77225">
        <ele>373</ele>
        <time>2014-01-25T15:49:55.263Z</time>
      </trkpt>
      <trkpt lat="47.50183" lon="6.77243">
        <ele>373</ele>
        <time>2014-01-25T15:50:00.285Z</time>
      </trkpt>
      <trkpt lat="47.50204" lon="6.77261">
        <ele>373</ele>
        <time>2014-01-25T15:50:05.266Z</time>
      </trkpt>
      <trkpt lat="47.50225" lon="6.77275">
        <ele>372</ele>
        <time>2014-01-25T15:50:10.345Z</time>
      </trkpt>
      <trkpt lat="47.50243" lon="6.7729">
        <ele>372</ele>
        <time>2014-01-25T15:50:15.269Z</time>
      </trkpt>
      <trkpt lat="47.50263" lon="6.77303">
        <ele>372</ele>
        <time>2014-01-25T15:50:20.348Z</time>
      </trkpt>
      <trkpt lat="47.50282" lon="6.77317">
        <ele>372</ele>
        <time>2014-01-25T15:50:25.271Z</time>
      </trkpt>
      <trkpt lat="47.50302" lon="6.77331">
        <ele>372</ele>
        <time>2014-01-25T15:50:30.266Z</time>
      </trkpt>
      <trkpt lat="47.50322" lon="6.77345">
        <ele>371</ele>
        <time>2014-01-25T15:50:35.303Z</time>
      </trkpt>
      <trkpt lat="47.50342" lon="6.7736">
        <ele>371</ele>
        <time>2014-01-25T15:50:40.263Z</time>
      </trkpt>
      <trkpt lat="47.50361" lon="6.77376">
        <ele>371</ele>
        <time>2014-01-25T15:50:45.311Z</time>
      </trkpt>
      <trkpt lat="47.50381" lon="6.77391">
        <ele>370</ele>
        <time>2014-01-25T15:50:50.277Z</time>
      </trkpt>
      <trkpt lat="47.50401" lon="6.77407">
        <ele>370</ele>
        <time>2014-01-25T15:50:55.347Z</time>
      </trkpt>
      <trkpt lat="47.5042" lon="6.77424">
        <ele>370</ele>
        <time>2014-01-25T15:51:00.274Z</time>
      </trkpt>
      <trkpt lat="47.50439" lon="6.77441">
        <ele>369</ele>
        <time>2014-01-25T15:51:05.350Z</time>
      </trkpt>
      <trkpt lat="47.50459" lon="6.77458">
        <ele>370</ele>
        <time>2014-01-25T15:51:10.267Z</time>
      </trkpt>
      <trkpt lat="47.50478" lon="6.77475">
        <ele>371</ele>
        <time>2014-01-25T15:51:15.345Z</time>
      </trkpt>
      <trkpt lat="47.50497" lon="6.77492">
        <ele>372</ele>
        <time>2014-01-25T15:51:20.277Z</time>
      </trkpt>
      <trkpt lat="47.50516" lon="6.77507">
        <ele>372</ele>
        <time>2014-01-25T15:51:25.349Z</time>
      </trkpt>
      <trkpt lat="47.50537" lon="6.7752">
        <ele>372</ele>
        <time>2014-01-25T15:51:30.277Z</time>
      </trkpt>
      <trkpt lat="47.50555" lon="6.77539">
        <ele>372</ele>
        <time>2014-01-25T15:51:35.352Z</time>
      </trkpt>
      <trkpt lat="47.5057" lon="6.77558">
        <ele>371</ele>
        <time>2014-01-25T15:51:40.265Z</time>
      </trkpt>
      <trkpt lat="47.50588" lon="6.77546">
        <ele>371</ele>
        <time>2014-01-25T15:51:45.347Z</time>
      </trkpt>
      <trkpt lat="47.50603" lon="6.77534">
        <ele>372</ele>
        <time>2014-01-25T15:51:50.263Z</time>
      </trkpt>
      <trkpt lat="47.50624" lon="6.77529">
        <ele>374</ele>
        <time>2014-01-25T15:51:55.345Z</time>
      </trkpt>
      <trkpt lat="47.50648" lon="6.77533">
        <ele>373</ele>
        <time>2014-01-25T15:52:00.425Z</time>
      </trkpt>
      <trkpt lat="47.5067" lon="6.77536">
        <ele>372</ele>
        <time>2014-01-25T15:52:05.312Z</time>
      </trkpt>
      <trkpt lat="47.50692" lon="6.77531">
        <ele>372</ele>
        <time>2014-01-25T15:52:10.264Z</time>
      </trkpt>
      <trkpt lat="47.50716" lon="6.77536">
        <ele>372</ele>
        <time>2014-01-25T15:52:15.345Z</time>
      </trkpt>
      <trkpt lat="47.50738" lon="6.77548">
        <ele>371</ele>
        <time>2014-01-25T15:52:20.265Z</time>
      </trkpt>
      <trkpt lat="47.50757" lon="6.77564">
        <ele>370</ele>
        <time>2014-01-25T15:52:25.345Z</time>
      </trkpt>
      <trkpt lat="47.50776" lon="6.77582">
        <ele>369</ele>
        <time>2014-01-25T15:52:30.273Z</time>
      </trkpt>
      <trkpt lat="47.50796" lon="6.77597">
        <ele>369</ele>
        <time>2014-01-25T15:52:35.344Z</time>
      </trkpt>
      <trkpt lat="47.50816" lon="6.77613">
        <ele>368</ele>
        <time>2014-01-25T15:52:40.265Z</time>
      </trkpt>
      <trkpt lat="47.50831" lon="6.77627">
        <ele>368</ele>
        <time>2014-01-25T15:52:45.333Z</time>
      </trkpt>
      <trkpt lat="47.50845" lon="6.77642">
        <ele>369</ele>
        <time>2014-01-25T15:52:50.278Z</time>
      </trkpt>
      <trkpt lat="47.50876" lon="6.77691">
        <ele>369</ele>
        <time>2014-01-25T15:53:00.257Z</time>
      </trkpt>
      <trkpt lat="47.50894" lon="6.77705">
        <ele>370</ele>
        <time>2014-01-25T15:53:05.348Z</time>
      </trkpt>
      <trkpt lat="47.50918" lon="6.77702">
        <ele>370</ele>
        <time>2014-01-25T15:53:10.345Z</time>
      </trkpt>
      <trkpt lat="47.50937" lon="6.77707">
        <ele>371</ele>
        <time>2014-01-25T15:53:15.263Z</time>
      </trkpt>
      <trkpt lat="47.50948" lon="6.77707">
        <ele>370</ele>
        <time>2014-01-25T15:53:20.347Z</time>
      </trkpt>
      <trkpt lat="47.50963" lon="6.77699">
        <ele>371</ele>
        <time>2014-01-25T15:53:25.274Z</time>
      </trkpt>
      <trkpt lat="47.50975" lon="6.77699">
        <ele>371</ele>
        <time>2014-01-25T15:53:30.341Z</time>
      </trkpt>
      <trkpt lat="47.50991" lon="6.77716">
        <ele>371</ele>
        <time>2014-01-25T15:53:35.264Z</time>
      </trkpt>
      <trkpt lat="47.51009" lon="6.7773">
        <ele>370</ele>
        <time>2014-01-25T15:53:40.346Z</time>
      </trkpt>
      <trkpt lat="47.51025" lon="6.77744">
        <ele>371</ele>
        <time>2014-01-25T15:53:45.264Z</time>
      </trkpt>
      <trkpt lat="47.5104" lon="6.77756">
        <ele>372</ele>
        <time>2014-01-25T15:53:50.346Z</time>
      </trkpt>
      <trkpt lat="47.51053" lon="6.77766">
        <ele>372</ele>
        <time>2014-01-25T15:53:55.265Z</time>
      </trkpt>
      <trkpt lat="47.51074" lon="6.77775">
        <ele>375</ele>
        <time>2014-01-25T15:54:05.272Z</time>
      </trkpt>
      <trkpt lat="47.51085" lon="6.77776">
        <ele>376</ele>
        <time>2014-01-25T15:54:10.273Z</time>
      </trkpt>
      <trkpt lat="47.51105" lon="6.77784">
        <ele>375</ele>
        <time>2014-01-25T15:54:15.346Z</time>
      </trkpt>
      <trkpt lat="47.51121" lon="6.77787">
        <ele>375</ele>
        <time>2014-01-25T15:54:20.259Z</time>
      </trkpt>
      <trkpt lat="47.51135" lon="6.77787">
        <ele>375</ele>
        <time>2014-01-25T15:54:25.346Z</time>
      </trkpt>
      <trkpt lat="47.51148" lon="6.77788">
        <ele>375</ele>
        <time>2014-01-25T15:54:30.278Z</time>
      </trkpt>
      <trkpt lat="47.51159" lon="6.7779">
        <ele>375</ele>
        <time>2014-01-25T15:54:35.347Z</time>
      </trkpt>
      <trkpt lat="47.5117" lon="6.77789">
        <ele>375</ele>
        <time>2014-01-25T15:54:40.345Z</time>
      </trkpt>
      <trkpt lat="47.5118" lon="6.77787">
        <ele>376</ele>
        <time>2014-01-25T15:54:45.274Z</time>
      </trkpt>
      <trkpt lat="47.5119" lon="6.77788">
        <ele>377</ele>
        <time>2014-01-25T15:54:50.325Z</time>
      </trkpt>
      <trkpt lat="47.512" lon="6.77787">
        <ele>377</ele>
        <time>2014-01-25T15:54:55.267Z</time>
      </trkpt>
      <trkpt lat="47.51209" lon="6.77787">
        <ele>378</ele>
        <time>2014-01-25T15:55:01.446Z</time>
      </trkpt>
      <trkpt lat="47.51217" lon="6.77788">
        <ele>379</ele>
        <time>2014-01-25T15:55:05.302Z</time>
      </trkpt>
      <trkpt lat="47.51225" lon="6.77787">
        <ele>380</ele>
        <time>2014-01-25T15:55:10.243Z</time>
      </trkpt>
      <trkpt lat="47.51233" lon="6.77787">
        <ele>381</ele>
        <time>2014-01-25T15:55:15.347Z</time>
      </trkpt>
      <trkpt lat="47.5124" lon="6.77785">
        <ele>382</ele>
        <time>2014-01-25T15:55:20.267Z</time>
      </trkpt>
      <trkpt lat="47.51248" lon="6.77785">
        <ele>383</ele>
        <time>2014-01-25T15:55:25.347Z</time>
      </trkpt>
      <trkpt lat="47.51255" lon="6.77786">
        <ele>384</ele>
        <time>2014-01-25T15:55:30.274Z</time>
      </trkpt>
      <trkpt lat="47.51263" lon="6.77785">
        <ele>385</ele>
        <time>2014-01-25T15:55:35.324Z</time>
      </trkpt>
      <trkpt lat="47.5127" lon="6.77785">
        <ele>385</ele>
        <time>2014-01-25T15:55:40.446Z</time>
      </trkpt>
      <trkpt lat="47.51278" lon="6.77783">
        <ele>386</ele>
        <time>2014-01-25T15:55:45.347Z</time>
      </trkpt>
      <trkpt lat="47.51285" lon="6.77783">
        <ele>386</ele>
        <time>2014-01-25T15:55:50.269Z</time>
      </trkpt>
      <trkpt lat="47.51293" lon="6.77782">
        <ele>386</ele>
        <time>2014-01-25T15:55:55.337Z</time>
      </trkpt>
      <trkpt lat="47.51322" lon="6.77777">
        <ele>391</ele>
        <time>2014-01-25T15:56:15.342Z</time>
      </trkpt>
      <trkpt lat="47.51329" lon="6.77776">
        <ele>392</ele>
        <time>2014-01-25T15:56:20.276Z</time>
      </trkpt>
      <trkpt lat="47.51335" lon="6.77779">
        <ele>393</ele>
        <time>2014-01-25T15:56:25.344Z</time>
      </trkpt>
      <trkpt lat="47.51341" lon="6.77784">
        <ele>394</ele>
        <time>2014-01-25T15:56:30.266Z</time>
      </trkpt>
      <trkpt lat="47.51348" lon="6.77782">
        <ele>396</ele>
        <time>2014-01-25T15:56:35.345Z</time>
      </trkpt>
      <trkpt lat="47.51355" lon="6.77777">
        <ele>396</ele>
        <time>2014-01-25T15:56:40.264Z</time>
      </trkpt>
      <trkpt lat="47.51362" lon="6.77773">
        <ele>396</ele>
        <time>2014-01-25T15:56:45.349Z</time>
      </trkpt>
      <trkpt lat="47.51369" lon="6.77768">
        <ele>397</ele>
        <time>2014-01-25T15:56:50.272Z</time>
      </trkpt>
      <trkpt lat="47.51377" lon="6.77764">
        <ele>397</ele>
        <time>2014-01-25T15:56:55.324Z</time>
      </trkpt>
      <trkpt lat="47.51384" lon="6.77761">
        <ele>399</ele>
        <time>2014-01-25T15:57:03.681Z</time>
      </trkpt>
      <trkpt lat="47.5139" lon="6.77757">
        <ele>400</ele>
        <time>2014-01-25T15:57:05.352Z</time>
      </trkpt>
      <trkpt lat="47.51397" lon="6.77754">
        <ele>401</ele>
        <time>2014-01-25T15:57:10.278Z</time>
      </trkpt>
      <trkpt lat="47.51404" lon="6.77752">
        <ele>401</ele>
        <time>2014-01-25T15:57:15.353Z</time>
      </trkpt>
      <trkpt lat="47.51409" lon="6.77748">
        <ele>402</ele>
        <time>2014-01-25T15:57:20.276Z</time>
      </trkpt>
      <trkpt lat="47.51415" lon="6.77746">
        <ele>403</ele>
        <time>2014-01-25T15:57:25.331Z</time>
      </trkpt>
      <trkpt lat="47.51421" lon="6.77742">
        <ele>403</ele>
        <time>2014-01-25T15:57:30.265Z</time>
      </trkpt>
      <trkpt lat="47.51427" lon="6.7774">
        <ele>404</ele>
        <time>2014-01-25T15:57:35.348Z</time>
      </trkpt>
      <trkpt lat="47.51433" lon="6.77737">
        <ele>405</ele>
        <time>2014-01-25T15:57:40.256Z</time>
      </trkpt>
      <trkpt lat="47.51439" lon="6.77733">
        <ele>406</ele>
        <time>2014-01-25T15:57:45.344Z</time>
      </trkpt>
      <trkpt lat="47.51445" lon="6.77732">
        <ele>407</ele>
        <time>2014-01-25T15:57:50.267Z</time>
      </trkpt>
      <trkpt lat="47.51452" lon="6.77732">
        <ele>408</ele>
        <time>2014-01-25T15:57:55.344Z</time>
      </trkpt>
      <trkpt lat="47.51458" lon="6.77733">
        <ele>410</ele>
        <time>2014-01-25T15:58:00.254Z</time>
      </trkpt>
      <trkpt lat="47.51464" lon="6.77731">
        <ele>410</ele>
        <time>2014-01-25T15:58:05.344Z</time>
      </trkpt>
      <trkpt lat="47.51471" lon="6.7773">
        <ele>411</ele>
        <time>2014-01-25T15:58:10.271Z</time>
      </trkpt>
      <trkpt lat="47.51477" lon="6.77729">
        <ele>411</ele>
        <time>2014-01-25T15:58:15.344Z</time>
      </trkpt>
      <trkpt lat="47.51483" lon="6.77729">
        <ele>413</ele>
        <time>2014-01-25T15:58:20.266Z</time>
      </trkpt>
      <trkpt lat="47.5149" lon="6.77728">
        <ele>414</ele>
        <time>2014-01-25T15:58:25.344Z</time>
      </trkpt>
      <trkpt lat="47.51497" lon="6.77728">
        <ele>415</ele>
        <time>2014-01-25T15:58:30.273Z</time>
      </trkpt>
      <trkpt lat="47.51503" lon="6.77727">
        <ele>415</ele>
        <time>2014-01-25T15:58:35.346Z</time>
      </trkpt>
      <trkpt lat="47.5151" lon="6.77727">
        <ele>415</ele>
        <time>2014-01-25T15:58:40.271Z</time>
      </trkpt>
      <trkpt lat="47.51516" lon="6.77725">
        <ele>418</ele>
        <time>2014-01-25T15:58:45.311Z</time>
      </trkpt>
      <trkpt lat="47.5152" lon="6.77727">
        <ele>420</ele>
        <time>2014-01-25T15:58:50.271Z</time>
      </trkpt>
      <trkpt lat="47.51525" lon="6.77729">
        <ele>422</ele>
        <time>2014-01-25T15:58:55.345Z</time>
      </trkpt>
      <trkpt lat="47.51531" lon="6.77725">
        <ele>421</ele>
        <time>2014-01-25T15:59:00.268Z</time>
      </trkpt>
      <trkpt lat="47.51538" lon="6.77726">
        <ele>421</ele>
        <time>2014-01-25T15:59:05.339Z</time>
      </trkpt>
      <trkpt lat="47.5155" lon="6.77725">
        <ele>420</ele>
        <time>2014-01-25T15:59:15.346Z</time>
      </trkpt>
      <trkpt lat="47.51556" lon="6.77727">
        <ele>421</ele>
        <time>2014-01-25T15:59:20.266Z</time>
      </trkpt>
      <trkpt lat="47.51562" lon="6.77731">
        <ele>422</ele>
        <time>2014-01-25T15:59:25.344Z</time>
      </trkpt>
      <trkpt lat="47.51568" lon="6.77734">
        <ele>424</ele>
        <time>2014-01-25T15:59:30.267Z</time>
      </trkpt>
      <trkpt lat="47.51574" lon="6.77736">
        <ele>425</ele>
        <time>2014-01-25T15:59:35.357Z</time>
      </trkpt>
      <trkpt lat="47.5158" lon="6.77737">
        <ele>426</ele>
        <time>2014-01-25T15:59:40.263Z</time>
      </trkpt>
      <trkpt lat="47.51586" lon="6.77741">
        <ele>426</ele>
        <time>2014-01-25T15:59:45.346Z</time>
      </trkpt>
      <trkpt lat="47.51593" lon="6.77746">
        <ele>427</ele>
        <time>2014-01-25T15:59:50.271Z</time>
      </trkpt>
      <trkpt lat="47.51598" lon="6.77754">
        <ele>427</ele>
        <time>2014-01-25T15:59:55.325Z</time>
      </trkpt>
      <trkpt lat="47.51604" lon="6.77758">
        <ele>429</ele>
        <time>2014-01-25T16:00:00.267Z</time>
      </trkpt>
      <trkpt lat="47.51612" lon="6.77758">
        <ele>430</ele>
        <time>2014-01-25T16:00:05.305Z</time>
      </trkpt>
      <trkpt lat="47.51621" lon="6.7776">
        <ele>431</ele>
        <time>2014-01-25T16:00:10.273Z</time>
      </trkpt>
      <trkpt lat="47.51628" lon="6.77762">
        <ele>433</ele>
        <time>2014-01-25T16:00:15.344Z</time>
      </trkpt>
      <trkpt lat="47.51635" lon="6.77763">
        <ele>433</ele>
        <time>2014-01-25T16:00:20.278Z</time>
      </trkpt>
      <trkpt lat="47.51644" lon="6.77765">
        <ele>434</ele>
        <time>2014-01-25T16:00:25.269Z</time>
      </trkpt>
      <trkpt lat="47.5165" lon="6.77765">
        <ele>436</ele>
        <time>2014-01-25T16:00:30.334Z</time>
      </trkpt>
      <trkpt lat="47.51656" lon="6.77766">
        <ele>438</ele>
        <time>2014-01-25T16:00:35.269Z</time>
      </trkpt>
      <trkpt lat="47.51665" lon="6.77769">
        <ele>440</ele>
        <time>2014-01-25T16:00:40.335Z</time>
      </trkpt>
      <trkpt lat="47.51671" lon="6.7777">
        <ele>441</ele>
        <time>2014-01-25T16:00:45.267Z</time>
      </trkpt>
      <trkpt lat="47.51679" lon="6.77772">
        <ele>443</ele>
        <time>2014-01-25T16:00:50.335Z</time>
      </trkpt>
      <trkpt lat="47.51685" lon="6.77774">
        <ele>445</ele>
        <time>2014-01-25T16:00:55.280Z</time>
      </trkpt>
      <trkpt lat="47.51691" lon="6.77775">
        <ele>447</ele>
        <time>2014-01-25T16:01:00.319Z</time>
      </trkpt>
      <trkpt lat="47.51695" lon="6.77769">
        <ele>447</ele>
        <time>2014-01-25T16:01:05.280Z</time>
      </trkpt>
      <trkpt lat="47.51698" lon="6.77762">
        <ele>448</ele>
        <time>2014-01-25T16:01:10.349Z</time>
      </trkpt>
      <trkpt lat="47.51702" lon="6.77751">
        <ele>448</ele>
        <time>2014-01-25T16:01:15.275Z</time>
      </trkpt>
      <trkpt lat="47.51706" lon="6.7774">
        <ele>446</ele>
        <time>2014-01-25T16:01:20.345Z</time>
      </trkpt>
      <trkpt lat="47.51708" lon="6.77728">
        <ele>446</ele>
        <time>2014-01-25T16:01:25.282Z</time>
      </trkpt>
      <trkpt lat="47.5171" lon="6.77717">
        <ele>446</ele>
        <time>2014-01-25T16:01:30.349Z</time>
      </trkpt>
      <trkpt lat="47.51712" lon="6.77707">
        <ele>446</ele>
        <time>2014-01-25T16:01:35.275Z</time>
      </trkpt>
      <trkpt lat="47.51715" lon="6.77698">
        <ele>447</ele>
        <time>2014-01-25T16:01:40.351Z</time>
      </trkpt>
      <trkpt lat="47.51715" lon="6.77687">
        <ele>447</ele>
        <time>2014-01-25T16:01:45.278Z</time>
      </trkpt>
      <trkpt lat="47.51716" lon="6.77676">
        <ele>447</ele>
        <time>2014-01-25T16:01:50.350Z</time>
      </trkpt>
      <trkpt lat="47.51716" lon="6.77665">
        <ele>447</ele>
        <time>2014-01-25T16:01:55.281Z</time>
      </trkpt>
      <trkpt lat="47.51716" lon="6.77615">
        <ele>447</ele>
        <time>2014-01-25T16:02:15.342Z</time>
      </trkpt>
      <trkpt lat="47.51719" lon="6.77604">
        <ele>447</ele>
        <time>2014-01-25T16:02:20.294Z</time>
      </trkpt>
      <trkpt lat="47.51723" lon="6.77593">
        <ele>448</ele>
        <time>2014-01-25T16:02:25.636Z</time>
      </trkpt>
      <trkpt lat="47.51727" lon="6.77584">
        <ele>448</ele>
        <time>2014-01-25T16:02:30.345Z</time>
      </trkpt>
      <trkpt lat="47.51724" lon="6.77569">
        <ele>448</ele>
        <time>2014-01-25T16:02:35.274Z</time>
      </trkpt>
      <trkpt lat="47.51723" lon="6.77551">
        <ele>448</ele>
        <time>2014-01-25T16:02:40.346Z</time>
      </trkpt>
      <trkpt lat="47.51727" lon="6.7753">
        <ele>448</ele>
        <time>2014-01-25T16:02:45.273Z</time>
      </trkpt>
      <trkpt lat="47.51732" lon="6.77509">
        <ele>448</ele>
        <time>2014-01-25T16:02:50.346Z</time>
      </trkpt>
      <trkpt lat="47.51738" lon="6.77486">
        <ele>447</ele>
        <time>2014-01-25T16:02:55.277Z</time>
      </trkpt>
      <trkpt lat="47.51757" lon="6.77483">
        <ele>448</ele>
        <time>2014-01-25T16:03:00.328Z</time>
      </trkpt>
      <trkpt lat="47.51779" lon="6.7749">
        <ele>448</ele>
        <time>2014-01-25T16:03:05.294Z</time>
      </trkpt>
      <trkpt lat="47.51803" lon="6.775">
        <ele>447</ele>
        <time>2014-01-25T16:03:10.351Z</time>
      </trkpt>
      <trkpt lat="47.51811" lon="6.77489">
        <ele>446</ele>
        <time>2014-01-25T16:03:15.287Z</time>
      </trkpt>
      <trkpt lat="47.51809" lon="6.77486">
        <ele>446</ele>
        <time>2014-01-25T16:03:20.349Z</time>
      </trkpt>
      <trkpt lat="47.51811" lon="6.77484">
        <ele>447</ele>
        <time>2014-01-25T16:03:25.284Z</time>
      </trkpt>
      <trkpt lat="47.51812" lon="6.77483">
        <ele>447</ele>
        <time>2014-01-25T16:03:30.346Z</time>
      </trkpt>
      <trkpt lat="47.51809" lon="6.77484">
        <ele>447</ele>
        <time>2014-01-25T16:03:35.287Z</time>
      </trkpt>
      <trkpt lat="47.51805" lon="6.77484">
        <ele>448</ele>
        <time>2014-01-25T16:03:40.314Z</time>
      </trkpt>
      <trkpt lat="47.51804" lon="6.77484">
        <ele>448</ele>
        <time>2014-01-25T16:03:45.275Z</time>
      </trkpt>
      <trkpt lat="47.51803" lon="6.77486">
        <ele>448</ele>
        <time>2014-01-25T16:03:50.338Z</time>
      </trkpt>
      <trkpt lat="47.51802" lon="6.77485">
        <ele>449</ele>
        <time>2014-01-25T16:03:55.279Z</time>
      </trkpt>
      <trkpt lat="47.51804" lon="6.77492">
        <ele>450</ele>
        <time>2014-01-25T16:04:05.270Z</time>
      </trkpt>
      <trkpt lat="47.51804" lon="6.7749">
        <ele>450</ele>
        <time>2014-01-25T16:04:10.348Z</time>
      </trkpt>
      <trkpt lat="47.51804" lon="6.77485">
        <ele>449</ele>
        <time>2014-01-25T16:04:15.281Z</time>
      </trkpt>
      <trkpt lat="47.51801" lon="6.77476">
        <ele>449</ele>
        <time>2014-01-25T16:04:20.312Z</time>
      </trkpt>
      <trkpt lat="47.51799" lon="6.77476">
        <ele>449</ele>
        <time>2014-01-25T16:04:25.235Z</time>
      </trkpt>
      <trkpt lat="47.51802" lon="6.7748">
        <ele>448</ele>
        <time>2014-01-25T16:04:35.263Z</time>
      </trkpt>
      <trkpt lat="47.51805" lon="6.77485">
        <ele>449</ele>
        <time>2014-01-25T16:04:40.342Z</time>
      </trkpt>
      <trkpt lat="47.51805" lon="6.77488">
        <ele>448</ele>
        <time>2014-01-25T16:04:45.274Z</time>
      </trkpt>
      <trkpt lat="47.51805" lon="6.77487">
        <ele>449</ele>
        <time>2014-01-25T16:04:50.345Z</time>
      </trkpt>
      <trkpt lat="47.51808" lon="6.77488">
        <ele>449</ele>
        <time>2014-01-25T16:04:55.267Z</time>
      </trkpt>
      <trkpt lat="47.51807" lon="6.77491">
        <ele>449</ele>
        <time>2014-01-25T16:05:15.321Z</time>
      </trkpt>
      <trkpt lat="47.51808" lon="6.77488">
        <ele>449</ele>
        <time>2014-01-25T16:05:20.271Z</time>
      </trkpt>
      <trkpt lat="47.51809" lon="6.77487">
        <ele>450</ele>
        <time>2014-01-25T16:05:25.336Z</time>
      </trkpt>
      <trkpt lat="47.51809" lon="6.77487">
        <ele>449</ele>
        <time>2014-01-25T16:05:30.275Z</time>
      </trkpt>
      <trkpt lat="47.51809" lon="6.77487">
        <ele>450</ele>
        <time>2014-01-25T16:05:35.347Z</time>
      </trkpt>
      <trkpt lat="47.51809" lon="6.77487">
        <ele>449</ele>
        <time>2014-01-25T16:05:40.276Z</time>
      </trkpt>
      <trkpt lat="47.51809" lon="6.77487">
        <ele>449</ele>
        <time>2014-01-25T16:05:45.350Z</time>
      </trkpt>
      <trkpt lat="47.51809" lon="6.77487">
        <ele>449</ele>
        <time>2014-01-25T16:05:50.281Z</time>
      </trkpt>
      <trkpt lat="47.5181" lon="6.77488">
        <ele>449</ele>
        <time>2014-01-25T16:05:55.317Z</time>
      </trkpt>
      <trkpt lat="47.5181" lon="6.77488">
        <ele>449</ele>
        <time>2014-01-25T16:06:02.868Z</time>
      </trkpt>
      <trkpt lat="47.5181" lon="6.77488">
        <ele>449</ele>
        <time>2014-01-25T16:06:05.346Z</time>
      </trkpt>
      <trkpt lat="47.51809" lon="6.77487">
        <ele>448</ele>
        <time>2014-01-25T16:06:10.273Z</time>
      </trkpt>
      <trkpt lat="47.51811" lon="6.77484">
        <ele>447</ele>
        <time>2014-01-25T16:06:15.346Z</time>
      </trkpt>
      <trkpt lat="47.51811" lon="6.77484">
        <ele>446</ele>
        <time>2014-01-25T16:06:20.288Z</time>
      </trkpt>
      <trkpt lat="47.51811" lon="6.77485">
        <ele>447</ele>
        <time>2014-01-25T16:06:25.347Z</time>
      </trkpt>
      <trkpt lat="47.51811" lon="6.77485">
        <ele>447</ele>
        <time>2014-01-25T16:06:30.262Z</time>
      </trkpt>
      <trkpt lat="47.51811" lon="6.77485">
        <ele>447</ele>
        <time>2014-01-25T16:06:35.287Z</time>
      </trkpt>
      <trkpt lat="47.51811" lon="6.77485">
        <ele>447</ele>
        <time>2014-01-25T16:06:40.278Z</time>
      </trkpt>
      <trkpt lat="47.51811" lon="6.77485">
        <ele>447</ele>
        <time>2014-01-25T16:06:45.354Z</time>
      </trkpt>
      <trkpt lat="47.5181" lon="6.77486">
        <ele>448</ele>
        <time>2014-01-25T16:06:50.273Z</time>
      </trkpt>
      <trkpt lat="47.51809" lon="6.77486">
        <ele>448</ele>
        <time>2014-01-25T16:06:55.345Z</time>
      </trkpt>
      <trkpt lat="47.51806" lon="6.77482">
        <ele>449</ele>
        <time>2014-01-25T16:07:11.437Z</time>
      </trkpt>
      <trkpt lat="47.51803" lon="6.77479">
        <ele>448</ele>
        <time>2014-01-25T16:07:15.320Z</time>
      </trkpt>
      <trkpt lat="47.51803" lon="6.77479">
        <ele>448</ele>
        <time>2014-01-25T16:07:20.257Z</time>
      </trkpt>
      <trkpt lat="47.51803" lon="6.7748">
        <ele>448</ele>
        <time>2014-01-25T16:07:30.234Z</time>
      </trkpt>
    </trkseg>
  </trk>
</gpx>